Wetterdaten: Montag, 12.06.2017
Datum Zeit Temp. A. Pool Temp. Feuchte A. Luftdruck Regen Wind Richtung Richtung Sonnenschein ET UV Solar Taupunkt Windchill Windben Empfang
12.06.2017 00:00 15,5 C 25,0 C 75 % 1014,1 hPa 0,0 l/m 2,9 km/h (1 Bft) O-NO 73 0 min 0,000 mm 0,0 UV-I 0 W/m 11,1 C 15,5 C 4,8 km/h (1 Bft) 92,00 %
12.06.2017 00:02 15,5 C 25,6 C 75 % 1014,0 hPa 0,0 l/m 3,7 km/h (1 Bft) O-NO 73 0 min 0,000 mm 0,0 UV-I 0 W/m 11,1 C 15,5 C 4,8 km/h (1 Bft) 15,38 %
12.06.2017 00:04 15,5 C 25,6 C 75 % 1014,0 hPa 0,0 l/m 2,8 km/h (1 Bft) O-NO 73 0 min 0,000 mm 0,0 UV-I 0 W/m 11,1 C 15,5 C 4,8 km/h (1 Bft) 9,09 %
12.06.2017 00:06 15,4 C 25,6 C 77 % 1014,1 hPa 0,0 l/m 2,1 km/h (1 Bft) O-NO 73 0 min 0,000 mm 0,0 UV-I 0 W/m 11,4 C 15,4 C 3,2 km/h (1 Bft) 91,30 %
12.06.2017 00:08 15,4 C 25,6 C 77 % 1014,0 hPa 0,0 l/m 0,0 km/h (0 Bft) O-NO 73 0 min 0,000 mm 0,0 UV-I 0 W/m 11,4 C 15,4 C 0,0 km/h (0 Bft) 96,00 %
12.06.2017 00:10 15,4 C 26,1 C 77 % 1014,0 hPa 0,0 l/m 0,0 km/h (0 Bft) O-NO 73 0 min 0,000 mm 0,0 UV-I 0 W/m 11,4 C 15,4 C 0,0 km/h (0 Bft) 96,00 %
12.06.2017 00:12 15,3 C 25,6 C 76 % 1013,9 hPa 0,0 l/m 1,1 km/h (1 Bft) O-NO 73 0 min 0,000 mm 0,0 UV-I 0 W/m 11,1 C 15,3 C 3,2 km/h (1 Bft) 97,87 %
12.06.2017 00:14 15,3 C 25,6 C 76 % 1013,9 hPa 0,0 l/m 2,8 km/h (1 Bft) O-NO 73 0 min 0,000 mm 0,0 UV-I 0 W/m 11,1 C 15,3 C 3,2 km/h (1 Bft) 94,74 %
12.06.2017 00:16 15,2 C 25,6 C 75 % 1013,9 hPa 0,0 l/m 3,4 km/h (1 Bft) O-NO 73 0 min 0,000 mm 0,0 UV-I 0 W/m 10,8 C 15,2 C 4,8 km/h (1 Bft) 94,00 %
12.06.2017 00:18 15,2 C 25,6 C 78 % 1013,9 hPa 0,0 l/m 3,4 km/h (1 Bft) O-NO 73 0 min 0,000 mm 0,0 UV-I 0 W/m 11,4 C 15,2 C 4,8 km/h (1 Bft) 97,56 %
12.06.2017 00:20 15,1 C 25,6 C 74 % 1013,8 hPa 0,0 l/m 3,7 km/h (1 Bft) O-NO 73 0 min 0,000 mm 0,0 UV-I 0 W/m 10,5 C 15,1 C 4,8 km/h (1 Bft) 94,64 %
12.06.2017 00:22 15,0 C 25,6 C 74 % 1013,7 hPa 0,0 l/m 4,7 km/h (1 Bft) O 82 0 min 0,000 mm 0,0 UV-I 0 W/m 10,4 C 15,0 C 6,4 km/h (2 Bft) 97,56 %
12.06.2017 00:24 15,1 C 25,6 C 73 % 1013,8 hPa 0,0 l/m 5,2 km/h (1 Bft) O 101 0 min 0,000 mm 0,0 UV-I 0 W/m 10,3 C 15,1 C 9,7 km/h (2 Bft) 97,87 %
12.06.2017 00:26 15,1 C 25,6 C 73 % 1013,8 hPa 0,0 l/m 3,6 km/h (1 Bft) O 89 0 min 0,000 mm 0,0 UV-I 0 W/m 10,3 C 15,1 C 4,8 km/h (1 Bft) 95,74 %
12.06.2017 00:28 15,2 C 25,6 C 72 % 1013,8 hPa 0,0 l/m 4,0 km/h (1 Bft) O 92 0 min 0,000 mm 0,0 UV-I 0 W/m 10,2 C 15,2 C 6,4 km/h (2 Bft) 96,43 %
12.06.2017 00:30 15,2 C 25,6 C 72 % 1013,7 hPa 0,0 l/m 4,4 km/h (1 Bft) O 88 0 min 0,000 mm 0,0 UV-I 0 W/m 10,2 C 15,2 C 6,4 km/h (2 Bft) 97,56 %
12.06.2017 00:32 15,3 C 25,6 C 72 % 1013,8 hPa 0,0 l/m 1,6 km/h (1 Bft) O 88 0 min 0,000 mm 0,0 UV-I 0 W/m 10,3 C 15,3 C 3,2 km/h (1 Bft) 93,62 %
12.06.2017 00:34 15,4 C 25,6 C 73 % 1013,7 hPa 0,0 l/m 2,9 km/h (1 Bft) O 90 0 min 0,000 mm 0,0 UV-I 0 W/m 10,6 C 15,4 C 4,8 km/h (1 Bft) 94,34 %
12.06.2017 00:36 15,4 C 25,6 C 73 % 1013,7 hPa 0,0 l/m 3,3 km/h (1 Bft) O 91 0 min 0,000 mm 0,0 UV-I 0 W/m 10,6 C 15,4 C 4,8 km/h (1 Bft) 91,43 %
12.06.2017 00:38 15,3 C 25,6 C 74 % 1013,7 hPa 0,0 l/m 0,4 km/h (0 Bft) O 91 0 min 0,000 mm 0,0 UV-I 0 W/m 10,7 C 15,3 C 1,6 km/h (1 Bft) 98,00 %
12.06.2017 00:40 15,3 C 25,6 C 75 % 1013,7 hPa 0,0 l/m 0,0 km/h (0 Bft) O 91 0 min 0,000 mm 0,0 UV-I 0 W/m 10,9 C 15,3 C 0,0 km/h (0 Bft) 96,00 %
12.06.2017 00:42 15,1 C 25,6 C 76 % 1013,8 hPa 0,0 l/m 0,9 km/h (0 Bft) O 91 0 min 0,000 mm 0,0 UV-I 0 W/m 10,9 C 15,1 C 1,6 km/h (1 Bft) 93,62 %
12.06.2017 00:44 14,9 C 25,6 C 77 % 1013,8 hPa 0,0 l/m 0,0 km/h (0 Bft) O 91 0 min 0,000 mm 0,0 UV-I 0 W/m 10,9 C 14,9 C 1,6 km/h (1 Bft) 97,87 %
12.06.2017 00:46 14,8 C 25,6 C 77 % 1013,7 hPa 0,0 l/m 0,0 km/h (0 Bft) O 91 0 min 0,000 mm 0,0 UV-I 0 W/m 10,8 C 14,8 C 0,0 km/h (0 Bft) 96,00 %
12.06.2017 00:48 14,8 C 25,6 C 77 % 1013,7 hPa 0,0 l/m 0,0 km/h (0 Bft) O 91 0 min 0,000 mm 0,0 UV-I 0 W/m 10,8 C 14,8 C 0,0 km/h (0 Bft) 97,44 %
12.06.2017 00:50 14,8 C 25,6 C 77 % 1013,7 hPa 0,0 l/m 0,0 km/h (0 Bft) O 91 0 min 0,000 mm 0,0 UV-I 0 W/m 10,8 C 14,8 C 0,0 km/h (0 Bft) 92,45 %
12.06.2017 00:52 14,8 C 25,6 C 77 % 1013,6 hPa 0,0 l/m 0,0 km/h (0 Bft) O 91 0 min 0,000 mm 0,0 UV-I 0 W/m 10,8 C 14,8 C 0,0 km/h (0 Bft) 96,00 %
12.06.2017 00:54 14,9 C 25,6 C 76 % 1013,7 hPa 0,0 l/m 0,0 km/h (0 Bft) O 91 0 min 0,000 mm 0,0 UV-I 0 W/m 10,7 C 14,9 C 0,0 km/h (0 Bft) 95,12 %
12.06.2017 00:56 15,0 C 25,6 C 76 % 1013,7 hPa 0,0 l/m 0,0 km/h (0 Bft) O 91 0 min 0,000 mm 0,0 UV-I 0 W/m 10,8 C 15,0 C 0,0 km/h (0 Bft) 96,00 %
12.06.2017 00:58 15,0 C 25,6 C 75 % 1013,7 hPa 0,0 l/m 0,0 km/h (0 Bft) O 91 0 min 0,000 mm 0,0 UV-I 0 W/m 10,6 C 15,0 C 0,0 km/h (0 Bft) 95,74 %
12.06.2017 01:00 15,0 C 25,6 C 75 % 1013,8 hPa 0,0 l/m 0,0 km/h (0 Bft) O 91 0 min 0,000 mm 0,0 UV-I 0 W/m 10,6 C 15,0 C 0,0 km/h (0 Bft) 94,74 %
12.06.2017 01:02 15,1 C 25,6 C 75 % 1013,9 hPa 0,0 l/m 0,1 km/h (0 Bft) O 91 0 min 0,000 mm 0,0 UV-I 0 W/m 10,7 C 15,1 C 1,6 km/h (1 Bft) 98,11 %
12.06.2017 01:04 15,0 C 25,6 C 77 % 1013,9 hPa 0,0 l/m 0,8 km/h (0 Bft) O 91 0 min 0,000 mm 0,0 UV-I 0 W/m 11,0 C 15,0 C 1,6 km/h (1 Bft) 93,62 %
12.06.2017 01:06 14,9 C 25,6 C 77 % 1014,0 hPa 0,0 l/m 0,7 km/h (0 Bft) O 91 0 min 0,000 mm 0,0 UV-I 0 W/m 10,9 C 14,9 C 1,6 km/h (1 Bft) 94,34 %
12.06.2017 01:08 14,8 C 25,6 C 77 % 1014,0 hPa 0,0 l/m 1,3 km/h (1 Bft) O 91 0 min 0,000 mm 0,0 UV-I 0 W/m 10,8 C 14,8 C 1,6 km/h (1 Bft) 100,00 %
12.06.2017 01:10 14,8 C 25,6 C 77 % 1014,0 hPa 0,0 l/m 1,0 km/h (0 Bft) O 91 0 min 0,000 mm 0,0 UV-I 0 W/m 10,8 C 14,8 C 3,2 km/h (1 Bft) 100,00 %
12.06.2017 01:12 14,8 C 25,6 C 77 % 1014,0 hPa 0,0 l/m 0,0 km/h (0 Bft) O 91 0 min 0,000 mm 0,0 UV-I 0 W/m 10,8 C 14,8 C 0,0 km/h (0 Bft) 100,00 %
12.06.2017 01:14 14,8 C 25,6 C 77 % 1014,0 hPa 0,0 l/m 0,0 km/h (0 Bft) O 91 0 min 0,000 mm 0,0 UV-I 0 W/m 10,8 C 14,8 C 0,0 km/h (0 Bft) 97,37 %
12.06.2017 01:16 14,7 C 25,6 C 78 % 1013,9 hPa 0,0 l/m 0,0 km/h (0 Bft) O 91 0 min 0,000 mm 0,0 UV-I 0 W/m 10,9 C 14,7 C 1,6 km/h (1 Bft) 100,00 %
12.06.2017 01:18 14,6 C 25,6 C 79 % 1013,9 hPa 0,0 l/m 0,0 km/h (0 Bft) O 91 0 min 0,000 mm 0,0 UV-I 0 W/m 11,0 C 14,6 C 0,0 km/h (0 Bft) 98,11 %
12.06.2017 01:20 14,6 C 25,6 C 79 % 1013,8 hPa 0,0 l/m 0,0 km/h (0 Bft) O 91 0 min 0,000 mm 0,0 UV-I 0 W/m 11,0 C 14,6 C 0,0 km/h (0 Bft) 98,00 %
12.06.2017 01:22 14,6 C 25,6 C 79 % 1013,8 hPa 0,0 l/m 0,0 km/h (0 Bft) O 91 0 min 0,000 mm 0,0 UV-I 0 W/m 11,0 C 14,6 C 0,0 km/h (0 Bft) 100,00 %
12.06.2017 01:24 14,7 C 25,6 C 78 % 1013,9 hPa 0,0 l/m 0,0 km/h (0 Bft) O 91 0 min 0,000 mm 0,0 UV-I 0 W/m 10,9 C 14,7 C 0,0 km/h (0 Bft) 97,44 %
12.06.2017 01:26 14,7 C 25,6 C 77 % 1013,9 hPa 0,0 l/m 0,0 km/h (0 Bft) O 91 0 min 0,000 mm 0,0 UV-I 0 W/m 10,7 C 14,7 C 0,0 km/h (0 Bft) 100,00 %
12.06.2017 01:28 14,8 C 25,6 C 78 % 1013,8 hPa 0,0 l/m 0,0 km/h (0 Bft) O 91 0 min 0,000 mm 0,0 UV-I 0 W/m 11,0 C 14,8 C 0,0 km/h (0 Bft) 98,11 %
12.06.2017 01:30 14,9 C 25,6 C 78 % 1013,8 hPa 0,0 l/m 0,0 km/h (0 Bft) O 91 0 min 0,000 mm 0,0 UV-I 0 W/m 11,1 C 14,9 C 0,0 km/h (0 Bft) 98,00 %
12.06.2017 01:32 14,9 C 25,6 C 78 % 1013,7 hPa 0,0 l/m 0,0 km/h (0 Bft) O 91 0 min 0,000 mm 0,0 UV-I 0 W/m 11,1 C 14,9 C 0,0 km/h (0 Bft) 100,00 %
12.06.2017 01:34 14,8 C 25,6 C 79 % 1013,7 hPa 0,0 l/m 2,0 km/h (1 Bft) O 91 0 min 0,000 mm 0,0 UV-I 0 W/m 11,2 C 14,8 C 3,2 km/h (1 Bft) 98,00 %
12.06.2017 01:36 14,7 C 25,6 C 80 % 1013,6 hPa 0,0 l/m 2,3 km/h (1 Bft) O 91 0 min 0,000 mm 0,0 UV-I 0 W/m 11,3 C 14,7 C 3,2 km/h (1 Bft) 100,00 %
12.06.2017 01:38 14,7 C 25,6 C 80 % 1013,7 hPa 0,0 l/m 0,9 km/h (0 Bft) O 91 0 min 0,000 mm 0,0 UV-I 0 W/m 11,3 C 14,7 C 3,2 km/h (1 Bft) 96,92 %
12.06.2017 01:40 14,7 C 25,6 C 80 % 1013,6 hPa 0,0 l/m 0,0 km/h (0 Bft) O 91 0 min 0,000 mm 0,0 UV-I 0 W/m 11,3 C 14,7 C 0,0 km/h (0 Bft) 100,00 %
12.06.2017 01:42 14,7 C 25,6 C 79 % 1013,6 hPa 0,0 l/m 0,0 km/h (0 Bft) O 91 0 min 0,000 mm 0,0 UV-I 0 W/m 11,1 C 14,7 C 0,0 km/h (0 Bft) 100,00 %
12.06.2017 01:44 14,7 C 25,6 C 79 % 1013,5 hPa 0,0 l/m 0,0 km/h (0 Bft) O 91 0 min 0,000 mm 0,0 UV-I 0 W/m 11,1 C 14,7 C 0,0 km/h (0 Bft) 100,00 %
12.06.2017 01:46 14,7 C 25,6 C 80 % 1013,5 hPa 0,0 l/m 0,1 km/h (0 Bft) O 91 0 min 0,000 mm 0,0 UV-I 0 W/m 11,3 C 14,7 C 1,6 km/h (1 Bft) 98,00 %
12.06.2017 01:48 14,7 C 25,6 C 80 % 1013,5 hPa 0,0 l/m 1,4 km/h (1 Bft) O 91 0 min 0,000 mm 0,0 UV-I 0 W/m 11,3 C 14,7 C 3,2 km/h (1 Bft) 100,00 %
12.06.2017 01:50 14,6 C 25,6 C 81 % 1013,5 hPa 0,0 l/m 0,8 km/h (0 Bft) O 91 0 min 0,000 mm 0,0 UV-I 0 W/m 11,4 C 14,6 C 1,6 km/h (1 Bft) 98,11 %
12.06.2017 01:52 14,6 C 25,6 C 81 % 1013,5 hPa 0,0 l/m 0,6 km/h (0 Bft) O 91 0 min 0,000 mm 0,0 UV-I 0 W/m 11,4 C 14,6 C 1,6 km/h (1 Bft) 100,00 %
12.06.2017 01:54 14,6 C 25,6 C 81 % 1013,5 hPa 0,0 l/m 0,0 km/h (0 Bft) O 91 0 min 0,000 mm 0,0 UV-I 0 W/m 11,4 C 14,6 C 0,0 km/h (0 Bft) 98,00 %
12.06.2017 01:56 14,6 C 25,6 C 81 % 1013,5 hPa 0,0 l/m 0,0 km/h (0 Bft) O 91 0 min 0,000 mm 0,0 UV-I 0 W/m 11,4 C 14,6 C 1,6 km/h (1 Bft) 97,87 %
12.06.2017 01:58 14,6 C 25,6 C 81 % 1013,6 hPa 0,0 l/m 0,6 km/h (0 Bft) O 91 0 min 0,000 mm 0,0 UV-I 0 W/m 11,4 C 14,6 C 3,2 km/h (1 Bft) 98,11 %
12.06.2017 02:00 14,6 C 25,6 C 81 % 1013,6 hPa 0,0 l/m 3,5 km/h (1 Bft) O 92 0 min 0,000 mm 0,0 UV-I 0 W/m 11,4 C 14,6 C 4,8 km/h (1 Bft) 97,22 %
12.06.2017 02:02 14,4 C 25,6 C 80 % 1013,7 hPa 0,0 l/m 2,8 km/h (1 Bft) SO 131 0 min 0,000 mm 0,0 UV-I 0 W/m 11,0 C 14,4 C 4,8 km/h (1 Bft) 98,00 %
12.06.2017 02:04 14,3 C 25,6 C 81 % 1013,6 hPa 0,0 l/m 3,6 km/h (1 Bft) SO 144 0 min 0,000 mm 0,0 UV-I 0 W/m 11,1 C 14,3 C 4,8 km/h (1 Bft) 97,87 %
12.06.2017 02:06 14,1 C 25,6 C 81 % 1013,6 hPa 0,0 l/m 1,5 km/h (1 Bft) SO 144 0 min 0,000 mm 0,0 UV-I 0 W/m 10,9 C 14,1 C 3,2 km/h (1 Bft) 97,87 %
12.06.2017 02:08 13,9 C 25,6 C 82 % 1013,6 hPa 0,0 l/m 0,1 km/h (0 Bft) SO 144 0 min 0,000 mm 0,0 UV-I 0 W/m 10,9 C 13,9 C 1,6 km/h (1 Bft) 100,00 %
12.06.2017 02:10 13,8 C 25,6 C 83 % 1013,6 hPa 0,0 l/m 0,8 km/h (0 Bft) SO 144 0 min 0,000 mm 0,0 UV-I 0 W/m 11,0 C 13,8 C 3,2 km/h (1 Bft) 97,87 %
12.06.2017 02:12 13,8 C 25,6 C 83 % 1013,6 hPa 0,0 l/m 1,5 km/h (1 Bft) SO 144 0 min 0,000 mm 0,0 UV-I 0 W/m 11,0 C 13,8 C 3,2 km/h (1 Bft) 94,74 %
12.06.2017 02:14 13,8 C 25,6 C 83 % 1013,6 hPa 0,0 l/m 1,7 km/h (1 Bft) SO 144 0 min 0,000 mm 0,0 UV-I 0 W/m 11,0 C 13,8 C 3,2 km/h (1 Bft) 98,11 %
12.06.2017 02:16 13,9 C 25,6 C 82 % 1013,4 hPa 0,0 l/m 1,9 km/h (1 Bft) SO 144 0 min 0,000 mm 0,0 UV-I 0 W/m 10,9 C 13,9 C 3,2 km/h (1 Bft) 100,00 %
12.06.2017 02:18 14,0 C 25,6 C 82 % 1013,5 hPa 0,0 l/m 2,6 km/h (1 Bft) SO 144 0 min 0,000 mm 0,0 UV-I 0 W/m 11,0 C 14,0 C 3,2 km/h (1 Bft) 97,87 %
12.06.2017 02:20 14,1 C 25,6 C 82 % 1013,5 hPa 0,0 l/m 3,3 km/h (1 Bft) S-SO 150 0 min 0,000 mm 0,0 UV-I 0 W/m 11,1 C 14,1 C 4,8 km/h (1 Bft) 98,11 %
12.06.2017 02:22 14,1 C 25,6 C 82 % 1013,5 hPa 0,0 l/m 4,7 km/h (1 Bft) S 171 0 min 0,000 mm 0,0 UV-I 0 W/m 11,1 C 14,1 C 6,4 km/h (2 Bft) 100,00 %
12.06.2017 02:24 14,1 C 25,6 C 82 % 1013,4 hPa 0,0 l/m 1,8 km/h (1 Bft) S 171 0 min 0,000 mm 0,0 UV-I 0 W/m 11,1 C 14,1 C 3,2 km/h (1 Bft) 97,37 %
12.06.2017 02:26 14,1 C 25,0 C 82 % 1013,3 hPa 0,0 l/m 3,0 km/h (1 Bft) SO 143 0 min 0,000 mm 0,0 UV-I 0 W/m 11,1 C 14,1 C 6,4 km/h (2 Bft) 100,00 %
12.06.2017 02:28 14,0 C 25,0 C 82 % 1013,1 hPa 0,0 l/m 4,7 km/h (1 Bft) O-SO 120 0 min 0,000 mm 0,0 UV-I 0 W/m 11,0 C 14,0 C 4,8 km/h (1 Bft) 98,21 %
12.06.2017 02:30 14,0 C 25,0 C 82 % 1013,1 hPa 0,0 l/m 2,5 km/h (1 Bft) O-SO 120 0 min 0,000 mm 0,0 UV-I 0 W/m 11,0 C 14,0 C 4,8 km/h (1 Bft) 100,00 %
12.06.2017 02:32 14,1 C 25,0 C 82 % 1013,3 hPa 0,0 l/m 2,0 km/h (1 Bft) SW 231 0 min 0,000 mm 0,0 UV-I 0 W/m 11,1 C 14,1 C 6,4 km/h (2 Bft) 98,51 %
12.06.2017 02:34 14,1 C 25,0 C 82 % 1013,5 hPa 0,0 l/m 6,1 km/h (2 Bft) SW 225 0 min 0,000 mm 0,0 UV-I 0 W/m 11,1 C 14,1 C 8,0 km/h (2 Bft) 100,00 %
12.06.2017 02:36 14,0 C 25,0 C 82 % 1013,4 hPa 0,0 l/m 6,6 km/h (2 Bft) S-SW 210 0 min 0,000 mm 0,0 UV-I 0 W/m 11,0 C 13,9 C 8,0 km/h (2 Bft) 100,00 %
12.06.2017 02:38 13,8 C 25,0 C 82 % 1013,4 hPa 0,0 l/m 3,7 km/h (1 Bft) S-SW 209 0 min 0,000 mm 0,0 UV-I 0 W/m 10,8 C 13,8 C 6,4 km/h (2 Bft) 96,00 %
12.06.2017 02:40 13,8 C 25,0 C 83 % 1013,4 hPa 0,0 l/m 0,8 km/h (0 Bft) S-SW 209 0 min 0,000 mm 0,0 UV-I 0 W/m 11,0 C 13,8 C 3,2 km/h (1 Bft) 94,87 %
12.06.2017 02:42 13,7 C 25,0 C 83 % 1013,4 hPa 0,0 l/m 0,0 km/h (0 Bft) S-SW 209 0 min 0,000 mm 0,0 UV-I 0 W/m 10,9 C 13,7 C 0,0 km/h (0 Bft) 94,64 %
12.06.2017 02:44 13,7 C 25,0 C 84 % 1013,5 hPa 0,0 l/m 0,7 km/h (0 Bft) S-SW 209 0 min 0,000 mm 0,0 UV-I 0 W/m 11,0 C 13,7 C 1,6 km/h (1 Bft) 97,87 %
12.06.2017 02:46 13,7 C 25,0 C 84 % 1013,6 hPa 0,0 l/m 2,3 km/h (1 Bft) S-SW 209 0 min 0,000 mm 0,0 UV-I 0 W/m 11,0 C 13,7 C 4,8 km/h (1 Bft) 94,74 %
12.06.2017 02:48 13,7 C 25,0 C 83 % 1013,5 hPa 0,0 l/m 4,2 km/h (1 Bft) S-SW 209 0 min 0,000 mm 0,0 UV-I 0 W/m 10,9 C 13,7 C 4,8 km/h (1 Bft) 96,77 %
12.06.2017 02:50 13,7 C 25,0 C 83 % 1013,5 hPa 0,0 l/m 4,6 km/h (1 Bft) S-SW 209 0 min 0,000 mm 0,0 UV-I 0 W/m 10,9 C 13,7 C 6,4 km/h (2 Bft) 97,37 %
12.06.2017 02:52 13,7 C 25,0 C 84 % 1013,5 hPa 0,0 l/m 2,2 km/h (1 Bft) S-SW 209 0 min 0,000 mm 0,0 UV-I 0 W/m 11,0 C 13,7 C 4,8 km/h (1 Bft) 93,62 %
12.06.2017 02:54 13,7 C 25,0 C 83 % 1013,5 hPa 0,0 l/m 1,3 km/h (1 Bft) S-SW 209 0 min 0,000 mm 0,0 UV-I 0 W/m 10,9 C 13,7 C 3,2 km/h (1 Bft) 96,00 %
12.06.2017 02:56 13,7 C 25,0 C 83 % 1013,5 hPa 0,0 l/m 2,5 km/h (1 Bft) S-SW 209 0 min 0,000 mm 0,0 UV-I 0 W/m 10,9 C 13,7 C 4,8 km/h (1 Bft) 97,56 %
12.06.2017 02:58 13,8 C 25,0 C 83 % 1013,5 hPa 0,0 l/m 3,5 km/h (1 Bft) S-SW 209 0 min 0,000 mm 0,0 UV-I 0 W/m 11,0 C 13,8 C 4,8 km/h (1 Bft) 98,00 %
12.06.2017 03:00 13,8 C 25,0 C 84 % 1013,6 hPa 0,0 l/m 3,7 km/h (1 Bft) S-SW 209 0 min 0,000 mm 0,0 UV-I 0 W/m 11,1 C 13,8 C 4,8 km/h (1 Bft) 92,00 %
12.06.2017 03:02 13,9 C 25,0 C 83 % 1013,7 hPa 0,0 l/m 4,5 km/h (1 Bft) S-SW 209 0 min 0,000 mm 0,0 UV-I 0 W/m 11,1 C 13,9 C 6,4 km/h (2 Bft) 97,87 %
12.06.2017 03:04 13,9 C 25,0 C 83 % 1013,7 hPa 0,0 l/m 3,5 km/h (1 Bft) S-SW 209 0 min 0,000 mm 0,0 UV-I 0 W/m 11,1 C 13,9 C 4,8 km/h (1 Bft) 94,00 %
12.06.2017 03:06 13,9 C 25,0 C 83 % 1013,6 hPa 0,0 l/m 2,9 km/h (1 Bft) S-SW 209 0 min 0,000 mm 0,0 UV-I 0 W/m 11,1 C 13,9 C 4,8 km/h (1 Bft) 95,12 %
12.06.2017 03:08 13,8 C 25,0 C 83 % 1013,5 hPa 0,0 l/m 1,9 km/h (1 Bft) S-SW 209 0 min 0,000 mm 0,0 UV-I 0 W/m 11,0 C 13,8 C 4,8 km/h (1 Bft) 88,68 %
12.06.2017 03:10 13,8 C 25,0 C 83 % 1013,5 hPa 0,0 l/m 1,4 km/h (1 Bft) S-SW 209 0 min 0,000 mm 0,0 UV-I 0 W/m 11,0 C 13,8 C 3,2 km/h (1 Bft) 92,68 %
12.06.2017 03:12 13,8 C 25,0 C 83 % 1013,6 hPa 0,0 l/m 1,3 km/h (1 Bft) S-SW 209 0 min 0,000 mm 0,0 UV-I 0 W/m 11,0 C 13,8 C 3,2 km/h (1 Bft) 98,11 %
12.06.2017 03:14 13,9 C 25,0 C 83 % 1013,5 hPa 0,0 l/m 0,4 km/h (0 Bft) S-SW 209 0 min 0,000 mm 0,0 UV-I 0 W/m 11,1 C 13,9 C 1,6 km/h (1 Bft) 95,12 %
12.06.2017 03:16 13,9 C 25,0 C 83 % 1013,4 hPa 0,0 l/m 0,1 km/h (0 Bft) S-SW 209 0 min 0,000 mm 0,0 UV-I 0 W/m 11,1 C 13,9 C 1,6 km/h (1 Bft) 98,00 %
12.06.2017 03:18 13,9 C 25,0 C 83 % 1013,4 hPa 0,0 l/m 0,8 km/h (0 Bft) S-SW 209 0 min 0,000 mm 0,0 UV-I 0 W/m 11,1 C 13,9 C 1,6 km/h (1 Bft) 94,00 %
12.06.2017 03:20 13,9 C 25,0 C 83 % 1013,5 hPa 0,0 l/m 0,4 km/h (0 Bft) S-SW 209 0 min 0,000 mm 0,0 UV-I 0 W/m 11,1 C 13,9 C 1,6 km/h (1 Bft) 95,74 %
12.06.2017 03:22 14,0 C 25,0 C 83 % 1013,5 hPa 0,0 l/m 1,7 km/h (1 Bft) S-SW 209 0 min 0,000 mm 0,0 UV-I 0 W/m 11,2 C 14,0 C 3,2 km/h (1 Bft) 91,67 %
12.06.2017 03:24 14,1 C 25,0 C 83 % 1013,4 hPa 0,0 l/m 3,4 km/h (1 Bft) S-SW 202 0 min 0,000 mm 0,0 UV-I 0 W/m 11,3 C 14,1 C 6,4 km/h (2 Bft) 98,00 %
12.06.2017 03:26 14,2 C 25,0 C 83 % 1013,4 hPa 0,0 l/m 3,4 km/h (1 Bft) S-SW 196 0 min 0,000 mm 0,0 UV-I 0 W/m 11,4 C 14,2 C 6,4 km/h (2 Bft) 97,73 %
12.06.2017 03:28 14,2 C 25,0 C 83 % 1013,3 hPa 0,0 l/m 1,8 km/h (1 Bft) S-SW 196 0 min 0,000 mm 0,0 UV-I 0 W/m 11,4 C 14,2 C 4,8 km/h (1 Bft) 98,21 %
12.06.2017 03:30 14,3 C 25,0 C 83 % 1013,2 hPa 0,0 l/m 1,4 km/h (1 Bft) S-SW 196 0 min 0,000 mm 0,0 UV-I 0 W/m 11,5 C 14,3 C 3,2 km/h (1 Bft) 93,62 %
12.06.2017 03:32 14,3 C 25,0 C 84 % 1013,1 hPa 0,0 l/m 2,3 km/h (1 Bft) S-SW 196 0 min 0,000 mm 0,0 UV-I 0 W/m 11,6 C 14,3 C 3,2 km/h (1 Bft) 100,00 %
12.06.2017 03:34 14,3 C 25,0 C 84 % 1013,0 hPa 0,0 l/m 3,1 km/h (1 Bft) S-SW 196 0 min 0,000 mm 0,0 UV-I 0 W/m 11,6 C 14,3 C 4,8 km/h (1 Bft) 92,45 %
12.06.2017 03:36 14,4 C 25,0 C 84 % 1013,0 hPa 0,0 l/m 1,5 km/h (1 Bft) S-SW 196 0 min 0,000 mm 0,0 UV-I 0 W/m 11,7 C 14,4 C 3,2 km/h (1 Bft) 98,00 %
12.06.2017 03:38 14,4 C 25,0 C 84 % 1013,1 hPa 0,0 l/m 0,4 km/h (0 Bft) S-SW 196 0 min 0,000 mm 0,0 UV-I 0 W/m 11,7 C 14,4 C 1,6 km/h (1 Bft) 95,74 %
12.06.2017 03:40 14,5 C 25,0 C 84 % 1013,0 hPa 0,0 l/m 0,5 km/h (0 Bft) S-SW 196 0 min 0,000 mm 0,0 UV-I 0 W/m 11,8 C 14,5 C 1,6 km/h (1 Bft) 94,74 %
12.06.2017 03:42 14,5 C 25,0 C 84 % 1013,2 hPa 0,0 l/m 3,3 km/h (1 Bft) S-SW 196 0 min 0,000 mm 0,0 UV-I 0 W/m 11,8 C 14,5 C 6,4 km/h (2 Bft) 94,00 %
12.06.2017 03:44 14,6 C 25,0 C 84 % 1013,2 hPa 0,0 l/m 5,0 km/h (1 Bft) S-SW 196 0 min 0,000 mm 0,0 UV-I 0 W/m 11,9 C 14,6 C 6,4 km/h (2 Bft) 98,00 %
12.06.2017 03:46 14,4 C 25,0 C 83 % 1013,2 hPa 0,0 l/m 4,4 km/h (1 Bft) S-SW 196 0 min 0,000 mm 0,0 UV-I 0 W/m 11,5 C 14,4 C 6,4 km/h (2 Bft) 95,74 %
12.06.2017 03:48 14,3 C 25,0 C 83 % 1013,2 hPa 0,0 l/m 5,1 km/h (1 Bft) S-SW 196 0 min 0,000 mm 0,0 UV-I 0 W/m 11,5 C 14,3 C 6,4 km/h (2 Bft) 97,56 %
12.06.2017 03:50 14,2 C 25,0 C 84 % 1013,3 hPa 0,0 l/m 4,0 km/h (1 Bft) S-SW 196 0 min 0,000 mm 0,0 UV-I 0 W/m 11,5 C 14,2 C 6,4 km/h (2 Bft) 97,87 %
12.06.2017 03:52 14,2 C 25,0 C 84 % 1013,3 hPa 0,0 l/m 3,2 km/h (1 Bft) S-SW 196 0 min 0,000 mm 0,0 UV-I 0 W/m 11,5 C 14,2 C 4,8 km/h (1 Bft) 97,87 %
12.06.2017 03:54 14,1 C 25,0 C 85 % 1013,3 hPa 0,0 l/m 3,2 km/h (1 Bft) S-SW 196 0 min 0,000 mm 0,0 UV-I 0 W/m 11,6 C 14,1 C 6,4 km/h (2 Bft) 94,00 %
12.06.2017 03:56 14,2 C 25,0 C 85 % 1013,3 hPa 0,0 l/m 4,5 km/h (1 Bft) S-SW 196 0 min 0,000 mm 0,0 UV-I 0 W/m 11,7 C 14,2 C 6,4 km/h (2 Bft) 97,44 %
12.06.2017 03:58 14,2 C 25,0 C 85 % 1013,2 hPa 0,0 l/m 2,4 km/h (1 Bft) S-SW 196 0 min 0,000 mm 0,0 UV-I 0 W/m 11,7 C 14,2 C 4,8 km/h (1 Bft) 92,31 %
12.06.2017 04:00 14,2 C 25,0 C 85 % 1013,2 hPa 0,0 l/m 1,6 km/h (1 Bft) S-SW 196 0 min 0,000 mm 0,0 UV-I 0 W/m 11,7 C 14,2 C 3,2 km/h (1 Bft) 95,83 %
12.06.2017 04:02 14,2 C 25,0 C 85 % 1013,1 hPa 0,0 l/m 2,0 km/h (1 Bft) S-SW 196 0 min 0,000 mm 0,0 UV-I 0 W/m 11,7 C 14,2 C 3,2 km/h (1 Bft) 88,89 %
12.06.2017 04:04 14,2 C 25,0 C 85 % 1013,2 hPa 0,0 l/m 0,6 km/h (0 Bft) S-SW 196 0 min 0,000 mm 0,0 UV-I 0 W/m 11,7 C 14,2 C 3,2 km/h (1 Bft) 98,11 %
12.06.2017 04:06 14,3 C 25,0 C 85 % 1013,1 hPa 0,0 l/m 0,7 km/h (0 Bft) S-SW 196 0 min 0,000 mm 0,0 UV-I 0 W/m 11,8 C 14,3 C 3,2 km/h (1 Bft) 98,31 %
12.06.2017 04:08 14,3 C 25,0 C 85 % 1013,1 hPa 0,0 l/m 1,1 km/h (1 Bft) S-SW 196 0 min 0,000 mm 0,0 UV-I 0 W/m 11,8 C 14,3 C 3,2 km/h (1 Bft) 100,00 %
12.06.2017 04:10 14,4 C 25,0 C 85 % 1013,1 hPa 0,0 l/m 0,1 km/h (0 Bft) S-SW 196 0 min 0,000 mm 0,0 UV-I 0 W/m 11,9 C 14,4 C 1,6 km/h (1 Bft) 94,34 %
12.06.2017 04:12 14,4 C 25,0 C 84 % 1013,1 hPa 0,0 l/m 0,0 km/h (0 Bft) S-SW 196 0 min 0,000 mm 0,0 UV-I 0 W/m 11,7 C 14,4 C 0,0 km/h (0 Bft) 100,00 %
12.06.2017 04:14 14,5 C 25,0 C 84 % 1013,2 hPa 0,0 l/m 0,0 km/h (0 Bft) S-SW 196 0 min 0,000 mm 0,0 UV-I 0 W/m 11,8 C 14,5 C 0,0 km/h (0 Bft) 97,87 %
12.06.2017 04:16 14,6 C 25,0 C 84 % 1013,0 hPa 0,0 l/m 1,7 km/h (1 Bft) S-SW 196 0 min 0,000 mm 0,0 UV-I 0 W/m 11,9 C 14,6 C 3,2 km/h (1 Bft) 97,37 %
12.06.2017 04:18 14,6 C 25,0 C 84 % 1012,9 hPa 0,0 l/m 1,6 km/h (1 Bft) S-SW 195 0 min 0,000 mm 0,0 UV-I 0 W/m 11,9 C 14,6 C 4,8 km/h (1 Bft) 93,62 %
12.06.2017 04:20 14,6 C 25,0 C 84 % 1013,0 hPa 0,0 l/m 1,6 km/h (1 Bft) S-SW 195 0 min 0,000 mm 0,0 UV-I 0 W/m 11,9 C 14,6 C 3,2 km/h (1 Bft) 98,00 %
12.06.2017 04:22 14,6 C 25,0 C 84 % 1013,1 hPa 0,0 l/m 3,7 km/h (1 Bft) S-SW 195 0 min 0,000 mm 0,0 UV-I 0 W/m 11,9 C 14,6 C 4,8 km/h (1 Bft) 100,00 %
12.06.2017 04:24 14,6 C 25,0 C 84 % 1013,3 hPa 0,0 l/m 3,8 km/h (1 Bft) S-SW 195 0 min 0,000 mm 0,0 UV-I 0 W/m 11,9 C 14,6 C 4,8 km/h (1 Bft) 98,00 %
12.06.2017 04:26 14,4 C 25,0 C 84 % 1013,2 hPa 0,0 l/m 4,3 km/h (1 Bft) S-SW 196 0 min 0,000 mm 0,0 UV-I 0 W/m 11,7 C 14,4 C 6,4 km/h (2 Bft) 100,00 %
12.06.2017 04:28 14,4 C 25,0 C 85 % 1013,2 hPa 0,0 l/m 1,8 km/h (1 Bft) S-SW 195 0 min 0,000 mm 0,0 UV-I 0 W/m 11,9 C 14,4 C 4,8 km/h (1 Bft) 96,00 %
12.06.2017 04:30 14,3 C 25,0 C 85 % 1013,2 hPa 0,0 l/m 1,4 km/h (1 Bft) S-SW 195 0 min 0,000 mm 0,0 UV-I 0 W/m 11,8 C 14,3 C 4,8 km/h (1 Bft) 100,00 %
12.06.2017 04:32 14,2 C 24,4 C 85 % 1013,2 hPa 0,0 l/m 2,4 km/h (1 Bft) S-SW 195 0 min 0,000 mm 0,0 UV-I 0 W/m 11,7 C 14,2 C 4,8 km/h (1 Bft) 100,00 %
12.06.2017 04:34 14,2 C 24,4 C 86 % 1013,1 hPa 0,0 l/m 0,1 km/h (0 Bft) S-SW 195 0 min 0,000 mm 0,0 UV-I 0 W/m 11,9 C 14,2 C 1,6 km/h (1 Bft) 100,00 %
12.06.2017 04:36 14,2 C 24,4 C 86 % 1013,1 hPa 0,0 l/m 0,5 km/h (0 Bft) S-SW 195 0 min 0,000 mm 0,0 UV-I 0 W/m 11,9 C 14,2 C 3,2 km/h (1 Bft) 100,00 %
12.06.2017 04:38 14,2 C 24,4 C 86 % 1013,1 hPa 0,0 l/m 1,7 km/h (1 Bft) S-SW 195 0 min 0,000 mm 0,0 UV-I 0 W/m 11,9 C 14,2 C 3,2 km/h (1 Bft) 100,00 %
12.06.2017 04:40 14,2 C 24,4 C 86 % 1013,1 hPa 0,0 l/m 0,9 km/h (0 Bft) S-SW 195 0 min 0,000 mm 0,0 UV-I 0 W/m 11,9 C 14,2 C 3,2 km/h (1 Bft) 94,23 %
12.06.2017 04:43 14,2 C 24,4 C 86 % 1013,0 hPa 0,0 l/m 2,3 km/h (1 Bft) S-SW 195 0 min 0,000 mm 0,0 UV-I 0 W/m 11,9 C 14,2 C 4,8 km/h (1 Bft) 93,51 %
12.06.2017 04:44 14,2 C 24,4 C 86 % 1013,0 hPa 0,0 l/m 2,5 km/h (1 Bft) S-SW 195 0 min 0,000 mm 0,0 UV-I 0 W/m 11,9 C 14,2 C 4,8 km/h (1 Bft) 100,00 %
12.06.2017 04:46 14,2 C 24,4 C 86 % 1013,1 hPa 0,0 l/m 2,9 km/h (1 Bft) S-SW 195 0 min 0,000 mm 0,0 UV-I 0 W/m 11,9 C 14,2 C 4,8 km/h (1 Bft) 97,87 %
12.06.2017 04:48 14,2 C 24,4 C 86 % 1013,1 hPa 0,0 l/m 2,0 km/h (1 Bft) S-SW 195 0 min 0,000 mm 0,0 UV-I 0 W/m 11,9 C 14,2 C 3,2 km/h (1 Bft) 98,00 %
12.06.2017 04:50 14,2 C 24,4 C 86 % 1013,1 hPa 0,0 l/m 1,5 km/h (1 Bft) S-SW 195 0 min 0,000 mm 0,0 UV-I 0 W/m 11,9 C 14,2 C 4,8 km/h (1 Bft) 97,87 %
12.06.2017 04:52 14,2 C 24,4 C 86 % 1013,0 hPa 0,0 l/m 2,3 km/h (1 Bft) S-SW 195 0 min 0,000 mm 0,0 UV-I 1 W/m 11,9 C 14,2 C 3,2 km/h (1 Bft) 94,34 %
12.06.2017 04:54 14,2 C 24,4 C 86 % 1013,0 hPa 0,0 l/m 1,4 km/h (1 Bft) S-SW 195 0 min 0,000 mm 0,0 UV-I 5 W/m 11,9 C 14,2 C 3,2 km/h (1 Bft) 95,74 %
12.06.2017 04:56 14,2 C 24,4 C 86 % 1013,1 hPa 0,0 l/m 2,6 km/h (1 Bft) S-SW 195 0 min 0,000 mm 0,0 UV-I 5 W/m 11,9 C 14,2 C 4,8 km/h (1 Bft) 97,37 %
12.06.2017 04:58 14,2 C 24,4 C 86 % 1013,1 hPa 0,0 l/m 1,7 km/h (1 Bft) S-SW 195 0 min 0,000 mm 0,0 UV-I 5 W/m 11,9 C 14,2 C 4,8 km/h (1 Bft) 93,62 %
12.06.2017 05:00 14,2 C 24,4 C 86 % 1013,1 hPa 0,0 l/m 0,7 km/h (0 Bft) S-SW 195 0 min 0,000 mm 0,0 UV-I 6 W/m 11,9 C 14,2 C 1,6 km/h (1 Bft) 97,87 %
12.06.2017 05:02 14,2 C 24,4 C 86 % 1013,1 hPa 0,0 l/m 0,5 km/h (0 Bft) S-SW 195 0 min 0,000 mm 0,0 UV-I 7 W/m 11,9 C 14,2 C 1,6 km/h (1 Bft) 94,74 %
12.06.2017 05:04 14,2 C 24,4 C 86 % 1013,0 hPa 0,0 l/m 0,2 km/h (0 Bft) S-SW 195 0 min 0,000 mm 0,0 UV-I 7 W/m 11,9 C 14,2 C 1,6 km/h (1 Bft) 96,77 %
12.06.2017 05:06 14,2 C 24,4 C 86 % 1013,0 hPa 0,0 l/m 0,8 km/h (0 Bft) S-SW 195 0 min 0,000 mm 0,0 UV-I 7 W/m 11,9 C 14,2 C 1,6 km/h (1 Bft) 94,74 %
12.06.2017 05:08 14,3 C 24,4 C 86 % 1013,0 hPa 0,0 l/m 1,4 km/h (1 Bft) S-SW 195 0 min 0,000 mm 0,0 UV-I 7 W/m 12,0 C 14,3 C 3,2 km/h (1 Bft) 98,21 %
12.06.2017 05:10 14,2 C 24,4 C 86 % 1013,0 hPa 0,0 l/m 1,4 km/h (1 Bft) S-SW 195 0 min 0,000 mm 0,0 UV-I 7 W/m 11,9 C 14,2 C 3,2 km/h (1 Bft) 94,74 %
12.06.2017 05:12 14,3 C 24,4 C 86 % 1013,0 hPa 0,0 l/m 1,1 km/h (1 Bft) S-SW 195 0 min 0,000 mm 0,0 UV-I 8 W/m 12,0 C 14,3 C 3,2 km/h (1 Bft) 98,21 %
12.06.2017 05:14 14,3 C 24,4 C 86 % 1013,0 hPa 0,0 l/m 0,1 km/h (0 Bft) S-SW 195 0 min 0,000 mm 0,0 UV-I 9 W/m 12,0 C 14,3 C 1,6 km/h (1 Bft) 97,22 %
12.06.2017 05:16 14,3 C 24,4 C 86 % 1013,0 hPa 0,0 l/m 0,2 km/h (0 Bft) S-SW 195 2 min 0,000 mm 0,0 UV-I 11 W/m 12,0 C 14,3 C 1,6 km/h (1 Bft) 100,00 %
12.06.2017 05:18 14,3 C 24,4 C 86 % 1013,0 hPa 0,0 l/m 1,8 km/h (1 Bft) S-SW 195 0 min 0,000 mm 0,0 UV-I 11 W/m 12,0 C 14,3 C 3,2 km/h (1 Bft) 96,43 %
12.06.2017 05:20 14,2 C 24,4 C 86 % 1013,0 hPa 0,0 l/m 2,3 km/h (1 Bft) S-SW 195 0 min 0,000 mm 0,0 UV-I 11 W/m 11,9 C 14,2 C 3,2 km/h (1 Bft) 97,67 %
12.06.2017 05:22 14,1 C 24,4 C 86 % 1013,0 hPa 0,0 l/m 2,3 km/h (1 Bft) S-SW 195 0 min 0,000 mm 0,0 UV-I 12 W/m 11,8 C 14,1 C 3,2 km/h (1 Bft) 100,00 %
12.06.2017 05:24 14,0 C 24,4 C 86 % 1013,0 hPa 0,0 l/m 1,9 km/h (1 Bft) S-SW 195 0 min 0,000 mm 0,0 UV-I 12 W/m 11,7 C 14,0 C 3,2 km/h (1 Bft) 94,00 %
12.06.2017 05:26 13,9 C 24,4 C 87 % 1013,1 hPa 0,0 l/m 1,0 km/h (0 Bft) S-SW 195 0 min 0,000 mm 0,0 UV-I 13 W/m 11,8 C 13,9 C 1,6 km/h (1 Bft) 100,00 %
12.06.2017 05:28 13,9 C 24,4 C 87 % 1013,1 hPa 0,0 l/m 0,2 km/h (0 Bft) S-SW 195 0 min 0,000 mm 0,0 UV-I 14 W/m 11,8 C 13,9 C 1,6 km/h (1 Bft) 97,37 %
12.06.2017 05:30 13,8 C 24,4 C 88 % 1013,1 hPa 0,0 l/m 0,5 km/h (0 Bft) S-SW 195 0 min 0,000 mm 0,0 UV-I 16 W/m 11,8 C 13,8 C 1,6 km/h (1 Bft) 96,00 %
12.06.2017 05:32 13,8 C 24,4 C 88 % 1013,1 hPa 0,0 l/m 0,0 km/h (0 Bft) S-SW 195 0 min 0,000 mm 0,0 UV-I 17 W/m 11,8 C 13,8 C 0,0 km/h (0 Bft) 98,00 %
12.06.2017 05:34 13,8 C 24,4 C 88 % 1013,0 hPa 0,0 l/m 0,0 km/h (0 Bft) S-SW 195 0 min 0,000 mm 0,0 UV-I 19 W/m 11,8 C 13,8 C 0,0 km/h (0 Bft) 97,37 %
12.06.2017 05:36 13,9 C 24,4 C 88 % 1013,0 hPa 0,0 l/m 0,0 km/h (0 Bft) S-SW 195 0 min 0,000 mm 0,0 UV-I 20 W/m 11,9 C 13,9 C 0,0 km/h (0 Bft) 100,00 %
12.06.2017 05:38 13,8 C 24,4 C 88 % 1013,0 hPa 0,0 l/m 0,0 km/h (0 Bft) S-SW 195 0 min 0,000 mm 0,0 UV-I 21 W/m 11,8 C 13,8 C 0,0 km/h (0 Bft) 96,15 %
12.06.2017 05:40 13,8 C 24,4 C 88 % 1012,9 hPa 0,0 l/m 0,0 km/h (0 Bft) S-SW 195 0 min 0,000 mm 0,0 UV-I 24 W/m 11,8 C 13,8 C 0,0 km/h (0 Bft) 98,00 %
12.06.2017 05:42 13,9 C 24,4 C 88 % 1012,9 hPa 0,0 l/m 0,0 km/h (0 Bft) S-SW 195 0 min 0,000 mm 0,0 UV-I 25 W/m 11,9 C 13,9 C 0,0 km/h (0 Bft) 100,00 %
12.06.2017 05:44 14,0 C 24,4 C 88 % 1013,0 hPa 0,0 l/m 0,0 km/h (0 Bft) S-SW 195 0 min 0,000 mm 0,0 UV-I 27 W/m 12,0 C 14,0 C 0,0 km/h (0 Bft) 100,00 %
12.06.2017 05:46 14,0 C 24,4 C 88 % 1012,9 hPa 0,0 l/m 1,5 km/h (1 Bft) S-SW 195 2 min 0,000 mm 0,0 UV-I 49 W/m 12,0 C 14,0 C 3,2 km/h (1 Bft) 97,37 %
12.06.2017 05:48 14,0 C 24,4 C 88 % 1012,9 hPa 0,0 l/m 0,7 km/h (0 Bft) S-SW 195 2 min 0,000 mm 0,0 UV-I 68 W/m 12,0 C 14,0 C 3,2 km/h (1 Bft) 100,00 %
12.06.2017 05:50 14,1 C 24,4 C 88 % 1013,0 hPa 0,0 l/m 0,4 km/h (0 Bft) S-SW 195 2 min 0,000 mm 0,0 UV-I 72 W/m 12,1 C 14,1 C 1,6 km/h (1 Bft) 100,00 %
12.06.2017 05:52 14,1 C 24,4 C 88 % 1013,0 hPa 0,0 l/m 0,0 km/h (0 Bft) S-SW 195 2 min 0,000 mm 0,0 UV-I 76 W/m 12,1 C 14,1 C 0,0 km/h (0 Bft) 100,00 %
12.06.2017 05:54 14,1 C 24,4 C 88 % 1013,0 hPa 0,0 l/m 0,0 km/h (0 Bft) S-SW 195 2 min 0,000 mm 0,0 UV-I 79 W/m 12,1 C 14,1 C 0,0 km/h (0 Bft) 100,00 %
12.06.2017 05:56 14,1 C 24,4 C 88 % 1013,0 hPa 0,0 l/m 0,0 km/h (0 Bft) S-SW 195 2 min 0,000 mm 0,0 UV-I 84 W/m 12,1 C 14,1 C 0,0 km/h (0 Bft) 96,30 %
12.06.2017 05:58 14,1 C 24,4 C 88 % 1013,0 hPa 0,0 l/m 0,0 km/h (0 Bft) S-SW 195 2 min 0,000 mm 0,0 UV-I 90 W/m 12,1 C 14,1 C 0,0 km/h (0 Bft) 98,39 %
12.06.2017 06:00 14,2 C 24,4 C 88 % 1013,0 hPa 0,0 l/m 0,0 km/h (0 Bft) S-SW 195 2 min 0,025 mm 0,0 UV-I 94 W/m 12,2 C 14,2 C 0,0 km/h (0 Bft) 95,74 %
12.06.2017 06:02 14,2 C 24,4 C 87 % 1013,0 hPa 0,0 l/m 0,0 km/h (0 Bft) S-SW 195 0 min 0,000 mm 0,0 UV-I 53 W/m 12,1 C 14,2 C 0,0 km/h (0 Bft) 100,00 %
12.06.2017 06:04 14,3 C 24,4 C 87 % 1013,0 hPa 0,0 l/m 0,0 km/h (0 Bft) S-SW 195 2 min 0,000 mm 0,0 UV-I 77 W/m 12,2 C 14,3 C 0,0 km/h (0 Bft) 98,00 %
12.06.2017 06:06 14,3 C 23,9 C 88 % 1013,0 hPa 0,0 l/m 0,0 km/h (0 Bft) S-SW 195 2 min 0,000 mm 0,0 UV-I 90 W/m 12,3 C 14,3 C 0,0 km/h (0 Bft) 97,87 %
12.06.2017 06:08 14,2 C 24,4 C 87 % 1013,0 hPa 0,0 l/m 0,0 km/h (0 Bft) S-SW 195 2 min 0,000 mm 0,0 UV-I 100 W/m 12,1 C 14,2 C 0,0 km/h (0 Bft) 100,00 %
12.06.2017 06:10 14,3 C 24,4 C 87 % 1013,0 hPa 0,0 l/m 0,0 km/h (0 Bft) S-SW 195 2 min 0,000 mm 0,0 UV-I 105 W/m 12,2 C 14,3 C 0,0 km/h (0 Bft) 97,56 %
12.06.2017 06:12 14,3 C 23,9 C 88 % 1013,0 hPa 0,0 l/m 0,0 km/h (0 Bft) S-SW 195 2 min 0,000 mm 0,0 UV-I 117 W/m 12,3 C 14,3 C 0,0 km/h (0 Bft) 98,00 %
12.06.2017 06:14 14,4 C 23,9 C 87 % 1013,0 hPa 0,0 l/m 0,0 km/h (0 Bft) S-SW 195 2 min 0,000 mm 0,0 UV-I 154 W/m 12,3 C 14,4 C 0,0 km/h (0 Bft) 97,87 %
12.06.2017 06:16 14,6 C 23,9 C 87 % 1013,0 hPa 0,0 l/m 0,0 km/h (0 Bft) S-SW 195 2 min 0,000 mm 0,0 UV-I 145 W/m 12,5 C 14,6 C 0,0 km/h (0 Bft) 97,56 %
12.06.2017 06:18 14,7 C 23,9 C 87 % 1012,9 hPa 0,0 l/m 0,0 km/h (0 Bft) S-SW 195 2 min 0,000 mm 0,0 UV-I 119 W/m 12,6 C 14,7 C 0,0 km/h (0 Bft) 98,11 %
12.06.2017 06:20 14,8 C 23,9 C 86 % 1013,0 hPa 0,0 l/m 0,0 km/h (0 Bft) S-SW 195 2 min 0,000 mm 0,0 UV-I 98 W/m 12,5 C 14,8 C 0,0 km/h (0 Bft) 95,74 %
12.06.2017 06:22 15,1 C 23,9 C 86 % 1013,0 hPa 0,0 l/m 0,0 km/h (0 Bft) S-SW 195 2 min 0,000 mm 0,0 UV-I 101 W/m 12,8 C 15,1 C 0,0 km/h (0 Bft) 100,00 %
12.06.2017 06:24 15,2 C 23,3 C 85 % 1013,0 hPa 0,0 l/m 0,0 km/h (0 Bft) S-SW 195 0 min 0,000 mm 0,0 UV-I 101 W/m 12,7 C 15,2 C 0,0 km/h (0 Bft) 100,00 %
12.06.2017 06:26 15,2 C 23,9 C 86 % 1013,0 hPa 0,0 l/m 0,0 km/h (0 Bft) S-SW 195 0 min 0,000 mm 0,0 UV-I 103 W/m 12,9 C 15,2 C 0,0 km/h (0 Bft) 98,00 %
12.06.2017 06:28 15,3 C 23,9 C 87 % 1013,1 hPa 0,0 l/m 0,0 km/h (0 Bft) S-SW 195 2 min 0,000 mm 0,0 UV-I 112 W/m 13,1 C 15,3 C 0,0 km/h (0 Bft) 96,00 %
12.06.2017 06:30 15,3 C 23,3 C 86 % 1013,0 hPa 0,0 l/m 0,0 km/h (0 Bft) S-SW 195 2 min 0,000 mm 0,0 UV-I 114 W/m 13,0 C 15,3 C 0,0 km/h (0 Bft) 100,00 %
12.06.2017 06:32 15,4 C 23,3 C 85 % 1013,0 hPa 0,0 l/m 0,0 km/h (0 Bft) S-SW 195 2 min 0,000 mm 0,0 UV-I 119 W/m 12,9 C 15,4 C 0,0 km/h (0 Bft) 97,87 %
12.06.2017 06:34 15,6 C 24,4 C 84 % 1012,9 hPa 0,0 l/m 0,0 km/h (0 Bft) S-SW 195 2 min 0,000 mm 0,0 UV-I 119 W/m 12,9 C 15,6 C 0,0 km/h (0 Bft) 96,00 %
12.06.2017 06:36 15,7 C 24,4 C 84 % 1013,0 hPa 0,0 l/m 0,0 km/h (0 Bft) S-SW 195 2 min 0,000 mm 0,0 UV-I 123 W/m 13,0 C 15,7 C 0,0 km/h (0 Bft) 92,00 %
12.06.2017 06:38 15,8 C 23,3 C 84 % 1012,9 hPa 0,0 l/m 0,0 km/h (0 Bft) S-SW 195 0 min 0,000 mm 0,0 UV-I 110 W/m 13,1 C 15,8 C 0,0 km/h (0 Bft) 95,74 %
12.06.2017 06:40 15,9 C 23,9 C 84 % 1012,9 hPa 0,0 l/m 0,0 km/h (0 Bft) S-SW 195 0 min 0,000 mm 0,0 UV-I 110 W/m 13,2 C 15,9 C 0,0 km/h (0 Bft) 97,92 %
12.06.2017 06:42 16,1 C 23,9 C 85 % 1012,9 hPa 0,0 l/m 0,0 km/h (0 Bft) S-SW 195 0 min 0,000 mm 0,0 UV-I 108 W/m 13,6 C 16,1 C 0,0 km/h (0 Bft) 95,74 %
12.06.2017 06:44 16,2 C 23,9 C 85 % 1012,9 hPa 0,0 l/m 0,0 km/h (0 Bft) S-SW 195 0 min 0,000 mm 0,0 UV-I 107 W/m 13,7 C 16,2 C 0,0 km/h (0 Bft) 96,00 %
12.06.2017 06:46 16,2 C 23,9 C 85 % 1012,9 hPa 0,0 l/m 0,0 km/h (0 Bft) S-SW 195 0 min 0,000 mm 0,0 UV-I 126 W/m 13,7 C 16,2 C 0,0 km/h (0 Bft) 91,49 %
12.06.2017 06:48 16,3 C 23,9 C 85 % 1012,9 hPa 0,0 l/m 0,0 km/h (0 Bft) S-SW 195 0 min 0,000 mm 0,0 UV-I 118 W/m 13,8 C 16,3 C 0,0 km/h (0 Bft) 95,12 %
12.06.2017 06:50 16,3 C 23,9 C 84 % 1012,9 hPa 0,0 l/m 0,0 km/h (0 Bft) S-SW 195 0 min 0,000 mm 0,0 UV-I 121 W/m 13,6 C 16,3 C 0,0 km/h (0 Bft) 95,12 %
12.06.2017 06:52 16,4 C 23,9 C 83 % 1012,9 hPa 0,0 l/m 0,1 km/h (0 Bft) S-SW 195 2 min 0,000 mm 0,0 UV-I 164 W/m 13,5 C 16,4 C 1,6 km/h (1 Bft) 91,49 %
12.06.2017 06:54 16,5 C 23,9 C 82 % 1012,9 hPa 0,0 l/m 0,0 km/h (0 Bft) S-SW 195 2 min 0,000 mm 0,0 UV-I 150 W/m 13,4 C 16,5 C 0,0 km/h (0 Bft) 91,49 %
12.06.2017 06:56 16,5 C 23,9 C 82 % 1012,9 hPa 0,0 l/m 0,0 km/h (0 Bft) S-SW 195 0 min 0,000 mm 0,0 UV-I 132 W/m 13,4 C 16,5 C 0,0 km/h (0 Bft) 86,00 %
12.06.2017 06:58 16,6 C 23,9 C 81 % 1012,9 hPa 0,0 l/m 0,0 km/h (0 Bft) S-SW 195 0 min 0,000 mm 0,0 UV-I 121 W/m 13,3 C 16,6 C 0,0 km/h (0 Bft) 92,45 %
12.06.2017 07:00 16,6 C 23,9 C 81 % 1013,0 hPa 0,0 l/m 0,0 km/h (0 Bft) S-SW 195 0 min 0,051 mm 0,0 UV-I 115 W/m 13,3 C 16,6 C 0,0 km/h (0 Bft) 94,74 %
12.06.2017 07:02 16,6 C 23,9 C 81 % 1012,9 hPa 0,0 l/m 0,0 km/h (0 Bft) S-SW 195 0 min 0,000 mm 0,0 UV-I 117 W/m 13,3 C 16,6 C 0,0 km/h (0 Bft) 92,00 %
12.06.2017 07:04 16,7 C 23,9 C 81 % 1012,9 hPa 0,0 l/m 0,0 km/h (0 Bft) S-SW 195 0 min 0,000 mm 0,0 UV-I 117 W/m 13,4 C 16,7 C 0,0 km/h (0 Bft) 90,00 %
12.06.2017 07:06 16,7 C 23,9 C 81 % 1012,9 hPa 0,0 l/m 0,0 km/h (0 Bft) S-SW 195 0 min 0,000 mm 0,0 UV-I 112 W/m 13,4 C 16,7 C 0,0 km/h (0 Bft) 95,74 %
12.06.2017 07:08 16,7 C 23,9 C 81 % 1012,9 hPa 0,0 l/m 0,0 km/h (0 Bft) S-SW 195 0 min 0,000 mm 0,0 UV-I 109 W/m 13,4 C 16,7 C 1,6 km/h (1 Bft) 94,00 %
12.06.2017 07:10 16,7 C 23,9 C 81 % 1012,9 hPa 0,0 l/m 2,0 km/h (1 Bft) S-SW 195 0 min 0,000 mm 0,0 UV-I 105 W/m 13,4 C 16,7 C 4,8 km/h (1 Bft) 91,49 %
12.06.2017 07:12 16,7 C 23,9 C 81 % 1012,8 hPa 0,0 l/m 0,2 km/h (0 Bft) S-SW 195 0 min 0,000 mm 0,0 UV-I 105 W/m 13,4 C 16,7 C 1,6 km/h (1 Bft) 97,30 %
12.06.2017 07:14 16,8 C 23,9 C 81 % 1012,8 hPa 0,0 l/m 0,5 km/h (0 Bft) S-SW 195 0 min 0,000 mm 0,3 UV-I 105 W/m 13,5 C 16,8 C 1,6 km/h (1 Bft) 92,00 %
12.06.2017 07:16 16,8 C 23,9 C 82 % 1012,8 hPa 0,0 l/m 0,0 km/h (0 Bft) S-SW 195 0 min 0,000 mm 0,5 UV-I 106 W/m 13,7 C 16,8 C 1,6 km/h (1 Bft) 95,74 %
12.06.2017 07:18 16,9 C 23,9 C 82 % 1012,7 hPa 0,0 l/m 1,2 km/h (1 Bft) S-SW 195 0 min 0,000 mm 0,5 UV-I 102 W/m 13,8 C 16,9 C 3,2 km/h (1 Bft) 88,00 %
12.06.2017 07:20 16,9 C 23,9 C 82 % 1012,8 hPa 0,0 l/m 1,1 km/h (1 Bft) S-SW 195 0 min 0,000 mm 0,5 UV-I 95 W/m 13,8 C 16,9 C 3,2 km/h (1 Bft) 88,10 %
12.06.2017 07:22 16,9 C 23,9 C 81 % 1012,8 hPa 0,0 l/m 0,1 km/h (0 Bft) S-SW 195 0 min 0,000 mm 0,5 UV-I 98 W/m 13,6 C 16,9 C 1,6 km/h (1 Bft) 96,00 %
12.06.2017 07:24 16,9 C 23,9 C 81 % 1012,9 hPa 0,0 l/m 0,3 km/h (0 Bft) S-SW 195 0 min 0,000 mm 0,6 UV-I 124 W/m 13,6 C 16,9 C 1,6 km/h (1 Bft) 85,11 %
12.06.2017 07:26 17,1 C 23,9 C 81 % 1012,9 hPa 0,0 l/m 0,9 km/h (0 Bft) S-SW 195 0 min 0,000 mm 0,6 UV-I 134 W/m 13,8 C 17,1 C 1,6 km/h (1 Bft) 97,87 %
12.06.2017 07:28 17,2 C 23,9 C 80 % 1012,9 hPa 0,0 l/m 1,7 km/h (1 Bft) S-SW 195 2 min 0,000 mm 0,7 UV-I 218 W/m 13,7 C 17,2 C 3,2 km/h (1 Bft) 98,00 %
12.06.2017 07:30 17,3 C 23,9 C 81 % 1012,8 hPa 0,0 l/m 0,7 km/h (0 Bft) S-SW 195 2 min 0,000 mm 0,8 UV-I 357 W/m 14,0 C 17,3 C 1,6 km/h (1 Bft) 97,37 %
12.06.2017 07:32 17,6 C 23,9 C 80 % 1012,7 hPa 0,0 l/m 0,4 km/h (0 Bft) S-SW 195 2 min 0,000 mm 0,8 UV-I 361 W/m 14,1 C 17,6 C 3,2 km/h (1 Bft) 98,00 %
12.06.2017 07:34 17,7 C 23,3 C 78 % 1012,7 hPa 0,0 l/m 0,8 km/h (0 Bft) S-SW 195 2 min 0,000 mm 0,9 UV-I 378 W/m 13,8 C 17,7 C 1,6 km/h (1 Bft) 100,00 %
12.06.2017 07:36 17,8 C 23,3 C 78 % 1012,7 hPa 0,0 l/m 0,6 km/h (0 Bft) S-SW 195 2 min 0,000 mm 0,8 UV-I 297 W/m 13,9 C 17,8 C 1,6 km/h (1 Bft) 100,00 %
12.06.2017 07:38 17,9 C 23,3 C 78 % 1012,6 hPa 0,0 l/m 0,7 km/h (0 Bft) S-SW 195 0 min 0,000 mm 0,8 UV-I 208 W/m 14,0 C 17,9 C 3,2 km/h (1 Bft) 97,87 %
12.06.2017 07:40 17,9 C 23,3 C 76 % 1012,6 hPa 0,0 l/m 0,8 km/h (0 Bft) S-SW 195 0 min 0,000 mm 0,8 UV-I 184 W/m 13,6 C 17,9 C 3,2 km/h (1 Bft) 94,00 %
12.06.2017 07:42 18,0 C 23,3 C 75 % 1012,6 hPa 0,0 l/m 0,5 km/h (0 Bft) S-SW 195 0 min 0,000 mm 0,9 UV-I 212 W/m 13,5 C 18,0 C 3,2 km/h (1 Bft) 100,00 %
12.06.2017 07:44 18,1 C 23,3 C 77 % 1012,7 hPa 0,0 l/m 0,3 km/h (0 Bft) S-SW 195 0 min 0,000 mm 0,9 UV-I 165 W/m 14,0 C 18,1 C 1,6 km/h (1 Bft) 100,00 %
12.06.2017 07:46 18,2 C 23,3 C 75 % 1012,7 hPa 0,0 l/m 0,5 km/h (0 Bft) S-SW 195 2 min 0,000 mm 1,0 UV-I 239 W/m 13,7 C 18,2 C 3,2 km/h (1 Bft) 100,00 %
12.06.2017 07:48 18,3 C 23,3 C 76 % 1012,8 hPa 0,0 l/m 3,4 km/h (1 Bft) S-SW 196 2 min 0,000 mm 1,1 UV-I 362 W/m 14,0 C 18,3 C 4,8 km/h (1 Bft) 95,12 %
12.06.2017 07:50 18,4 C 23,3 C 76 % 1012,8 hPa 0,0 l/m 3,4 km/h (1 Bft) W-SW 257 2 min 0,000 mm 1,1 UV-I 415 W/m 14,1 C 18,4 C 4,8 km/h (1 Bft) 98,00 %
12.06.2017 07:52 18,5 C 23,3 C 75 % 1012,8 hPa 0,0 l/m 3,6 km/h (1 Bft) W-SW 257 2 min 0,000 mm 1,2 UV-I 427 W/m 14,0 C 18,5 C 4,8 km/h (1 Bft) 97,87 %
12.06.2017 07:54 18,5 C 23,3 C 75 % 1012,8 hPa 0,0 l/m 2,3 km/h (1 Bft) W-SW 257 2 min 0,000 mm 1,2 UV-I 431 W/m 14,0 C 18,5 C 3,2 km/h (1 Bft) 97,62 %
12.06.2017 07:56 18,7 C 23,3 C 75 % 1012,9 hPa 0,0 l/m 2,3 km/h (1 Bft) W-SW 257 2 min 0,000 mm 1,2 UV-I 369 W/m 14,2 C 18,7 C 4,8 km/h (1 Bft) 100,00 %
12.06.2017 07:58 18,7 C 23,3 C 75 % 1012,9 hPa 0,0 l/m 1,6 km/h (1 Bft) W-SW 257 2 min 0,000 mm 1,1 UV-I 324 W/m 14,2 C 18,7 C 4,8 km/h (1 Bft) 100,00 %
12.06.2017 08:00 18,7 C 23,3 C 73 % 1013,0 hPa 0,0 l/m 1,0 km/h (0 Bft) W-SW 257 0 min 0,127 mm 1,0 UV-I 138 W/m 13,8 C 18,7 C 3,2 km/h (1 Bft) 98,00 %
12.06.2017 08:02 18,7 C 23,3 C 75 % 1012,9 hPa 0,0 l/m 0,2 km/h (0 Bft) W-SW 257 0 min 0,000 mm 1,1 UV-I 143 W/m 14,2 C 18,7 C 1,6 km/h (1 Bft) 100,00 %
12.06.2017 08:04 18,8 C 23,3 C 76 % 1012,9 hPa 0,0 l/m 0,3 km/h (0 Bft) W-SW 257 2 min 0,000 mm 1,4 UV-I 329 W/m 14,5 C 18,8 C 1,6 km/h (1 Bft) 100,00 %
12.06.2017 08:06 18,9 C 23,3 C 73 % 1012,9 hPa 0,0 l/m 1,0 km/h (0 Bft) W-SW 257 2 min 0,000 mm 1,3 UV-I 529 W/m 13,9 C 18,9 C 3,2 km/h (1 Bft) 100,00 %
12.06.2017 08:08 19,0 C 23,3 C 73 % 1012,9 hPa 0,0 l/m 2,1 km/h (1 Bft) W-SW 257 2 min 0,000 mm 1,2 UV-I 355 W/m 14,0 C 19,0 C 4,8 km/h (1 Bft) 98,11 %
12.06.2017 08:10 19,1 C 23,3 C 73 % 1013,0 hPa 0,0 l/m 1,8 km/h (1 Bft) W 259 2 min 0,000 mm 1,4 UV-I 434 W/m 14,1 C 19,1 C 4,8 km/h (1 Bft) 98,00 %
12.06.2017 08:12 19,1 C 23,3 C 73 % 1013,0 hPa 0,0 l/m 0,3 km/h (0 Bft) W 259 2 min 0,000 mm 1,0 UV-I 397 W/m 14,1 C 19,1 C 1,6 km/h (1 Bft) 100,00 %
12.06.2017 08:14 19,2 C 23,3 C 72 % 1013,0 hPa 0,0 l/m 0,0 km/h (0 Bft) W 259 0 min 0,000 mm 0,8 UV-I 235 W/m 14,0 C 19,2 C 1,6 km/h (1 Bft) 94,00 %
12.06.2017 08:16 19,2 C 23,3 C 72 % 1013,0 hPa 0,0 l/m 0,8 km/h (0 Bft) W 259 0 min 0,000 mm 0,7 UV-I 194 W/m 14,0 C 19,2 C 3,2 km/h (1 Bft) 96,00 %
12.06.2017 08:18 19,3 C 23,3 C 72 % 1013,0 hPa 0,0 l/m 2,8 km/h (1 Bft) W 259 0 min 0,000 mm 0,7 UV-I 165 W/m 14,1 C 19,3 C 4,8 km/h (1 Bft) 100,00 %
12.06.2017 08:20 19,3 C 23,3 C 73 % 1013,0 hPa 0,0 l/m 1,5 km/h (1 Bft) W 259 0 min 0,000 mm 0,8 UV-I 169 W/m 14,3 C 19,3 C 3,2 km/h (1 Bft) 98,11 %
12.06.2017 08:22 19,3 C 23,3 C 72 % 1013,0 hPa 0,0 l/m 4,1 km/h (1 Bft) W 261 0 min 0,000 mm 0,9 UV-I 205 W/m 14,1 C 19,3 C 9,7 km/h (2 Bft) 97,56 %
12.06.2017 08:24 19,3 C 23,3 C 72 % 1013,0 hPa 0,0 l/m 4,5 km/h (1 Bft) W 275 0 min 0,000 mm 0,9 UV-I 218 W/m 14,1 C 19,3 C 6,4 km/h (2 Bft) 100,00 %
12.06.2017 08:26 19,3 C 23,3 C 72 % 1013,0 hPa 0,0 l/m 2,0 km/h (1 Bft) W 275 0 min 0,000 mm 0,9 UV-I 176 W/m 14,1 C 19,3 C 4,8 km/h (1 Bft) 98,00 %
12.06.2017 08:28 19,3 C 23,3 C 71 % 1013,0 hPa 0,0 l/m 3,3 km/h (1 Bft) W-SW 249 0 min 0,000 mm 1,0 UV-I 152 W/m 13,9 C 19,3 C 6,4 km/h (2 Bft) 91,49 %
12.06.2017 08:30 19,3 C 23,3 C 72 % 1013,0 hPa 0,0 l/m 3,5 km/h (1 Bft) W-NW 295 0 min 0,000 mm 1,2 UV-I 188 W/m 14,1 C 19,3 C 6,4 km/h (2 Bft) 100,00 %
12.06.2017 08:32 19,3 C 23,3 C 74 % 1013,0 hPa 0,0 l/m 0,3 km/h (0 Bft) W-NW 295 0 min 0,000 mm 1,4 UV-I 238 W/m 14,5 C 19,3 C 1,6 km/h (1 Bft) 98,00 %
12.06.2017 08:34 19,4 C 23,3 C 74 % 1013,1 hPa 0,0 l/m 1,6 km/h (1 Bft) W 272 0 min 0,000 mm 1,4 UV-I 244 W/m 14,6 C 19,4 C 6,4 km/h (2 Bft) 100,00 %
12.06.2017 08:36 19,4 C 23,3 C 73 % 1013,1 hPa 0,0 l/m 4,1 km/h (1 Bft) W 278 0 min 0,000 mm 1,4 UV-I 215 W/m 14,4 C 19,4 C 6,4 km/h (2 Bft) 95,74 %
12.06.2017 08:38 19,4 C 23,3 C 74 % 1013,1 hPa 0,0 l/m 3,3 km/h (1 Bft) W 277 0 min 0,000 mm 1,4 UV-I 209 W/m 14,6 C 19,4 C 6,4 km/h (2 Bft) 100,00 %
12.06.2017 08:40 19,4 C 23,3 C 73 % 1013,1 hPa 0,0 l/m 2,3 km/h (1 Bft) W 277 0 min 0,000 mm 1,8 UV-I 242 W/m 14,4 C 19,4 C 4,8 km/h (1 Bft) 98,00 %
12.06.2017 08:42 19,7 C 23,3 C 72 % 1013,1 hPa 0,0 l/m 4,8 km/h (1 Bft) W-SW 247 2 min 0,000 mm 1,6 UV-I 506 W/m 14,5 C 19,7 C 12,9 km/h (3 Bft) 100,00 %
12.06.2017 08:44 19,7 C 23,3 C 71 % 1013,1 hPa 0,0 l/m 6,3 km/h (2 Bft) W-SW 244 0 min 0,000 mm 1,4 UV-I 188 W/m 14,3 C 19,7 C 8,0 km/h (2 Bft) 100,00 %
12.06.2017 08:46 19,7 C 23,3 C 71 % 1013,1 hPa 0,0 l/m 6,6 km/h (2 Bft) W-SW 248 0 min 0,000 mm 1,6 UV-I 210 W/m 14,3 C 19,6 C 11,3 km/h (2 Bft) 100,00 %
12.06.2017 08:48 19,7 C 23,3 C 71 % 1013,1 hPa 0,0 l/m 4,3 km/h (1 Bft) W 269 0 min 0,000 mm 1,8 UV-I 304 W/m 14,3 C 19,7 C 6,4 km/h (2 Bft) 97,37 %
12.06.2017 08:50 19,7 C 23,3 C 72 % 1013,2 hPa 0,0 l/m 2,5 km/h (1 Bft) W 269 0 min 0,000 mm 1,7 UV-I 288 W/m 14,5 C 19,7 C 4,8 km/h (1 Bft) 100,00 %
12.06.2017 08:52 19,8 C 23,3 C 71 % 1013,1 hPa 0,0 l/m 7,8 km/h (2 Bft) W-SW 252 0 min 0,000 mm 1,6 UV-I 239 W/m 14,4 C 19,2 C 11,3 km/h (2 Bft) 98,11 %
12.06.2017 08:54 19,8 C 23,3 C 71 % 1013,1 hPa 0,0 l/m 5,7 km/h (1 Bft) W-SW 255 0 min 0,000 mm 1,9 UV-I 244 W/m 14,4 C 19,8 C 8,0 km/h (2 Bft) 97,87 %
12.06.2017 08:56 19,8 C 23,3 C 70 % 1013,2 hPa 0,0 l/m 5,4 km/h (1 Bft) W-SW 238 0 min 0,000 mm 1,7 UV-I 225 W/m 14,2 C 19,8 C 9,7 km/h (2 Bft) 96,00 %
12.06.2017 08:58 19,9 C 23,3 C 71 % 1013,2 hPa 0,0 l/m 4,6 km/h (1 Bft) W-SW 248 0 min 0,000 mm 1,6 UV-I 202 W/m 14,5 C 19,9 C 6,4 km/h (2 Bft) 92,11 %
12.06.2017 09:00 19,9 C 23,3 C 72 % 1013,2 hPa 0,0 l/m 3,5 km/h (1 Bft) W-SW 248 0 min 0,178 mm 1,6 UV-I 180 W/m 14,7 C 19,9 C 6,4 km/h (2 Bft) 96,00 %
12.06.2017 09:02 19,9 C 23,3 C 72 % 1013,3 hPa 0,0 l/m 4,2 km/h (1 Bft) W 273 0 min 0,000 mm 1,8 UV-I 234 W/m 14,7 C 19,9 C 6,4 km/h (2 Bft) 92,45 %
12.06.2017 09:04 20,0 C 23,3 C 72 % 1013,3 hPa 0,0 l/m 4,8 km/h (1 Bft) W-SW 238 0 min 0,000 mm 1,9 UV-I 262 W/m 14,8 C 20,0 C 6,4 km/h (2 Bft) 97,56 %
12.06.2017 09:06 20,1 C 23,3 C 71 % 1013,3 hPa 0,0 l/m 5,8 km/h (2 Bft) W 266 0 min 0,000 mm 1,7 UV-I 189 W/m 14,7 C 20,1 C 12,9 km/h (3 Bft) 97,22 %
12.06.2017 09:08 20,1 C 23,3 C 72 % 1013,3 hPa 0,0 l/m 5,6 km/h (1 Bft) W 272 0 min 0,000 mm 2,3 UV-I 245 W/m 14,9 C 20,1 C 9,7 km/h (2 Bft) 95,31 %
12.06.2017 09:10 20,3 C 23,3 C 72 % 1013,3 hPa 0,0 l/m 2,8 km/h (1 Bft) W 272 2 min 0,000 mm 2,5 UV-I 631 W/m 15,1 C 20,3 C 4,8 km/h (1 Bft) 93,62 %
12.06.2017 09:12 20,7 C 23,9 C 70 % 1013,2 hPa 0,0 l/m 3,1 km/h (1 Bft) W-SW 248 2 min 0,000 mm 2,7 UV-I 624 W/m 15,0 C 20,7 C 6,4 km/h (2 Bft) 94,87 %
12.06.2017 09:14 20,9 C 23,3 C 70 % 1013,2 hPa 0,0 l/m 4,4 km/h (1 Bft) W 265 2 min 0,000 mm 2,8 UV-I 613 W/m 15,2 C 20,9 C 8,0 km/h (2 Bft) 92,00 %
12.06.2017 09:16 21,2 C 23,3 C 70 % 1013,2 hPa 0,0 l/m 3,7 km/h (1 Bft) W 261 2 min 0,000 mm 2,9 UV-I 621 W/m 15,5 C 21,2 C 6,4 km/h (2 Bft) 100,00 %
12.06.2017 09:18 21,6 C 23,3 C 68 % 1013,2 hPa 0,0 l/m 4,0 km/h (1 Bft) W 272 2 min 0,000 mm 2,9 UV-I 616 W/m 15,4 C 21,6 C 6,4 km/h (2 Bft) 92,86 %
12.06.2017 09:20 21,8 C 23,3 C 68 % 1013,2 hPa 0,0 l/m 7,7 km/h (2 Bft) W-SW 254 2 min 0,000 mm 3,0 UV-I 620 W/m 15,6 C 21,3 C 12,9 km/h (3 Bft) 95,12 %
12.06.2017 09:22 21,9 C 23,3 C 67 % 1013,2 hPa 0,0 l/m 5,2 km/h (1 Bft) W 274 2 min 0,000 mm 3,0 UV-I 618 W/m 15,5 C 21,9 C 11,3 km/h (2 Bft) 97,87 %
12.06.2017 09:24 22,1 C 23,3 C 66 % 1013,2 hPa 0,0 l/m 5,5 km/h (1 Bft) W-SW 256 2 min 0,000 mm 3,1 UV-I 617 W/m 15,4 C 22,1 C 11,3 km/h (2 Bft) 100,00 %
12.06.2017 09:26 22,2 C 23,3 C 65 % 1013,2 hPa 0,0 l/m 6,5 km/h (2 Bft) W 266 2 min 0,000 mm 3,1 UV-I 618 W/m 15,3 C 22,2 C 12,9 km/h (3 Bft) 97,87 %
12.06.2017 09:28 22,3 C 23,3 C 66 % 1013,2 hPa 0,0 l/m 4,8 km/h (1 Bft) W 275 2 min 0,000 mm 3,2 UV-I 622 W/m 15,6 C 22,3 C 9,7 km/h (2 Bft) 100,00 %
12.06.2017 09:30 22,4 C 23,3 C 65 % 1013,2 hPa 0,0 l/m 3,9 km/h (1 Bft) W-SW 257 2 min 0,000 mm 3,2 UV-I 628 W/m 15,5 C 22,4 C 6,4 km/h (2 Bft) 96,00 %
12.06.2017 09:32 22,7 C 23,3 C 66 % 1013,2 hPa 0,0 l/m 4,5 km/h (1 Bft) W-SW 257 2 min 0,000 mm 3,3 UV-I 630 W/m 16,0 C 22,7 C 8,0 km/h (2 Bft) 97,73 %
12.06.2017 09:34 22,8 C 23,3 C 65 % 1013,1 hPa 0,0 l/m 6,1 km/h (2 Bft) W-SW 242 2 min 0,000 mm 3,3 UV-I 632 W/m 15,9 C 22,8 C 9,7 km/h (2 Bft) 98,00 %
12.06.2017 09:36 23,1 C 23,3 C 63 % 1013,1 hPa 0,0 l/m 7,4 km/h (2 Bft) W 265 2 min 0,000 mm 3,4 UV-I 645 W/m 15,7 C 22,8 C 11,3 km/h (2 Bft) 93,62 %
12.06.2017 09:38 23,2 C 23,3 C 64 % 1013,1 hPa 0,0 l/m 5,5 km/h (1 Bft) SW 234 2 min 0,000 mm 3,5 UV-I 655 W/m 16,0 C 23,2 C 14,5 km/h (3 Bft) 100,00 %
12.06.2017 09:40 23,4 C 23,3 C 63 % 1013,1 hPa 0,0 l/m 9,9 km/h (2 Bft) W-SW 245 2 min 0,000 mm 3,6 UV-I 670 W/m 15,9 C 22,4 C 16,1 km/h (3 Bft) 98,11 %
12.06.2017 09:42 23,6 C 23,3 C 64 % 1013,1 hPa 0,0 l/m 6,9 km/h (2 Bft) SW 215 2 min 0,000 mm 3,7 UV-I 698 W/m 16,4 C 23,5 C 9,7 km/h (2 Bft) 97,56 %
12.06.2017 09:44 23,7 C 23,3 C 63 % 1013,1 hPa 0,0 l/m 7,0 km/h (2 Bft) W-SW 249 2 min 0,000 mm 3,8 UV-I 753 W/m 16,2 C 23,5 C 11,3 km/h (2 Bft) 97,56 %
12.06.2017 09:46 23,9 C 23,3 C 63 % 1013,1 hPa 0,0 l/m 5,8 km/h (2 Bft) SW 234 2 min 0,000 mm 3,2 UV-I 763 W/m 16,4 C 23,9 C 9,7 km/h (2 Bft) 97,62 %
12.06.2017 09:48 24,0 C 23,9 C 62 % 1013,1 hPa 0,0 l/m 4,3 km/h (1 Bft) SW 236 2 min 0,000 mm 3,6 UV-I 733 W/m 16,3 C 24,0 C 11,3 km/h (2 Bft) 98,11 %
12.06.2017 09:50 24,1 C 23,3 C 63 % 1013,1 hPa 0,0 l/m 6,1 km/h (2 Bft) W-SW 246 2 min 0,000 mm 3,1 UV-I 528 W/m 16,6 C 24,1 C 12,9 km/h (3 Bft) 97,37 %
12.06.2017 09:52 24,2 C 23,3 C 64 % 1013,1 hPa 0,0 l/m 7,2 km/h (2 Bft) W 262 0 min 0,000 mm 3,6 UV-I 380 W/m 16,9 C 24,0 C 11,3 km/h (2 Bft) 100,00 %
12.06.2017 09:54 24,2 C 23,3 C 63 % 1013,1 hPa 0,0 l/m 5,9 km/h (2 Bft) W 277 0 min 0,000 mm 3,8 UV-I 380 W/m 16,7 C 24,2 C 9,7 km/h (2 Bft) 96,23 %
12.06.2017 09:56 24,2 C 23,9 C 64 % 1013,0 hPa 0,0 l/m 6,7 km/h (2 Bft) W 266 2 min 0,000 mm 3,7 UV-I 505 W/m 16,9 C 24,1 C 11,3 km/h (2 Bft) 98,11 %
12.06.2017 09:58 24,3 C 23,9 C 63 % 1013,1 hPa 0,0 l/m 4,6 km/h (1 Bft) SW 217 2 min 0,000 mm 3,9 UV-I 697 W/m 16,8 C 24,3 C 9,7 km/h (2 Bft) 100,00 %
12.06.2017 10:00 24,4 C 23,9 C 63 % 1013,1 hPa 0,0 l/m 9,9 km/h (2 Bft) W 260 2 min 0,381 mm 4,0 UV-I 689 W/m 16,9 C 23,5 C 14,5 km/h (3 Bft) 100,00 %
12.06.2017 10:02 24,6 C 23,9 C 62 % 1013,0 hPa 0,0 l/m 5,2 km/h (1 Bft) SW 217 2 min 0,000 mm 4,0 UV-I 696 W/m 16,8 C 24,6 C 9,7 km/h (2 Bft) 100,00 %
12.06.2017 10:04 24,7 C 23,9 C 62 % 1013,0 hPa 0,0 l/m 10,4 km/h (2 Bft) W-SW 257 2 min 0,000 mm 4,1 UV-I 699 W/m 16,9 C 23,7 C 14,5 km/h (3 Bft) 100,00 %
12.06.2017 10:06 24,9 C 23,9 C 61 % 1013,0 hPa 0,0 l/m 8,9 km/h (2 Bft) SW 229 2 min 0,000 mm 4,1 UV-I 705 W/m 16,8 C 24,3 C 12,9 km/h (3 Bft) 94,74 %
12.06.2017 10:08 25,0 C 23,9 C 60 % 1013,0 hPa 0,0 l/m 7,1 km/h (2 Bft) SW 232 2 min 0,000 mm 4,2 UV-I 717 W/m 16,7 C 24,8 C 9,7 km/h (2 Bft) 100,00 %
12.06.2017 10:10 25,1 C 23,9 C 61 % 1013,0 hPa 0,0 l/m 5,7 km/h (1 Bft) W-SW 255 2 min 0,000 mm 4,3 UV-I 718 W/m 17,0 C 25,1 C 8,0 km/h (2 Bft) 100,00 %
12.06.2017 10:12 25,4 C 23,9 C 62 % 1013,0 hPa 0,0 l/m 3,4 km/h (1 Bft) SW 228 2 min 0,000 mm 4,3 UV-I 727 W/m 17,6 C 25,4 C 6,4 km/h (2 Bft) 97,56 %
12.06.2017 10:14 25,6 C 23,9 C 60 % 1013,0 hPa 0,0 l/m 7,9 km/h (2 Bft) SW 232 2 min 0,000 mm 4,5 UV-I 752 W/m 17,2 C 25,3 C 11,3 km/h (2 Bft) 100,00 %
12.06.2017 10:16 25,6 C 23,9 C 59 % 1013,0 hPa 0,0 l/m 9,1 km/h (2 Bft) W 261 2 min 0,000 mm 4,7 UV-I 800 W/m 17,0 C 25,0 C 12,9 km/h (3 Bft) 95,12 %
12.06.2017 10:18 25,7 C 23,9 C 59 % 1012,9 hPa 0,0 l/m 2,5 km/h (1 Bft) W-SW 258 2 min 0,000 mm 4,4 UV-I 673 W/m 17,1 C 25,7 C 6,4 km/h (2 Bft) 94,34 %
12.06.2017 10:20 25,8 C 23,9 C 59 % 1012,9 hPa 0,0 l/m 4,5 km/h (1 Bft) W 262 2 min 0,000 mm 4,0 UV-I 654 W/m 17,2 C 25,8 C 11,3 km/h (2 Bft) 95,74 %
12.06.2017 10:22 25,8 C 23,9 C 58 % 1012,9 hPa 0,0 l/m 6,9 km/h (2 Bft) W-NW 284 2 min 0,000 mm 3,9 UV-I 501 W/m 16,9 C 25,7 C 14,5 km/h (3 Bft) 93,62 %
12.06.2017 10:24 25,7 C 23,9 C 59 % 1012,9 hPa 0,0 l/m 11,1 km/h (2 Bft) W 278 2 min 0,000 mm 3,7 UV-I 483 W/m 17,1 C 24,7 C 17,7 km/h (3 Bft) 97,87 %
12.06.2017 10:26 25,6 C 23,9 C 58 % 1012,9 hPa 0,0 l/m 9,5 km/h (2 Bft) SW 221 2 min 0,000 mm 3,8 UV-I 478 W/m 16,7 C 24,9 C 14,5 km/h (3 Bft) 96,00 %
12.06.2017 10:28 25,7 C 23,9 C 59 % 1012,9 hPa 0,0 l/m 5,0 km/h (1 Bft) W 259 2 min 0,000 mm 4,1 UV-I 587 W/m 17,1 C 25,7 C 9,7 km/h (2 Bft) 97,44 %
12.06.2017 10:30 25,8 C 23,9 C 59 % 1012,9 hPa 0,0 l/m 7,2 km/h (2 Bft) W-SW 246 2 min 0,000 mm 3,6 UV-I 502 W/m 17,2 C 25,6 C 16,1 km/h (3 Bft) 94,29 %
12.06.2017 10:32 25,9 C 23,9 C 59 % 1012,9 hPa 0,0 l/m 11,0 km/h (2 Bft) W-SW 257 2 min 0,000 mm 3,5 UV-I 474 W/m 17,3 C 25,0 C 17,7 km/h (3 Bft) 97,01 %
12.06.2017 10:34 25,9 C 23,9 C 56 % 1012,9 hPa 0,0 l/m 10,5 km/h (2 Bft) W-SW 240 2 min 0,000 mm 3,6 UV-I 493 W/m 16,4 C 25,1 C 17,7 km/h (3 Bft) 94,44 %
12.06.2017 10:36 25,9 C 23,9 C 56 % 1012,9 hPa 0,0 l/m 8,0 km/h (2 Bft) W 261 2 min 0,000 mm 3,5 UV-I 468 W/m 16,4 C 25,5 C 17,7 km/h (3 Bft) 98,00 %
12.06.2017 10:38 25,9 C 23,9 C 58 % 1012,9 hPa 0,0 l/m 5,5 km/h (1 Bft) SW 233 2 min 0,000 mm 3,4 UV-I 444 W/m 17,0 C 25,9 C 9,7 km/h (2 Bft) 94,64 %
12.06.2017 10:40 26,0 C 23,9 C 58 % 1012,9 hPa 0,0 l/m 9,0 km/h (2 Bft) W 268 2 min 0,000 mm 3,5 UV-I 461 W/m 17,1 C 25,5 C 16,1 km/h (3 Bft) 97,37 %
12.06.2017 10:42 26,0 C 23,9 C 55 % 1012,8 hPa 0,0 l/m 10,5 km/h (2 Bft) SW 223 2 min 0,000 mm 3,7 UV-I 499 W/m 16,2 C 25,2 C 19,3 km/h (3 Bft) 93,18 %
12.06.2017 10:44 26,2 C 23,9 C 56 % 1012,8 hPa 0,0 l/m 10,0 km/h (2 Bft) SW 227 2 min 0,000 mm 3,7 UV-I 510 W/m 16,7 C 25,5 C 12,9 km/h (3 Bft) 96,61 %
12.06.2017 10:46 26,3 C 23,9 C 56 % 1012,8 hPa 0,0 l/m 7,0 km/h (2 Bft) W-SW 245 2 min 0,000 mm 3,6 UV-I 481 W/m 16,8 C 26,2 C 11,3 km/h (2 Bft) 92,68 %
12.06.2017 10:48 26,3 C 23,9 C 55 % 1012,9 hPa 0,0 l/m 8,7 km/h (2 Bft) W 273 2 min 0,000 mm 3,6 UV-I 480 W/m 16,5 C 25,8 C 14,5 km/h (3 Bft) 94,00 %
12.06.2017 10:50 26,3 C 23,9 C 56 % 1012,8 hPa 0,0 l/m 12,1 km/h (2 Bft) W-SW 249 2 min 0,000 mm 3,6 UV-I 500 W/m 16,8 C 25,3 C 19,3 km/h (3 Bft) 94,74 %
12.06.2017 10:52 26,3 C 23,9 C 55 % 1012,8 hPa 0,0 l/m 11,3 km/h (2 Bft) W-SW 248 2 min 0,000 mm 3,7 UV-I 472 W/m 16,5 C 25,4 C 19,3 km/h (3 Bft) 93,18 %
12.06.2017 10:54 26,3 C 23,9 C 53 % 1012,9 hPa 0,0 l/m 15,9 km/h (3 Bft) W 268 2 min 0,000 mm 3,7 UV-I 489 W/m 15,9 C 24,8 C 22,5 km/h (4 Bft) 94,92 %
12.06.2017 10:56 26,3 C 23,9 C 53 % 1012,9 hPa 0,0 l/m 10,7 km/h (2 Bft) W-NW 284 2 min 0,000 mm 3,7 UV-I 474 W/m 15,9 C 25,5 C 20,9 km/h (4 Bft) 95,12 %
12.06.2017 10:58 26,3 C 23,9 C 53 % 1012,9 hPa 0,0 l/m 11,2 km/h (2 Bft) W-SW 254 2 min 0,000 mm 3,7 UV-I 463 W/m 15,9 C 25,4 C 16,1 km/h (3 Bft) 94,34 %
12.06.2017 11:00 26,3 C 23,9 C 53 % 1012,9 hPa 0,0 l/m 10,9 km/h (2 Bft) W-SW 257 2 min 0,406 mm 3,7 UV-I 471 W/m 15,9 C 25,5 C 16,1 km/h (3 Bft) 95,12 %
12.06.2017 11:02 26,2 C 23,9 C 53 % 1012,9 hPa 0,0 l/m 12,1 km/h (2 Bft) W-NW 292 2 min 0,000 mm 3,8 UV-I 459 W/m 15,8 C 25,2 C 20,9 km/h (4 Bft) 90,00 %
12.06.2017 11:04 26,2 C 23,9 C 54 % 1012,9 hPa 0,0 l/m 8,2 km/h (2 Bft) W 264 2 min 0,000 mm 3,9 UV-I 457 W/m 16,1 C 25,8 C 12,9 km/h (3 Bft) 95,45 %
12.06.2017 11:06 26,3 C 23,9 C 53 % 1012,9 hPa 0,0 l/m 7,3 km/h (2 Bft) W 261 2 min 0,000 mm 4,5 UV-I 516 W/m 15,9 C 26,1 C 12,9 km/h (3 Bft) 94,00 %
12.06.2017 11:08 26,4 C 23,9 C 53 % 1012,9 hPa 0,0 l/m 9,7 km/h (2 Bft) N-NW 331 2 min 0,000 mm 5,3 UV-I 557 W/m 16,0 C 25,8 C 16,1 km/h (3 Bft) 95,24 %
12.06.2017 11:10 26,6 C 23,9 C 53 % 1012,9 hPa 0,0 l/m 7,3 km/h (2 Bft) SW 220 2 min 0,000 mm 5,4 UV-I 661 W/m 16,2 C 26,4 C 14,5 km/h (3 Bft) 96,15 %
12.06.2017 11:12 26,8 C 23,9 C 52 % 1012,8 hPa 0,0 l/m 8,4 km/h (2 Bft) W 259 2 min 0,000 mm 5,8 UV-I 671 W/m 16,1 C 26,4 C 16,1 km/h (3 Bft) 92,31 %
12.06.2017 11:14 27,1 C 23,9 C 51 % 1012,9 hPa 0,0 l/m 11,9 km/h (2 Bft) W 266 2 min 0,000 mm 5,7 UV-I 671 W/m 16,1 C 26,2 C 17,7 km/h (3 Bft) 96,23 %
12.06.2017 11:16 27,1 C 23,9 C 51 % 1012,9 hPa 0,0 l/m 12,4 km/h (3 Bft) W 263 2 min 0,000 mm 5,6 UV-I 759 W/m 16,1 C 26,2 C 24,1 km/h (4 Bft) 94,34 %
12.06.2017 11:18 27,1 C 23,9 C 51 % 1012,9 hPa 0,0 l/m 16,2 km/h (3 Bft) W-SW 246 2 min 0,000 mm 5,7 UV-I 959 W/m 16,1 C 25,7 C 20,9 km/h (4 Bft) 91,30 %
12.06.2017 11:20 27,2 C 23,9 C 51 % 1012,8 hPa 0,0 l/m 15,1 km/h (3 Bft) SW 217 2 min 0,000 mm 6,0 UV-I 991 W/m 16,2 C 26,0 C 22,5 km/h (4 Bft) 93,85 %
12.06.2017 11:22 27,3 C 23,9 C 50 % 1012,8 hPa 0,0 l/m 16,0 km/h (3 Bft) SW 230 2 min 0,000 mm 6,4 UV-I 980 W/m 15,9 C 26,0 C 24,1 km/h (4 Bft) 97,37 %
12.06.2017 11:24 27,6 C 23,9 C 52 % 1012,9 hPa 0,0 l/m 9,8 km/h (2 Bft) W 264 2 min 0,000 mm 6,4 UV-I 938 W/m 16,8 C 27,1 C 17,7 km/h (3 Bft) 93,22 %
12.06.2017 11:26 27,6 C 23,9 C 50 % 1012,8 hPa 0,0 l/m 13,1 km/h (3 Bft) SW 223 2 min 0,000 mm 6,3 UV-I 907 W/m 16,2 C 26,7 C 22,5 km/h (4 Bft) 97,14 %
12.06.2017 11:28 27,6 C 23,9 C 50 % 1012,8 hPa 0,0 l/m 14,6 km/h (3 Bft) W 263 2 min 0,000 mm 6,2 UV-I 873 W/m 16,2 C 26,5 C 30,6 km/h (5 Bft) 96,61 %
12.06.2017 11:30 27,6 C 23,9 C 51 % 1012,8 hPa 0,0 l/m 19,0 km/h (3 Bft) W 269 2 min 0,000 mm 6,2 UV-I 868 W/m 16,5 C 26,1 C 27,4 km/h (4 Bft) 100,00 %
12.06.2017 11:32 27,5 C 23,9 C 49 % 1012,8 hPa 0,0 l/m 16,7 km/h (3 Bft) SW 231 2 min 0,000 mm 6,3 UV-I 873 W/m 15,8 C 26,2 C 24,1 km/h (4 Bft) 94,74 %
12.06.2017 11:34 27,6 C 23,9 C 50 % 1012,8 hPa 0,0 l/m 11,5 km/h (2 Bft) W 259 2 min 0,000 mm 6,3 UV-I 863 W/m 16,2 C 26,8 C 24,1 km/h (4 Bft) 98,21 %
12.06.2017 11:36 27,7 C 23,9 C 52 % 1012,8 hPa 0,0 l/m 5,4 km/h (1 Bft) W-NW 294 2 min 0,000 mm 6,3 UV-I 870 W/m 16,9 C 27,7 C 12,9 km/h (3 Bft) 98,00 %
12.06.2017 11:38 27,7 C 23,9 C 52 % 1012,8 hPa 0,0 l/m 6,1 km/h (2 Bft) W-SW 252 2 min 0,000 mm 6,3 UV-I 880 W/m 16,9 C 27,7 C 12,9 km/h (3 Bft) 94,74 %
12.06.2017 11:40 27,8 C 23,9 C 52 % 1012,8 hPa 0,0 l/m 9,1 km/h (2 Bft) W-SW 239 2 min 0,000 mm 6,4 UV-I 872 W/m 17,0 C 27,4 C 14,5 km/h (3 Bft) 97,56 %
12.06.2017 11:42 27,8 C 23,9 C 48 % 1012,8 hPa 0,0 l/m 13,0 km/h (3 Bft) S-SW 210 2 min 0,000 mm 6,4 UV-I 871 W/m 15,8 C 26,9 C 22,5 km/h (4 Bft) 98,11 %
12.06.2017 11:44 27,8 C 23,9 C 50 % 1012,8 hPa 0,0 l/m 10,7 km/h (2 Bft) W-SW 254 2 min 0,000 mm 6,4 UV-I 872 W/m 16,4 C 27,2 C 20,9 km/h (4 Bft) 97,87 %
12.06.2017 11:46 27,9 C 23,9 C 50 % 1012,8 hPa 0,0 l/m 8,7 km/h (2 Bft) W-SW 257 2 min 0,000 mm 6,5 UV-I 882 W/m 16,5 C 27,5 C 20,9 km/h (4 Bft) 96,00 %
12.06.2017 11:48 28,0 C 23,9 C 48 % 1012,8 hPa 0,0 l/m 16,0 km/h (3 Bft) S-SW 213 2 min 0,000 mm 6,6 UV-I 897 W/m 15,9 C 26,9 C 22,5 km/h (4 Bft) 93,75 %
12.06.2017 11:50 27,9 C 23,9 C 49 % 1012,9 hPa 0,0 l/m 14,8 km/h (3 Bft) W-NW 287 2 min 0,000 mm 6,7 UV-I 925 W/m 16,2 C 26,8 C 24,1 km/h (4 Bft) 95,12 %
12.06.2017 11:52 28,1 C 23,9 C 50 % 1012,8 hPa 0,0 l/m 17,2 km/h (3 Bft) SW 230 2 min 0,000 mm 6,8 UV-I 975 W/m 16,7 C 26,9 C 27,4 km/h (4 Bft) 97,56 %
12.06.2017 11:54 28,1 C 23,9 C 49 % 1012,8 hPa 0,0 l/m 18,5 km/h (3 Bft) W-SW 254 2 min 0,000 mm 6,9 UV-I 1012 W/m 16,4 C 26,8 C 29,0 km/h (5 Bft) 98,31 %
12.06.2017 11:56 27,9 C 23,9 C 48 % 1012,8 hPa 0,0 l/m 16,3 km/h (3 Bft) W-SW 243 2 min 0,000 mm 6,0 UV-I 1012 W/m 15,9 C 26,7 C 27,4 km/h (4 Bft) 97,37 %
12.06.2017 11:58 27,9 C 23,9 C 48 % 1012,8 hPa 0,0 l/m 16,3 km/h (3 Bft) S 178 2 min 0,000 mm 7,2 UV-I 1040 W/m 15,9 C 26,7 C 30,6 km/h (5 Bft) 100,00 %
12.06.2017 12:00 28,0 C 23,9 C 50 % 1012,8 hPa 0,0 l/m 13,9 km/h (3 Bft) N-NW 335 2 min 0,000 mm 7,0 UV-I 1076 W/m 16,6 C 27,0 C 24,1 km/h (4 Bft) 98,00 %
12.06.2017 12:02 28,1 C 23,9 C 48 % 1012,7 hPa 0,0 l/m 9,5 km/h (2 Bft) W-SW 252 2 min 0,661 mm 5,6 UV-I 1125 W/m 16,0 C 27,7 C 20,9 km/h (4 Bft) 93,18 %
12.06.2017 12:04 28,0 C 23,9 C 49 % 1012,8 hPa 0,0 l/m 10,7 km/h (2 Bft) NW 304 2 min 0,000 mm 4,7 UV-I 530 W/m 16,3 C 27,4 C 17,7 km/h (3 Bft) 97,56 %
12.06.2017 12:06 27,8 C 23,9 C 50 % 1012,8 hPa 0,0 l/m 8,1 km/h (2 Bft) N-NW 333 0 min 0,000 mm 4,1 UV-I 437 W/m 16,4 C 27,5 C 19,3 km/h (3 Bft) 98,00 %
12.06.2017 12:08 27,6 C 23,9 C 51 % 1012,9 hPa 0,0 l/m 10,6 km/h (2 Bft) SW 236 0 min 0,000 mm 3,9 UV-I 423 W/m 16,5 C 27,0 C 22,5 km/h (4 Bft) 100,00 %
12.06.2017 12:10 27,3 C 23,9 C 51 % 1012,8 hPa 0,0 l/m 3,9 km/h (1 Bft) NW 315 0 min 0,000 mm 3,5 UV-I 372 W/m 16,3 C 27,3 C 9,7 km/h (2 Bft) 97,56 %
12.06.2017 12:12 27,1 C 23,9 C 53 % 1012,8 hPa 0,0 l/m 7,3 km/h (2 Bft) N-NW 328 0 min 0,000 mm 3,3 UV-I 314 W/m 16,7 C 26,9 C 14,5 km/h (3 Bft) 92,45 %
12.06.2017 12:14 26,9 C 23,9 C 54 % 1012,9 hPa 0,0 l/m 4,6 km/h (1 Bft) SW 226 0 min 0,000 mm 3,4 UV-I 318 W/m 16,8 C 26,9 C 8,0 km/h (2 Bft) 100,00 %
12.06.2017 12:16 26,9 C 23,9 C 54 % 1012,9 hPa 0,0 l/m 6,5 km/h (2 Bft) NW 319 0 min 0,000 mm 4,3 UV-I 375 W/m 16,8 C 26,9 C 16,1 km/h (3 Bft) 95,38 %
12.06.2017 12:18 26,9 C 23,9 C 54 % 1012,9 hPa 0,0 l/m 4,1 km/h (1 Bft) W 266 0 min 0,000 mm 5,1 UV-I 381 W/m 16,8 C 26,9 C 14,5 km/h (3 Bft) 98,00 %
12.06.2017 12:20 26,9 C 23,9 C 53 % 1013,0 hPa 0,0 l/m 8,4 km/h (2 Bft) W-NW 287 0 min 0,000 mm 4,0 UV-I 413 W/m 16,5 C 26,5 C 17,7 km/h (3 Bft) 100,00 %
12.06.2017 12:22 27,1 C 24,4 C 53 % 1012,9 hPa 0,0 l/m 6,0 km/h (2 Bft) W 263 0 min 0,000 mm 5,0 UV-I 418 W/m 16,7 C 27,1 C 12,9 km/h (3 Bft) 94,74 %
12.06.2017 12:24 27,2 C 23,9 C 53 % 1012,9 hPa 0,0 l/m 8,0 km/h (2 Bft) N-NO 20 2 min 0,000 mm 4,7 UV-I 493 W/m 16,8 C 26,9 C 17,7 km/h (3 Bft) 96,43 %
12.06.2017 12:26 27,3 C 23,9 C 53 % 1012,8 hPa 0,0 l/m 5,4 km/h (1 Bft) S-SW 205 0 min 0,000 mm 4,5 UV-I 480 W/m 16,9 C 27,3 C 12,9 km/h (3 Bft) 97,44 %
12.06.2017 12:28 27,3 C 23,9 C 53 % 1012,8 hPa 0,0 l/m 3,8 km/h (1 Bft) W 259 0 min 0,000 mm 4,7 UV-I 478 W/m 16,9 C 27,3 C 12,9 km/h (3 Bft) 94,55 %
12.06.2017 12:30 27,2 C 23,9 C 52 % 1012,8 hPa 0,0 l/m 5,8 km/h (2 Bft) SW 235 0 min 0,000 mm 3,9 UV-I 470 W/m 16,5 C 27,2 C 11,3 km/h (2 Bft) 97,22 %
12.06.2017 12:32 27,2 C 23,9 C 52 % 1012,9 hPa 0,0 l/m 8,5 km/h (2 Bft) W-SW 238 0 min 0,000 mm 3,6 UV-I 438 W/m 16,5 C 26,8 C 17,7 km/h (3 Bft) 94,00 %
12.06.2017 12:34 27,2 C 23,9 C 53 % 1012,8 hPa 0,0 l/m 5,4 km/h (1 Bft) W-NW 290 0 min 0,000 mm 3,7 UV-I 456 W/m 16,8 C 27,2 C 11,3 km/h (2 Bft) 94,34 %
12.06.2017 12:36 27,2 C 23,9 C 55 % 1012,7 hPa 0,0 l/m 5,8 km/h (2 Bft) W 263 0 min 0,000 mm 3,6 UV-I 453 W/m 17,4 C 27,2 C 16,1 km/h (3 Bft) 98,00 %
12.06.2017 12:38 27,2 C 24,4 C 54 % 1012,7 hPa 0,0 l/m 8,5 km/h (2 Bft) W 278 0 min 0,000 mm 3,8 UV-I 458 W/m 17,1 C 26,8 C 24,1 km/h (4 Bft) 92,00 %
12.06.2017 12:40 27,1 C 24,4 C 54 % 1012,8 hPa 0,0 l/m 5,6 km/h (1 Bft) W-NW 285 2 min 0,000 mm 4,2 UV-I 499 W/m 17,0 C 27,1 C 12,9 km/h (3 Bft) 94,74 %
12.06.2017 12:42 27,2 C 24,4 C 54 % 1012,8 hPa 0,0 l/m 7,1 km/h (2 Bft) W 280 2 min 0,000 mm 4,4 UV-I 527 W/m 17,1 C 27,1 C 12,9 km/h (3 Bft) 96,00 %
12.06.2017 12:44 27,3 C 24,4 C 53 % 1012,8 hPa 0,0 l/m 8,5 km/h (2 Bft) W 276 2 min 0,000 mm 4,3 UV-I 512 W/m 16,9 C 26,9 C 14,5 km/h (3 Bft) 95,74 %
12.06.2017 12:46 27,4 C 24,4 C 53 % 1012,7 hPa 0,0 l/m 8,1 km/h (2 Bft) SW 229 0 min 0,000 mm 4,0 UV-I 472 W/m 17,0 C 27,1 C 16,1 km/h (3 Bft) 94,00 %
12.06.2017 12:48 27,4 C 24,4 C 53 % 1012,7 hPa 0,0 l/m 5,6 km/h (1 Bft) SW 215 0 min 0,000 mm 3,5 UV-I 417 W/m 17,0 C 27,4 C 11,3 km/h (2 Bft) 92,68 %
12.06.2017 12:50 27,3 C 24,4 C 53 % 1012,7 hPa 0,0 l/m 6,9 km/h (2 Bft) W-SW 240 0 min 0,000 mm 3,2 UV-I 383 W/m 16,9 C 27,2 C 12,9 km/h (3 Bft) 92,45 %
12.06.2017 12:52 27,3 C 24,4 C 54 % 1012,8 hPa 0,0 l/m 6,1 km/h (2 Bft) S-SW 210 0 min 0,000 mm 3,4 UV-I 406 W/m 17,2 C 27,3 C 16,1 km/h (3 Bft) 97,37 %
12.06.2017 12:54 27,2 C 24,4 C 52 % 1012,7 hPa 0,0 l/m 10,6 km/h (2 Bft) W-SW 244 0 min 0,000 mm 3,4 UV-I 405 W/m 16,5 C 26,5 C 25,7 km/h (4 Bft) 100,00 %
12.06.2017 12:56 27,2 C 24,4 C 53 % 1012,7 hPa 0,0 l/m 8,4 km/h (2 Bft) W-SW 258 0 min 0,000 mm 3,6 UV-I 425 W/m 16,8 C 26,8 C 16,1 km/h (3 Bft) 93,15 %
12.06.2017 12:58 27,1 C 24,4 C 53 % 1012,7 hPa 0,0 l/m 10,1 km/h (2 Bft) W-SW 257 2 min 0,000 mm 3,6 UV-I 507 W/m 16,7 C 26,5 C 17,7 km/h (3 Bft) 92,86 %
12.06.2017 13:00 27,1 C 24,4 C 52 % 1012,7 hPa 0,0 l/m 10,4 km/h (2 Bft) W-SW 240 0 min 0,000 mm 3,1 UV-I 374 W/m 16,4 C 26,4 C 19,3 km/h (3 Bft) 95,74 %
12.06.2017 13:02 27,1 C 24,4 C 52 % 1012,7 hPa 0,0 l/m 14,3 km/h (3 Bft) W-SW 252 0 min 0,381 mm 3,0 UV-I 359 W/m 16,4 C 25,9 C 25,7 km/h (4 Bft) 95,92 %
12.06.2017 13:04 27,1 C 24,4 C 53 % 1012,7 hPa 0,0 l/m 9,1 km/h (2 Bft) W-SW 246 0 min 0,000 mm 3,0 UV-I 344 W/m 16,7 C 26,6 C 14,5 km/h (3 Bft) 100,00 %
12.06.2017 13:06 27,1 C 24,4 C 53 % 1012,7 hPa 0,0 l/m 9,6 km/h (2 Bft) W 281 0 min 0,000 mm 3,0 UV-I 343 W/m 16,7 C 26,5 C 16,1 km/h (3 Bft) 94,29 %
12.06.2017 13:08 27,0 C 24,4 C 53 % 1012,7 hPa 0,0 l/m 9,9 km/h (2 Bft) W-SW 252 0 min 0,000 mm 3,3 UV-I 380 W/m 16,6 C 26,4 C 19,3 km/h (3 Bft) 97,73 %
12.06.2017 13:10 27,1 C 24,4 C 54 % 1012,8 hPa 0,0 l/m 9,9 km/h (2 Bft) W 259 0 min 0,000 mm 3,4 UV-I 400 W/m 17,0 C 26,5 C 24,1 km/h (4 Bft) 100,00 %
12.06.2017 13:12 27,1 C 24,4 C 53 % 1012,8 hPa 0,0 l/m 7,8 km/h (2 Bft) W-SW 254 0 min 0,000 mm 3,5 UV-I 443 W/m 16,7 C 26,8 C 14,5 km/h (3 Bft) 94,34 %
12.06.2017 13:14 27,2 C 24,4 C 54 % 1012,7 hPa 0,0 l/m 9,9 km/h (2 Bft) W 262 0 min 0,000 mm 3,5 UV-I 442 W/m 17,1 C 26,6 C 16,1 km/h (3 Bft) 95,12 %
12.06.2017 13:16 27,2 C 24,4 C 53 % 1012,8 hPa 0,0 l/m 13,8 km/h (3 Bft) W 259 0 min 0,000 mm 3,0 UV-I 374 W/m 16,8 C 26,1 C 22,5 km/h (4 Bft) 100,00 %
12.06.2017 13:18 27,2 C 24,4 C 53 % 1012,7 hPa 0,0 l/m 8,5 km/h (2 Bft) W 259 0 min 0,000 mm 2,7 UV-I 342 W/m 16,8 C 26,8 C 14,5 km/h (3 Bft) 100,00 %
12.06.2017 13:20 27,2 C 24,4 C 53 % 1012,7 hPa 0,0 l/m 8,8 km/h (2 Bft) W 267 0 min 0,000 mm 3,0 UV-I 373 W/m 16,8 C 26,8 C 12,9 km/h (3 Bft) 98,21 %
12.06.2017 13:22 27,2 C 24,4 C 53 % 1012,6 hPa 0,0 l/m 13,7 km/h (3 Bft) W-SW 251 0 min 0,000 mm 3,2 UV-I 385 W/m 16,8 C 26,1 C 20,9 km/h (4 Bft) 97,56 %
12.06.2017 13:24 27,2 C 24,4 C 52 % 1012,6 hPa 0,0 l/m 14,6 km/h (3 Bft) W 269 0 min 0,000 mm 3,8 UV-I 458 W/m 16,5 C 26,0 C 20,9 km/h (4 Bft) 97,73 %
12.06.2017 13:26 27,2 C 24,4 C 52 % 1012,6 hPa 0,0 l/m 12,1 km/h (2 Bft) W 281 0 min 0,000 mm 4,1 UV-I 470 W/m 16,5 C 26,3 C 19,3 km/h (3 Bft) 100,00 %
12.06.2017 13:28 27,3 C 24,4 C 52 % 1012,7 hPa 0,0 l/m 10,1 km/h (2 Bft) W 271 0 min 0,000 mm 4,4 UV-I 483 W/m 16,6 C 26,7 C 16,1 km/h (3 Bft) 97,87 %
12.06.2017 13:30 27,3 C 24,4 C 52 % 1012,6 hPa 0,0 l/m 12,2 km/h (2 Bft) W-SW 239 2 min 0,000 mm 4,9 UV-I 550 W/m 16,6 C 26,4 C 17,7 km/h (3 Bft) 100,00 %
12.06.2017 13:32 27,5 C 24,4 C 52 % 1012,6 hPa 0,0 l/m 10,4 km/h (2 Bft) W-SW 239 2 min 0,000 mm 4,8 UV-I 630 W/m 16,7 C 26,9 C 19,3 km/h (3 Bft) 97,56 %
12.06.2017 13:34 27,6 C 24,4 C 51 % 1012,6 hPa 0,0 l/m 14,1 km/h (3 Bft) W-SW 247 0 min 0,000 mm 3,7 UV-I 446 W/m 16,5 C 26,5 C 20,9 km/h (4 Bft) 100,00 %
12.06.2017 13:36 27,6 C 24,4 C 52 % 1012,6 hPa 0,0 l/m 8,5 km/h (2 Bft) W-SW 248 0 min 0,000 mm 3,8 UV-I 429 W/m 16,8 C 27,3 C 14,5 km/h (3 Bft) 96,43 %
12.06.2017 13:38 27,5 C 24,4 C 51 % 1012,6 hPa 0,0 l/m 8,9 km/h (2 Bft) NW 306 0 min 0,000 mm 3,6 UV-I 385 W/m 16,4 C 27,1 C 17,7 km/h (3 Bft) 96,00 %
12.06.2017 13:40 27,5 C 24,4 C 51 % 1012,6 hPa 0,0 l/m 13,9 km/h (3 Bft) W-SW 256 0 min 0,000 mm 3,9 UV-I 427 W/m 16,4 C 26,5 C 24,1 km/h (4 Bft) 100,00 %
12.06.2017 13:42 27,4 C 24,4 C 52 % 1012,6 hPa 0,0 l/m 16,5 km/h (3 Bft) W-SW 242 0 min 0,000 mm 3,1 UV-I 392 W/m 16,7 C 26,1 C 22,5 km/h (4 Bft) 98,11 %
12.06.2017 13:44 27,4 C 24,4 C 52 % 1012,6 hPa 0,0 l/m 14,2 km/h (3 Bft) W-SW 248 0 min 0,000 mm 3,0 UV-I 372 W/m 16,7 C 26,3 C 19,3 km/h (3 Bft) 98,00 %
12.06.2017 13:46 27,4 C 24,4 C 53 % 1012,6 hPa 0,0 l/m 11,6 km/h (2 Bft) SW 236 0 min 0,000 mm 2,9 UV-I 372 W/m 17,0 C 26,6 C 24,1 km/h (4 Bft) 100,00 %
12.06.2017 13:48 27,4 C 24,4 C 53 % 1012,6 hPa 0,0 l/m 12,6 km/h (3 Bft) W-SW 247 0 min 0,000 mm 2,7 UV-I 344 W/m 17,0 C 26,5 C 20,9 km/h (4 Bft) 96,15 %
12.06.2017 13:50 27,4 C 24,4 C 51 % 1012,5 hPa 0,0 l/m 20,3 km/h (4 Bft) W-SW 247 0 min 0,000 mm 2,2 UV-I 282 W/m 16,3 C 25,7 C 41,8 km/h (6 Bft) 100,00 %
12.06.2017 13:52 27,3 C 24,4 C 51 % 1012,6 hPa 0,0 l/m 19,7 km/h (3 Bft) W-NW 283 0 min 0,000 mm 1,7 UV-I 219 W/m 16,3 C 25,7 C 30,6 km/h (5 Bft) 97,56 %
12.06.2017 13:54 27,2 C 24,4 C 51 % 1012,6 hPa 0,0 l/m 14,2 km/h (3 Bft) W-SW 257 0 min 0,000 mm 1,4 UV-I 185 W/m 16,2 C 26,1 C 20,9 km/h (4 Bft) 100,00 %
12.06.2017 13:56 27,1 C 24,4 C 51 % 1012,5 hPa 0,0 l/m 15,8 km/h (3 Bft) W-SW 250 0 min 0,000 mm 1,8 UV-I 225 W/m 16,1 C 25,8 C 22,5 km/h (4 Bft) 98,21 %
12.06.2017 13:58 26,9 C 24,4 C 51 % 1012,6 hPa 0,0 l/m 18,5 km/h (3 Bft) W 263 0 min 0,000 mm 1,8 UV-I 229 W/m 15,9 C 25,3 C 25,7 km/h (4 Bft) 100,00 %
12.06.2017 14:00 26,9 C 24,4 C 52 % 1012,5 hPa 0,0 l/m 19,1 km/h (3 Bft) W-SW 257 0 min 0,355 mm 1,7 UV-I 213 W/m 16,2 C 25,2 C 32,2 km/h (5 Bft) 100,00 %
12.06.2017 14:02 26,8 C 24,4 C 52 % 1012,5 hPa 0,0 l/m 18,1 km/h (3 Bft) W-SW 244 0 min 0,000 mm 1,9 UV-I 235 W/m 16,1 C 25,2 C 25,7 km/h (4 Bft) 98,53 %
12.06.2017 14:04 26,8 C 24,4 C 53 % 1012,5 hPa 0,0 l/m 15,8 km/h (3 Bft) W-SW 239 0 min 0,000 mm 2,6 UV-I 309 W/m 16,4 C 25,4 C 20,9 km/h (4 Bft) 100,00 %
12.06.2017 14:06 26,8 C 24,4 C 53 % 1012,6 hPa 0,0 l/m 14,2 km/h (3 Bft) W-SW 242 0 min 0,000 mm 2,5 UV-I 303 W/m 16,4 C 25,6 C 22,5 km/h (4 Bft) 100,00 %
12.06.2017 14:08 26,9 C 24,4 C 52 % 1012,6 hPa 0,0 l/m 14,3 km/h (3 Bft) W-NW 303 0 min 0,000 mm 2,3 UV-I 286 W/m 16,2 C 25,7 C 25,7 km/h (4 Bft) 97,73 %
12.06.2017 14:10 26,9 C 24,4 C 52 % 1012,6 hPa 0,0 l/m 11,4 km/h (2 Bft) W-SW 242 0 min 0,000 mm 2,4 UV-I 306 W/m 16,2 C 26,1 C 17,7 km/h (3 Bft) 96,61 %
12.06.2017 14:12 26,9 C 24,4 C 52 % 1012,5 hPa 0,0 l/m 13,8 km/h (3 Bft) W-SW 244 0 min 0,000 mm 2,7 UV-I 342 W/m 16,2 C 25,7 C 37,0 km/h (5 Bft) 97,87 %
12.06.2017 14:14 26,9 C 24,4 C 50 % 1012,6 hPa 0,0 l/m 13,1 km/h (3 Bft) W-NW 283 0 min 0,000 mm 2,8 UV-I 359 W/m 15,6 C 25,8 C 24,1 km/h (4 Bft) 94,74 %
12.06.2017 14:16 26,8 C 24,4 C 51 % 1012,5 hPa 0,0 l/m 10,5 km/h (2 Bft) W 269 0 min 0,000 mm 2,1 UV-I 262 W/m 15,8 C 26,1 C 16,1 km/h (3 Bft) 98,00 %
12.06.2017 14:18 26,7 C 24,4 C 51 % 1012,6 hPa 0,0 l/m 11,2 km/h (2 Bft) S-SW 205 0 min 0,000 mm 1,2 UV-I 162 W/m 15,7 C 25,9 C 20,9 km/h (4 Bft) 96,00 %
12.06.2017 14:20 26,6 C 24,4 C 52 % 1012,6 hPa 0,0 l/m 10,6 km/h (2 Bft) W 265 0 min 0,000 mm 0,8 UV-I 118 W/m 15,9 C 25,8 C 17,7 km/h (3 Bft) 97,37 %
12.06.2017 14:22 26,4 C 24,4 C 53 % 1012,6 hPa 0,0 l/m 10,0 km/h (2 Bft) W 263 0 min 0,000 mm 0,9 UV-I 119 W/m 16,0 C 25,7 C 19,3 km/h (3 Bft) 96,43 %
12.06.2017 14:24 26,3 C 24,4 C 52 % 1012,6 hPa 0,0 l/m 15,3 km/h (3 Bft) W 281 0 min 0,000 mm 0,8 UV-I 109 W/m 15,6 C 24,8 C 32,2 km/h (5 Bft) 95,24 %
12.06.2017 14:26 26,2 C 24,4 C 52 % 1012,6 hPa 0,0 l/m 10,7 km/h (2 Bft) N-NW 336 0 min 0,000 mm 0,8 UV-I 105 W/m 15,6 C 25,4 C 17,7 km/h (3 Bft) 98,00 %
12.06.2017 14:28 26,1 C 24,4 C 53 % 1012,6 hPa 0,0 l/m 11,5 km/h (2 Bft) W 271 0 min 0,000 mm 0,8 UV-I 109 W/m 15,8 C 25,1 C 19,3 km/h (3 Bft) 94,00 %
12.06.2017 14:30 26,0 C 24,4 C 53 % 1012,6 hPa 0,0 l/m 10,9 km/h (2 Bft) W-SW 240 0 min 0,000 mm 0,8 UV-I 107 W/m 15,7 C 25,1 C 24,1 km/h (4 Bft) 97,37 %
12.06.2017 14:32 25,9 C 24,4 C 54 % 1012,7 hPa 0,0 l/m 14,2 km/h (3 Bft) W 270 0 min 0,000 mm 0,8 UV-I 101 W/m 15,9 C 24,5 C 24,1 km/h (4 Bft) 92,45 %
12.06.2017 14:34 25,8 C 24,4 C 54 % 1012,8 hPa 0,0 l/m 15,2 km/h (3 Bft) W 262 0 min 0,000 mm 0,6 UV-I 89 W/m 15,8 C 24,3 C 22,5 km/h (4 Bft) 96,15 %
12.06.2017 14:36 25,8 C 24,4 C 54 % 1012,7 hPa 0,0 l/m 10,5 km/h (2 Bft) W 277 0 min 0,000 mm 0,5 UV-I 81 W/m 15,8 C 25,0 C 20,9 km/h (4 Bft) 94,12 %
12.06.2017 14:38 25,7 C 24,4 C 55 % 1012,8 hPa 0,0 l/m 11,0 km/h (2 Bft) W 274 0 min 0,000 mm 0,5 UV-I 84 W/m 16,0 C 24,8 C 17,7 km/h (3 Bft) 93,18 %
12.06.2017 14:40 25,7 C 24,4 C 57 % 1012,8 hPa 0,0 l/m 10,5 km/h (2 Bft) W-NW 284 0 min 0,000 mm 0,8 UV-I 118 W/m 16,5 C 24,8 C 19,3 km/h (3 Bft) 95,74 %
12.06.2017 14:42 25,6 C 24,4 C 59 % 1012,9 hPa 0,0 l/m 10,2 km/h (2 Bft) W-NW 301 0 min 0,000 mm 1,4 UV-I 180 W/m 17,0 C 24,8 C 20,9 km/h (4 Bft) 90,00 %
12.06.2017 14:44 25,3 C 24,4 C 61 % 1012,9 hPa 0,0 l/m 8,8 km/h (2 Bft) W 269 0 min 0,000 mm 2,6 UV-I 205 W/m 17,2 C 24,7 C 17,7 km/h (3 Bft) 96,00 %
12.06.2017 14:46 25,1 C 24,4 C 63 % 1012,8 hPa 0,0 l/m 7,5 km/h (2 Bft) W 265 0 min 0,000 mm 2,1 UV-I 272 W/m 17,5 C 24,8 C 17,7 km/h (3 Bft) 95,12 %
12.06.2017 14:48 24,8 C 24,4 C 66 % 1012,8 hPa 0,0 l/m 6,2 km/h (2 Bft) SW 232 0 min 0,000 mm 1,7 UV-I 210 W/m 18,0 C 24,8 C 12,9 km/h (3 Bft) 94,00 %
12.06.2017 14:50 24,7 C 24,4 C 64 % 1012,8 hPa 0,0 l/m 9,6 km/h (2 Bft) W-SW 237 0 min 0,000 mm 1,3 UV-I 178 W/m 17,4 C 23,9 C 16,1 km/h (3 Bft) 94,74 %
12.06.2017 14:52 24,6 C 24,4 C 65 % 1012,8 hPa 0,0 l/m 5,3 km/h (1 Bft) W 276 0 min 0,000 mm 1,4 UV-I 190 W/m 17,6 C 24,6 C 9,7 km/h (2 Bft) 96,23 %
12.06.2017 14:54 24,6 C 24,4 C 64 % 1012,8 hPa 0,0 l/m 8,0 km/h (2 Bft) W-SW 246 0 min 0,000 mm 1,5 UV-I 200 W/m 17,3 C 24,2 C 16,1 km/h (3 Bft) 89,47 %
12.06.2017 14:56 24,6 C 24,4 C 64 % 1012,8 hPa 0,0 l/m 7,0 km/h (2 Bft) W-SW 244 0 min 0,000 mm 1,4 UV-I 188 W/m 17,3 C 24,4 C 16,1 km/h (3 Bft) 96,23 %
12.06.2017 14:58 24,6 C 24,4 C 65 % 1012,8 hPa 0,0 l/m 5,5 km/h (1 Bft) W-SW 256 0 min 0,000 mm 1,4 UV-I 182 W/m 17,6 C 24,6 C 11,3 km/h (2 Bft) 91,67 %
12.06.2017 15:00 24,6 C 24,4 C 65 % 1012,8 hPa 0,0 l/m 4,3 km/h (1 Bft) W 273 0 min 0,204 mm 1,2 UV-I 164 W/m 17,6 C 24,6 C 12,9 km/h (3 Bft) 93,10 %
12.06.2017 15:02 24,6 C 24,4 C 65 % 1012,8 hPa 0,0 l/m 7,6 km/h (2 Bft) W 259 0 min 0,000 mm 1,2 UV-I 155 W/m 17,6 C 24,3 C 12,9 km/h (3 Bft) 94,34 %
12.06.2017 15:04 24,6 C 24,4 C 65 % 1012,8 hPa 0,0 l/m 5,9 km/h (2 Bft) W-SW 250 0 min 0,000 mm 1,2 UV-I 159 W/m 17,6 C 24,6 C 12,9 km/h (3 Bft) 93,18 %
12.06.2017 15:06 24,7 C 24,4 C 65 % 1012,8 hPa 0,0 l/m 5,3 km/h (1 Bft) W-NW 296 0 min 0,000 mm 1,2 UV-I 165 W/m 17,7 C 24,7 C 12,9 km/h (3 Bft) 95,24 %
12.06.2017 15:08 24,7 C 24,4 C 64 % 1012,7 hPa 0,0 l/m 4,7 km/h (1 Bft) W-NW 290 0 min 0,000 mm 1,4 UV-I 187 W/m 17,4 C 24,7 C 11,3 km/h (2 Bft) 95,74 %
12.06.2017 15:10 24,7 C 24,4 C 66 % 1012,8 hPa 0,0 l/m 2,4 km/h (1 Bft) W 269 0 min 0,000 mm 1,3 UV-I 184 W/m 17,9 C 24,7 C 4,8 km/h (1 Bft) 96,00 %
12.06.2017 15:12 24,6 C 24,4 C 66 % 1012,8 hPa 0,0 l/m 1,8 km/h (1 Bft) W 272 0 min 0,000 mm 1,2 UV-I 162 W/m 17,8 C 24,6 C 4,8 km/h (1 Bft) 96,00 %
12.06.2017 15:14 24,7 C 24,4 C 64 % 1012,8 hPa 0,0 l/m 4,0 km/h (1 Bft) W-NW 286 0 min 0,000 mm 0,9 UV-I 130 W/m 17,4 C 24,7 C 8,0 km/h (2 Bft) 94,74 %
12.06.2017 15:16 24,7 C 24,4 C 63 % 1012,8 hPa 0,0 l/m 5,8 km/h (2 Bft) W-SW 247 0 min 0,000 mm 0,9 UV-I 139 W/m 17,2 C 24,7 C 11,3 km/h (2 Bft) 96,23 %
12.06.2017 15:18 24,7 C 24,4 C 62 % 1012,8 hPa 0,0 l/m 5,3 km/h (1 Bft) W-NW 289 0 min 0,000 mm 1,2 UV-I 180 W/m 16,9 C 24,7 C 12,9 km/h (3 Bft) 95,45 %
12.06.2017 15:20 24,8 C 24,4 C 63 % 1012,7 hPa 0,0 l/m 2,9 km/h (1 Bft) W-SW 242 0 min 0,000 mm 1,5 UV-I 223 W/m 17,3 C 24,8 C 8,0 km/h (2 Bft) 98,11 %
12.06.2017 15:22 24,8 C 24,4 C 64 % 1012,7 hPa 0,0 l/m 3,1 km/h (1 Bft) W-NW 284 0 min 0,000 mm 1,8 UV-I 259 W/m 17,5 C 24,8 C 8,0 km/h (2 Bft) 100,00 %
12.06.2017 15:24 24,9 C 24,4 C 62 % 1012,7 hPa 0,0 l/m 3,4 km/h (1 Bft) W 273 0 min 0,000 mm 2,2 UV-I 315 W/m 17,1 C 24,9 C 4,8 km/h (1 Bft) 98,08 %
12.06.2017 15:26 25,1 C 24,4 C 63 % 1012,7 hPa 0,0 l/m 3,6 km/h (1 Bft) W-NW 285 0 min 0,000 mm 2,8 UV-I 398 W/m 17,5 C 25,1 C 6,4 km/h (2 Bft) 100,00 %
12.06.2017 15:28 25,3 C 24,4 C 60 % 1012,7 hPa 0,0 l/m 5,0 km/h (1 Bft) W-SW 237 0 min 0,000 mm 3,0 UV-I 410 W/m 17,0 C 25,3 C 8,0 km/h (2 Bft) 97,56 %
12.06.2017 15:30 25,4 C 24,4 C 61 % 1012,6 hPa 0,0 l/m 4,9 km/h (1 Bft) SW 220 0 min 0,000 mm 3,1 UV-I 412 W/m 17,3 C 25,4 C 11,3 km/h (2 Bft) 100,00 %
12.06.2017 15:32 25,6 C 24,4 C 60 % 1012,6 hPa 0,0 l/m 5,6 km/h (1 Bft) SW 234 0 min 0,000 mm 3,2 UV-I 408 W/m 17,2 C 25,6 C 11,3 km/h (2 Bft) 100,00 %
12.06.2017 15:34 25,7 C 24,4 C 61 % 1012,6 hPa 0,0 l/m 4,3 km/h (1 Bft) SW 227 0 min 0,000 mm 3,0 UV-I 377 W/m 17,6 C 25,7 C 8,0 km/h (2 Bft) 98,44 %
12.06.2017 15:36 26,0 C 24,4 C 64 % 1012,6 hPa 0,0 l/m 2,7 km/h (1 Bft) SW 231 2 min 0,000 mm 3,9 UV-I 462 W/m 18,6 C 26,0 C 4,8 km/h (1 Bft) 100,00 %
12.06.2017 15:38 26,3 C 24,4 C 61 % 1012,5 hPa 0,0 l/m 4,8 km/h (1 Bft) SW 229 2 min 0,000 mm 3,2 UV-I 474 W/m 18,2 C 26,3 C 8,0 km/h (2 Bft) 100,00 %
12.06.2017 15:40 26,4 C 24,4 C 62 % 1012,5 hPa 0,0 l/m 6,7 km/h (2 Bft) S-SW 195 0 min 0,000 mm 3,4 UV-I 414 W/m 18,5 C 26,3 C 11,3 km/h (2 Bft) 97,22 %
12.06.2017 15:42 26,6 C 24,4 C 61 % 1012,5 hPa 0,0 l/m 7,1 km/h (2 Bft) S-SW 205 2 min 0,000 mm 3,2 UV-I 646 W/m 18,4 C 26,5 C 11,3 km/h (2 Bft) 100,00 %
12.06.2017 15:44 26,6 C 24,4 C 59 % 1012,4 hPa 0,0 l/m 6,8 km/h (2 Bft) W-SW 246 2 min 0,000 mm 2,4 UV-I 504 W/m 17,9 C 26,5 C 11,3 km/h (2 Bft) 96,36 %
12.06.2017 15:46 26,5 C 24,4 C 57 % 1012,4 hPa 0,0 l/m 3,6 km/h (1 Bft) W-NW 292 0 min 0,000 mm 2,2 UV-I 296 W/m 17,3 C 26,5 C 6,4 km/h (2 Bft) 100,00 %
12.06.2017 15:48 26,3 C 24,4 C 60 % 1012,4 hPa 0,0 l/m 4,1 km/h (1 Bft) SW 223 0 min 0,000 mm 2,2 UV-I 304 W/m 17,9 C 26,3 C 8,0 km/h (2 Bft) 98,21 %
12.06.2017 15:50 26,3 C 24,4 C 60 % 1012,4 hPa 0,0 l/m 4,1 km/h (1 Bft) W-SW 257 0 min 0,000 mm 2,4 UV-I 376 W/m 17,9 C 26,3 C 6,4 km/h (2 Bft) 97,56 %
12.06.2017 15:52 26,3 C 24,4 C 60 % 1012,4 hPa 0,0 l/m 9,1 km/h (2 Bft) W-SW 250 0 min 0,000 mm 2,6 UV-I 384 W/m 17,9 C 25,8 C 14,5 km/h (3 Bft) 100,00 %
12.06.2017 15:54 26,3 C 24,4 C 58 % 1012,4 hPa 0,0 l/m 9,4 km/h (2 Bft) SW 225 0 min 0,000 mm 3,1 UV-I 401 W/m 17,4 C 25,7 C 16,1 km/h (3 Bft) 98,00 %
12.06.2017 15:56 26,3 C 24,4 C 58 % 1012,4 hPa 0,0 l/m 6,4 km/h (2 Bft) W-SW 258 2 min 0,000 mm 3,5 UV-I 439 W/m 17,4 C 26,3 C 14,5 km/h (3 Bft) 97,87 %
12.06.2017 15:58 26,4 C 24,4 C 58 % 1012,4 hPa 0,0 l/m 9,4 km/h (2 Bft) SW 232 2 min 0,000 mm 4,1 UV-I 588 W/m 17,5 C 25,8 C 14,5 km/h (3 Bft) 97,56 %
12.06.2017 16:00 26,6 C 24,4 C 57 % 1012,4 hPa 0,0 l/m 11,3 km/h (2 Bft) W 262 2 min 0,279 mm 3,8 UV-I 710 W/m 17,4 C 25,7 C 16,1 km/h (3 Bft) 98,21 %
12.06.2017 16:02 26,8 C 24,4 C 56 % 1012,3 hPa 0,0 l/m 9,3 km/h (2 Bft) SW 230 2 min 0,000 mm 3,8 UV-I 715 W/m 17,3 C 26,3 C 16,1 km/h (3 Bft) 100,00 %
12.06.2017 16:04 26,8 C 24,4 C 55 % 1012,3 hPa 0,0 l/m 10,3 km/h (2 Bft) W-SW 241 2 min 0,000 mm 3,9 UV-I 700 W/m 17,0 C 26,1 C 14,5 km/h (3 Bft) 98,31 %
12.06.2017 16:06 26,8 C 24,4 C 55 % 1012,3 hPa 0,0 l/m 5,6 km/h (1 Bft) S-SW 210 2 min 0,000 mm 3,8 UV-I 687 W/m 17,0 C 26,8 C 11,3 km/h (2 Bft) 100,00 %
12.06.2017 16:08 27,1 C 24,4 C 56 % 1012,3 hPa 0,0 l/m 7,2 km/h (2 Bft) SW 229 2 min 0,000 mm 3,6 UV-I 681 W/m 17,5 C 27,0 C 12,9 km/h (3 Bft) 98,00 %
12.06.2017 16:10 27,2 C 24,4 C 55 % 1012,3 hPa 0,0 l/m 9,9 km/h (2 Bft) W-SW 237 2 min 0,000 mm 3,6 UV-I 667 W/m 17,4 C 26,6 C 17,7 km/h (3 Bft) 100,00 %
12.06.2017 16:12 27,3 C 24,4 C 55 % 1012,3 hPa 0,0 l/m 9,4 km/h (2 Bft) SW 225 2 min 0,000 mm 3,7 UV-I 702 W/m 17,4 C 26,8 C 16,1 km/h (3 Bft) 98,00 %
12.06.2017 16:14 27,3 C 24,4 C 53 % 1012,2 hPa 0,0 l/m 12,2 km/h (2 Bft) S-SW 209 2 min 0,000 mm 3,6 UV-I 696 W/m 16,9 C 26,4 C 17,7 km/h (3 Bft) 100,00 %
12.06.2017 16:16 27,3 C 24,4 C 54 % 1012,2 hPa 0,0 l/m 9,4 km/h (2 Bft) W-SW 242 2 min 0,000 mm 3,6 UV-I 683 W/m 17,2 C 26,8 C 16,1 km/h (3 Bft) 100,00 %
12.06.2017 16:18 27,3 C 24,4 C 54 % 1012,2 hPa 0,0 l/m 8,1 km/h (2 Bft) SW 233 2 min 0,000 mm 3,5 UV-I 692 W/m 17,2 C 27,0 C 14,5 km/h (3 Bft) 100,00 %
12.06.2017 16:20 27,5 C 24,4 C 54 % 1012,2 hPa 0,0 l/m 9,8 km/h (2 Bft) SW 223 2 min 0,000 mm 3,3 UV-I 680 W/m 17,3 C 27,0 C 19,3 km/h (3 Bft) 100,00 %
12.06.2017 16:23 27,5 C 24,4 C 55 % 1012,1 hPa 0,0 l/m 7,9 km/h (2 Bft) SW 215 3 min 0,000 mm 3,3 UV-I 691 W/m 17,6 C 27,2 C 14,5 km/h (3 Bft) 96,92 %
12.06.2017 16:24 27,6 C 24,4 C 54 % 1012,1 hPa 0,0 l/m 13,4 km/h (3 Bft) SW 230 1 min 0,000 mm 3,3 UV-I 640 W/m 17,4 C 26,6 C 17,7 km/h (3 Bft) 100,00 %
12.06.2017 16:26 27,6 C 24,4 C 54 % 1012,0 hPa 0,0 l/m 9,0 km/h (2 Bft) SW 232 2 min 0,000 mm 3,2 UV-I 630 W/m 17,4 C 27,2 C 14,5 km/h (3 Bft) 95,83 %
12.06.2017 16:28 27,6 C 24,4 C 56 % 1011,9 hPa 0,0 l/m 7,8 km/h (2 Bft) W-SW 240 2 min 0,000 mm 3,1 UV-I 612 W/m 18,0 C 27,4 C 12,9 km/h (3 Bft) 100,00 %
12.06.2017 16:30 27,6 C 24,4 C 55 % 1011,9 hPa 0,0 l/m 7,1 km/h (2 Bft) W-SW 257 2 min 0,000 mm 3,1 UV-I 640 W/m 17,7 C 27,5 C 12,9 km/h (3 Bft) 94,64 %
12.06.2017 16:32 27,6 C 24,4 C 56 % 1011,9 hPa 0,0 l/m 8,2 km/h (2 Bft) SW 229 2 min 0,000 mm 3,2 UV-I 670 W/m 18,0 C 27,3 C 14,5 km/h (3 Bft) 97,56 %
12.06.2017 16:34 27,7 C 24,4 C 54 % 1011,9 hPa 0,0 l/m 9,0 km/h (2 Bft) W-SW 248 2 min 0,000 mm 3,1 UV-I 640 W/m 17,5 C 27,3 C 16,1 km/h (3 Bft) 95,12 %
12.06.2017 16:36 27,7 C 24,4 C 52 % 1011,9 hPa 0,0 l/m 9,8 km/h (2 Bft) W-SW 248 2 min 0,000 mm 3,0 UV-I 645 W/m 16,9 C 27,2 C 14,5 km/h (3 Bft) 96,61 %
12.06.2017 16:38 27,8 C 24,4 C 53 % 1011,8 hPa 0,0 l/m 7,8 km/h (2 Bft) W-SW 257 2 min 0,000 mm 2,9 UV-I 619 W/m 17,3 C 27,6 C 14,5 km/h (3 Bft) 97,37 %
12.06.2017 16:40 28,0 C 24,4 C 55 % 1011,9 hPa 0,0 l/m 10,2 km/h (2 Bft) W-SW 249 2 min 0,000 mm 3,0 UV-I 695 W/m 18,1 C 27,5 C 20,9 km/h (4 Bft) 96,23 %
12.06.2017 16:42 28,0 C 24,4 C 52 % 1011,8 hPa 0,0 l/m 15,9 km/h (3 Bft) W 263 2 min 0,000 mm 2,6 UV-I 684 W/m 17,2 C 26,9 C 22,5 km/h (4 Bft) 96,00 %
12.06.2017 16:44 27,9 C 24,4 C 53 % 1011,9 hPa 0,0 l/m 14,4 km/h (3 Bft) W-SW 256 0 min 0,000 mm 2,2 UV-I 341 W/m 17,4 C 26,9 C 22,5 km/h (4 Bft) 92,11 %
12.06.2017 16:46 27,7 C 24,4 C 54 % 1011,9 hPa 0,0 l/m 11,6 km/h (2 Bft) W 261 2 min 0,000 mm 2,2 UV-I 367 W/m 17,5 C 26,9 C 19,3 km/h (3 Bft) 93,48 %
12.06.2017 16:48 27,6 C 24,4 C 52 % 1011,9 hPa 0,0 l/m 10,5 km/h (2 Bft) W-SW 254 2 min 0,000 mm 2,1 UV-I 396 W/m 16,8 C 27,0 C 19,3 km/h (3 Bft) 96,00 %
12.06.2017 16:50 27,4 C 24,4 C 54 % 1011,9 hPa 0,0 l/m 8,9 km/h (2 Bft) W-NW 294 2 min 0,000 mm 2,3 UV-I 345 W/m 17,3 C 27,0 C 19,3 km/h (3 Bft) 96,23 %
12.06.2017 16:53 27,4 C 24,4 C 53 % 1011,9 hPa 0,0 l/m 8,9 km/h (2 Bft) SW 235 0 min 0,000 mm 2,3 UV-I 338 W/m 17,0 C 27,0 C 20,9 km/h (4 Bft) 95,95 %
12.06.2017 16:54 27,4 C 24,4 C 53 % 1011,9 hPa 0,0 l/m 6,9 km/h (2 Bft) SW 232 1 min 0,000 mm 2,4 UV-I 338 W/m 17,0 C 27,3 C 12,9 km/h (3 Bft) 100,00 %
12.06.2017 16:56 27,6 C 24,4 C 54 % 1011,9 hPa 0,0 l/m 6,9 km/h (2 Bft) W-NW 293 2 min 0,000 mm 2,3 UV-I 556 W/m 17,4 C 27,5 C 12,9 km/h (3 Bft) 98,11 %
12.06.2017 16:58 27,7 C 24,4 C 54 % 1011,9 hPa 0,0 l/m 7,2 km/h (2 Bft) W 271 2 min 0,000 mm 2,4 UV-I 618 W/m 17,5 C 27,6 C 14,5 km/h (3 Bft) 94,00 %
12.06.2017 17:00 27,7 C 24,4 C 53 % 1011,9 hPa 0,0 l/m 11,5 km/h (2 Bft) W-SW 254 2 min 0,000 mm 2,2 UV-I 600 W/m 17,2 C 27,0 C 17,7 km/h (3 Bft) 96,30 %
12.06.2017 17:02 27,6 C 24,4 C 54 % 1011,9 hPa 0,0 l/m 5,0 km/h (1 Bft) SW 217 0 min 0,457 mm 1,6 UV-I 227 W/m 17,4 C 27,6 C 9,7 km/h (2 Bft) 98,11 %
12.06.2017 17:04 27,6 C 24,4 C 54 % 1012,0 hPa 0,0 l/m 11,5 km/h (2 Bft) W-SW 245 0 min 0,000 mm 1,4 UV-I 198 W/m 17,4 C 26,8 C 25,7 km/h (4 Bft) 94,92 %
12.06.2017 17:06 27,4 C 24,4 C 53 % 1012,1 hPa 0,0 l/m 15,6 km/h (3 Bft) W-SW 242 0 min 0,000 mm 1,4 UV-I 215 W/m 17,0 C 26,2 C 22,5 km/h (4 Bft) 100,00 %
12.06.2017 17:08 27,2 C 24,4 C 54 % 1012,0 hPa 0,0 l/m 8,0 km/h (2 Bft) W 271 0 min 0,000 mm 1,3 UV-I 213 W/m 17,1 C 26,9 C 16,1 km/h (3 Bft) 100,00 %
12.06.2017 17:10 27,1 C 24,4 C 54 % 1012,0 hPa 0,0 l/m 4,9 km/h (1 Bft) W-SW 242 0 min 0,000 mm 1,2 UV-I 208 W/m 17,0 C 27,1 C 9,7 km/h (2 Bft) 98,00 %
12.06.2017 17:12 27,1 C 24,4 C 55 % 1012,0 hPa 0,0 l/m 7,9 km/h (2 Bft) W 260 0 min 0,000 mm 1,1 UV-I 205 W/m 17,3 C 26,8 C 12,9 km/h (3 Bft) 98,00 %
12.06.2017 17:14 26,9 C 24,4 C 55 % 1012,0 hPa 0,0 l/m 7,6 km/h (2 Bft) S-SW 213 0 min 0,000 mm 1,0 UV-I 188 W/m 17,1 C 26,7 C 16,1 km/h (3 Bft) 100,00 %
12.06.2017 17:16 26,8 C 24,4 C 55 % 1011,9 hPa 0,0 l/m 6,7 km/h (2 Bft) SW 224 0 min 0,000 mm 1,1 UV-I 178 W/m 17,0 C 26,7 C 11,3 km/h (2 Bft) 97,56 %
12.06.2017 17:18 26,8 C 24,4 C 55 % 1011,9 hPa 0,0 l/m 5,6 km/h (1 Bft) W 266 0 min 0,000 mm 1,0 UV-I 169 W/m 17,0 C 26,8 C 11,3 km/h (2 Bft) 98,11 %
12.06.2017 17:20 26,7 C 25,0 C 55 % 1011,9 hPa 0,0 l/m 5,7 km/h (1 Bft) W-SW 251 0 min 0,000 mm 0,9 UV-I 146 W/m 16,9 C 26,7 C 11,3 km/h (2 Bft) 97,56 %
12.06.2017 17:22 26,6 C 24,4 C 57 % 1011,8 hPa 0,0 l/m 6,6 km/h (2 Bft) W-SW 253 0 min 0,000 mm 0,8 UV-I 129 W/m 17,4 C 26,6 C 12,9 km/h (3 Bft) 97,87 %
12.06.2017 17:24 26,6 C 25,0 C 56 % 1011,8 hPa 0,0 l/m 8,6 km/h (2 Bft) W 273 0 min 0,000 mm 0,7 UV-I 136 W/m 17,1 C 26,2 C 14,5 km/h (3 Bft) 97,37 %
12.06.2017 17:26 26,5 C 24,4 C 56 % 1011,7 hPa 0,0 l/m 9,4 km/h (2 Bft) W-SW 250 0 min 0,000 mm 0,8 UV-I 149 W/m 17,0 C 25,9 C 14,5 km/h (3 Bft) 98,08 %
12.06.2017 17:28 26,4 C 24,4 C 56 % 1011,6 hPa 0,0 l/m 8,2 km/h (2 Bft) SW 235 0 min 0,000 mm 0,8 UV-I 158 W/m 16,9 C 26,0 C 14,5 km/h (3 Bft) 100,00 %
12.06.2017 17:30 26,4 C 24,4 C 55 % 1011,7 hPa 0,0 l/m 6,0 km/h (2 Bft) SW 230 0 min 0,000 mm 0,8 UV-I 156 W/m 16,6 C 26,4 C 12,9 km/h (3 Bft) 98,11 %
12.06.2017 17:32 26,3 C 24,4 C 56 % 1011,7 hPa 0,0 l/m 7,0 km/h (2 Bft) SW 236 0 min 0,000 mm 0,7 UV-I 151 W/m 16,8 C 26,2 C 12,9 km/h (3 Bft) 100,00 %
12.06.2017 17:34 26,3 C 24,4 C 55 % 1011,8 hPa 0,0 l/m 9,3 km/h (2 Bft) SW 216 0 min 0,000 mm 0,7 UV-I 141 W/m 16,5 C 25,7 C 14,5 km/h (3 Bft) 96,23 %
12.06.2017 17:36 26,3 C 24,4 C 56 % 1011,8 hPa 0,0 l/m 7,6 km/h (2 Bft) W 275 0 min 0,000 mm 0,6 UV-I 129 W/m 16,8 C 26,0 C 12,9 km/h (3 Bft) 95,24 %
12.06.2017 17:38 26,3 C 24,4 C 56 % 1011,8 hPa 0,0 l/m 8,7 km/h (2 Bft) W-SW 249 0 min 0,000 mm 0,6 UV-I 127 W/m 16,8 C 25,8 C 12,9 km/h (3 Bft) 100,00 %
12.06.2017 17:40 26,3 C 24,4 C 57 % 1011,9 hPa 0,0 l/m 7,6 km/h (2 Bft) W-NW 290 0 min 0,000 mm 0,6 UV-I 133 W/m 17,1 C 26,0 C 14,5 km/h (3 Bft) 97,22 %
12.06.2017 17:42 26,2 C 24,4 C 56 % 1011,8 hPa 0,0 l/m 8,0 km/h (2 Bft) W 270 0 min 0,000 mm 0,6 UV-I 136 W/m 16,7 C 25,9 C 12,9 km/h (3 Bft) 100,00 %
12.06.2017 17:44 26,2 C 24,4 C 57 % 1011,9 hPa 0,0 l/m 10,7 km/h (2 Bft) W-SW 242 0 min 0,000 mm 0,6 UV-I 127 W/m 17,0 C 25,4 C 17,7 km/h (3 Bft) 97,56 %
12.06.2017 17:46 26,2 C 24,4 C 56 % 1011,9 hPa 0,0 l/m 9,8 km/h (2 Bft) W-SW 251 0 min 0,000 mm 0,4 UV-I 106 W/m 16,7 C 25,5 C 14,5 km/h (3 Bft) 100,00 %
12.06.2017 17:48 26,2 C 24,4 C 57 % 1011,9 hPa 0,0 l/m 10,7 km/h (2 Bft) S-SW 211 0 min 0,000 mm 0,0 UV-I 93 W/m 17,0 C 25,4 C 16,1 km/h (3 Bft) 100,00 %
12.06.2017 17:50 26,1 C 24,4 C 56 % 1011,8 hPa 0,0 l/m 9,4 km/h (2 Bft) W 281 0 min 0,000 mm 0,0 UV-I 93 W/m 16,6 C 25,5 C 16,1 km/h (3 Bft) 97,87 %
12.06.2017 17:52 26,1 C 24,4 C 57 % 1011,8 hPa 0,0 l/m 5,9 km/h (2 Bft) W-SW 256 0 min 0,000 mm 0,1 UV-I 101 W/m 16,9 C 26,1 C 11,3 km/h (2 Bft) 98,00 %
12.06.2017 17:54 26,1 C 24,4 C 57 % 1011,8 hPa 0,0 l/m 9,2 km/h (2 Bft) W-SW 250 0 min 0,000 mm 0,5 UV-I 133 W/m 16,9 C 25,5 C 14,5 km/h (3 Bft) 97,56 %
12.06.2017 17:56 26,0 C 24,4 C 57 % 1011,8 hPa 0,0 l/m 7,1 km/h (2 Bft) W 261 0 min 0,000 mm 0,6 UV-I 169 W/m 16,8 C 25,8 C 12,9 km/h (3 Bft) 97,87 %
12.06.2017 17:58 26,1 C 24,4 C 57 % 1011,9 hPa 0,0 l/m 10,7 km/h (2 Bft) W 263 0 min 0,000 mm 0,8 UV-I 189 W/m 16,9 C 25,3 C 16,1 km/h (3 Bft) 98,00 %
12.06.2017 18:00 26,1 C 24,4 C 57 % 1011,9 hPa 0,0 l/m 8,2 km/h (2 Bft) W-SW 252 0 min 0,153 mm 0,7 UV-I 166 W/m 16,9 C 25,7 C 16,1 km/h (3 Bft) 97,56 %
12.06.2017 18:02 26,1 C 24,4 C 57 % 1012,0 hPa 0,0 l/m 9,4 km/h (2 Bft) W-SW 244 0 min 0,000 mm 0,5 UV-I 130 W/m 16,9 C 25,5 C 12,9 km/h (3 Bft) 96,00 %
12.06.2017 18:04 26,1 C 24,4 C 57 % 1012,0 hPa 0,0 l/m 8,9 km/h (2 Bft) SW 235 0 min 0,000 mm 0,2 UV-I 109 W/m 16,9 C 25,6 C 14,5 km/h (3 Bft) 98,11 %
12.06.2017 18:06 26,0 C 24,4 C 57 % 1012,1 hPa 0,0 l/m 10,5 km/h (2 Bft) SW 219 0 min 0,000 mm 0,0 UV-I 83 W/m 16,8 C 25,2 C 19,3 km/h (3 Bft) 95,12 %
12.06.2017 18:08 25,9 C 24,4 C 58 % 1012,1 hPa 0,0 l/m 9,9 km/h (2 Bft) SW 228 0 min 0,000 mm 0,0 UV-I 68 W/m 17,0 C 25,2 C 14,5 km/h (3 Bft) 94,34 %
12.06.2017 18:10 25,9 C 24,4 C 58 % 1012,1 hPa 0,0 l/m 8,2 km/h (2 Bft) SW 235 0 min 0,000 mm 0,0 UV-I 67 W/m 17,0 C 25,5 C 12,9 km/h (3 Bft) 95,45 %
12.06.2017 18:12 25,8 C 24,4 C 58 % 1012,0 hPa 0,0 l/m 10,8 km/h (2 Bft) W-SW 242 0 min 0,000 mm 0,0 UV-I 74 W/m 16,9 C 24,9 C 17,7 km/h (3 Bft) 96,00 %
12.06.2017 18:14 25,8 C 24,4 C 59 % 1012,0 hPa 0,0 l/m 12,8 km/h (3 Bft) SW 222 0 min 0,000 mm 0,0 UV-I 87 W/m 17,2 C 24,6 C 19,3 km/h (3 Bft) 97,56 %
12.06.2017 18:16 25,7 C 24,4 C 59 % 1012,0 hPa 0,0 l/m 9,6 km/h (2 Bft) SW 221 0 min 0,000 mm 0,0 UV-I 105 W/m 17,1 C 25,0 C 12,9 km/h (3 Bft) 94,34 %
12.06.2017 18:18 25,7 C 24,4 C 60 % 1012,0 hPa 0,0 l/m 8,6 km/h (2 Bft) W-SW 243 0 min 0,000 mm 0,0 UV-I 164 W/m 17,3 C 25,2 C 14,5 km/h (3 Bft) 97,44 %
12.06.2017 18:20 25,7 C 24,4 C 60 % 1012,0 hPa 0,0 l/m 12,7 km/h (3 Bft) W-SW 240 0 min 0,000 mm 0,4 UV-I 214 W/m 17,3 C 24,5 C 22,5 km/h (4 Bft) 98,00 %
12.06.2017 18:22 25,7 C 24,4 C 59 % 1012,0 hPa 0,0 l/m 13,8 km/h (3 Bft) W 263 0 min 0,000 mm 0,6 UV-I 214 W/m 17,1 C 24,3 C 19,3 km/h (3 Bft) 94,23 %
12.06.2017 18:24 25,8 C 24,4 C 59 % 1012,0 hPa 0,0 l/m 15,1 km/h (3 Bft) SW 222 0 min 0,000 mm 0,7 UV-I 200 W/m 17,2 C 24,3 C 22,5 km/h (4 Bft) 95,24 %
12.06.2017 18:26 25,8 C 24,4 C 59 % 1012,0 hPa 0,0 l/m 14,2 km/h (3 Bft) W-SW 238 0 min 0,000 mm 0,7 UV-I 190 W/m 17,2 C 24,4 C 30,6 km/h (5 Bft) 92,45 %
12.06.2017 18:28 25,7 C 24,4 C 60 % 1012,2 hPa 0,0 l/m 18,5 km/h (3 Bft) S-SW 200 0 min 0,000 mm 0,6 UV-I 184 W/m 17,3 C 23,7 C 32,2 km/h (5 Bft) 94,74 %
12.06.2017 18:30 25,2 C 24,4 C 62 % 1012,2 hPa 0,0 l/m 18,5 km/h (3 Bft) S-SW 192 2 min 0,000 mm 0,7 UV-I 266 W/m 17,4 C 23,1 C 27,4 km/h (4 Bft) 90,91 %
12.06.2017 18:32 24,8 C 24,4 C 62 % 1012,2 hPa 0,0 l/m 19,0 km/h (3 Bft) SW 232 2 min 0,000 mm 0,6 UV-I 303 W/m 17,0 C 22,5 C 30,6 km/h (5 Bft) 95,45 %
12.06.2017 18:34 24,6 C 24,4 C 63 % 1012,3 hPa 0,0 l/m 19,8 km/h (3 Bft) W 267 2 min 0,000 mm 0,7 UV-I 349 W/m 17,1 C 22,2 C 29,0 km/h (5 Bft) 92,45 %
12.06.2017 18:36 24,4 C 24,4 C 64 % 1012,4 hPa 0,0 l/m 16,3 km/h (3 Bft) S-SW 200 2 min 0,000 mm 0,7 UV-I 380 W/m 17,1 C 22,4 C 29,0 km/h (5 Bft) 100,00 %
12.06.2017 18:38 24,3 C 24,4 C 64 % 1012,3 hPa 0,0 l/m 17,0 km/h (3 Bft) SW 236 2 min 0,000 mm 0,6 UV-I 212 W/m 17,0 C 22,2 C 33,8 km/h (5 Bft) 90,14 %
12.06.2017 18:40 24,1 C 24,4 C 65 % 1012,2 hPa 0,0 l/m 12,0 km/h (2 Bft) S 175 0 min 0,000 mm 0,6 UV-I 123 W/m 17,1 C 22,8 C 22,5 km/h (4 Bft) 87,80 %
12.06.2017 18:42 23,9 C 24,4 C 65 % 1012,2 hPa 0,0 l/m 17,5 km/h (3 Bft) SW 224 0 min 0,000 mm 0,6 UV-I 144 W/m 16,9 C 21,6 C 25,7 km/h (4 Bft) 93,22 %
12.06.2017 18:44 23,8 C 24,4 C 65 % 1012,2 hPa 0,0 l/m 19,2 km/h (3 Bft) S-SW 202 2 min 0,000 mm 0,6 UV-I 251 W/m 16,8 C 21,2 C 29,0 km/h (5 Bft) 90,24 %
12.06.2017 18:46 23,7 C 24,4 C 65 % 1012,1 hPa 0,0 l/m 16,5 km/h (3 Bft) SW 235 2 min 0,000 mm 0,6 UV-I 308 W/m 16,7 C 21,5 C 24,1 km/h (4 Bft) 90,91 %
12.06.2017 18:48 23,7 C 24,4 C 65 % 1012,1 hPa 0,0 l/m 18,3 km/h (3 Bft) W-SW 257 2 min 0,000 mm 0,6 UV-I 279 W/m 16,7 C 21,2 C 30,6 km/h (5 Bft) 92,31 %
12.06.2017 18:50 23,7 C 24,4 C 65 % 1012,2 hPa 0,0 l/m 17,2 km/h (3 Bft) SW 214 2 min 0,000 mm 0,6 UV-I 240 W/m 16,7 C 21,4 C 27,4 km/h (4 Bft) 92,19 %
12.06.2017 18:52 23,6 C 24,4 C 67 % 1012,1 hPa 0,0 l/m 14,6 km/h (3 Bft) SW 219 2 min 0,000 mm 0,5 UV-I 206 W/m 17,1 C 21,7 C 22,5 km/h (4 Bft) 97,56 %
12.06.2017 18:54 23,6 C 24,4 C 66 % 1012,1 hPa 0,0 l/m 17,4 km/h (3 Bft) W-SW 240 0 min 0,000 mm 0,5 UV-I 128 W/m 16,9 C 21,2 C 27,4 km/h (4 Bft) 91,49 %
12.06.2017 18:56 23,5 C 24,4 C 66 % 1012,0 hPa 0,0 l/m 17,2 km/h (3 Bft) S-SO 147 2 min 0,000 mm 0,5 UV-I 222 W/m 16,8 C 21,1 C 24,1 km/h (4 Bft) 92,86 %
12.06.2017 18:58 23,5 C 24,4 C 66 % 1012,0 hPa 0,0 l/m 13,0 km/h (3 Bft) S-SW 207 2 min 0,000 mm 0,5 UV-I 224 W/m 16,8 C 21,9 C 22,5 km/h (4 Bft) 96,23 %
12.06.2017 19:00 23,5 C 24,4 C 66 % 1012,0 hPa 0,0 l/m 16,3 km/h (3 Bft) SW 229 2 min 0,000 mm 0,5 UV-I 205 W/m 16,8 C 21,3 C 25,7 km/h (4 Bft) 95,12 %
12.06.2017 19:02 23,4 C 24,4 C 67 % 1012,0 hPa 0,0 l/m 12,0 km/h (2 Bft) W 267 0 min 0,203 mm 0,0 UV-I 110 W/m 16,9 C 21,9 C 17,7 km/h (3 Bft) 96,00 %
12.06.2017 19:04 23,3 C 24,4 C 67 % 1012,0 hPa 0,0 l/m 13,3 km/h (3 Bft) S-SW 205 0 min 0,000 mm 0,0 UV-I 89 W/m 16,8 C 21,6 C 22,5 km/h (4 Bft) 93,62 %
12.06.2017 19:06 23,2 C 24,4 C 67 % 1012,0 hPa 0,0 l/m 13,6 km/h (3 Bft) SW 229 2 min 0,000 mm 0,0 UV-I 190 W/m 16,7 C 21,4 C 22,5 km/h (4 Bft) 98,00 %
12.06.2017 19:08 23,2 C 24,4 C 67 % 1012,0 hPa 0,0 l/m 12,5 km/h (3 Bft) SW 234 2 min 0,000 mm 0,0 UV-I 213 W/m 16,7 C 21,6 C 22,5 km/h (4 Bft) 97,87 %
12.06.2017 19:10 23,3 C 24,4 C 67 % 1011,9 hPa 0,0 l/m 13,6 km/h (3 Bft) S 178 2 min 0,000 mm 0,0 UV-I 218 W/m 16,8 C 21,5 C 20,9 km/h (4 Bft) 98,00 %
12.06.2017 19:12 23,3 C 24,4 C 67 % 1011,9 hPa 0,0 l/m 13,3 km/h (3 Bft) W-SW 252 2 min 0,000 mm 0,0 UV-I 215 W/m 16,8 C 21,6 C 22,5 km/h (4 Bft) 100,00 %
12.06.2017 19:14 23,4 C 24,4 C 67 % 1011,9 hPa 0,0 l/m 16,0 km/h (3 Bft) SW 231 2 min 0,000 mm 0,0 UV-I 169 W/m 16,9 C 21,2 C 22,5 km/h (4 Bft) 94,74 %
12.06.2017 19:16 23,3 C 24,4 C 67 % 1011,9 hPa 0,0 l/m 16,4 km/h (3 Bft) SW 222 0 min 0,000 mm 0,0 UV-I 129 W/m 16,8 C 21,0 C 22,5 km/h (4 Bft) 100,00 %
12.06.2017 19:18 23,3 C 24,4 C 67 % 1012,0 hPa 0,0 l/m 13,1 km/h (3 Bft) W-SW 240 2 min 0,000 mm 0,0 UV-I 168 W/m 16,8 C 21,6 C 16,1 km/h (3 Bft) 95,45 %
12.06.2017 19:20 23,4 C 24,4 C 67 % 1011,9 hPa 0,0 l/m 15,6 km/h (3 Bft) W-SW 240 2 min 0,000 mm 0,0 UV-I 137 W/m 16,9 C 21,3 C 24,1 km/h (4 Bft) 98,00 %
12.06.2017 19:22 23,4 C 24,4 C 66 % 1012,0 hPa 0,0 l/m 20,5 km/h (4 Bft) SW 215 2 min 0,000 mm 0,0 UV-I 138 W/m 16,7 C 20,5 C 30,6 km/h (5 Bft) 96,55 %
12.06.2017 19:24 23,4 C 24,4 C 67 % 1011,9 hPa 0,0 l/m 15,0 km/h (3 Bft) SW 214 2 min 0,000 mm 0,0 UV-I 163 W/m 16,9 C 21,4 C 25,7 km/h (4 Bft) 97,06 %
12.06.2017 19:26 23,4 C 24,4 C 67 % 1011,9 hPa 0,0 l/m 15,1 km/h (3 Bft) SW 216 2 min 0,000 mm 0,0 UV-I 154 W/m 16,9 C 21,4 C 22,5 km/h (4 Bft) 100,00 %
12.06.2017 19:28 23,4 C 24,4 C 66 % 1012,0 hPa 0,0 l/m 18,0 km/h (3 Bft) S-SW 199 2 min 0,000 mm 0,0 UV-I 150 W/m 16,7 C 20,9 C 22,5 km/h (4 Bft) 100,00 %
12.06.2017 19:30 23,4 C 24,4 C 67 % 1011,9 hPa 0,0 l/m 15,3 km/h (3 Bft) W-SW 238 2 min 0,000 mm 0,0 UV-I 140 W/m 16,9 C 21,3 C 24,1 km/h (4 Bft) 94,52 %
12.06.2017 19:32 23,4 C 24,4 C 67 % 1012,0 hPa 0,0 l/m 10,1 km/h (2 Bft) SW 236 0 min 0,000 mm 0,0 UV-I 117 W/m 16,9 C 22,4 C 16,1 km/h (3 Bft) 100,00 %
12.06.2017 19:34 23,3 C 24,4 C 67 % 1012,0 hPa 0,0 l/m 13,7 km/h (3 Bft) W-SW 246 0 min 0,000 mm 0,0 UV-I 99 W/m 16,8 C 21,5 C 22,5 km/h (4 Bft) 100,00 %
12.06.2017 19:36 23,3 C 24,4 C 68 % 1011,9 hPa 0,0 l/m 13,6 km/h (3 Bft) W-SW 257 0 min 0,000 mm 0,0 UV-I 106 W/m 17,1 C 21,5 C 20,9 km/h (4 Bft) 97,87 %
12.06.2017 19:38 23,3 C 24,4 C 67 % 1011,9 hPa 0,0 l/m 16,8 km/h (3 Bft) W-SW 245 0 min 0,000 mm 0,0 UV-I 104 W/m 16,8 C 20,9 C 27,4 km/h (4 Bft) 97,37 %
12.06.2017 19:40 23,2 C 24,4 C 68 % 1012,0 hPa 0,0 l/m 15,6 km/h (3 Bft) W-SW 250 0 min 0,000 mm 0,0 UV-I 88 W/m 17,0 C 21,0 C 27,4 km/h (4 Bft) 95,45 %
12.06.2017 19:42 23,2 C 24,4 C 68 % 1011,9 hPa 0,0 l/m 14,6 km/h (3 Bft) S-SW 207 0 min 0,000 mm 0,0 UV-I 84 W/m 17,0 C 21,2 C 24,1 km/h (4 Bft) 100,00 %
12.06.2017 19:44 23,1 C 24,4 C 68 % 1011,9 hPa 0,0 l/m 15,3 km/h (3 Bft) W-SW 238 0 min 0,000 mm 0,0 UV-I 82 W/m 16,9 C 21,0 C 22,5 km/h (4 Bft) 91,49 %
12.06.2017 19:46 23,1 C 24,4 C 68 % 1011,9 hPa 0,0 l/m 12,6 km/h (3 Bft) W-SW 241 0 min 0,000 mm 0,0 UV-I 81 W/m 16,9 C 21,5 C 20,9 km/h (4 Bft) 97,37 %
12.06.2017 19:48 23,1 C 24,4 C 68 % 1011,8 hPa 0,0 l/m 14,7 km/h (3 Bft) W-SW 248 0 min 0,000 mm 0,0 UV-I 82 W/m 16,9 C 21,1 C 24,1 km/h (4 Bft) 97,87 %
12.06.2017 19:50 23,0 C 24,4 C 69 % 1011,8 hPa 0,0 l/m 11,8 km/h (2 Bft) SW 227 0 min 0,000 mm 0,0 UV-I 82 W/m 17,0 C 21,5 C 20,9 km/h (4 Bft) 100,00 %
12.06.2017 19:52 22,9 C 24,4 C 69 % 1011,8 hPa 0,0 l/m 15,1 km/h (3 Bft) W-SW 248 0 min 0,000 mm 0,0 UV-I 78 W/m 16,9 C 20,7 C 22,5 km/h (4 Bft) 100,00 %
12.06.2017 19:54 22,9 C 24,4 C 69 % 1011,9 hPa 0,0 l/m 14,4 km/h (3 Bft) W-SW 248 0 min 0,000 mm 0,0 UV-I 69 W/m 16,9 C 20,9 C 19,3 km/h (3 Bft) 98,11 %
12.06.2017 19:56 22,9 C 24,4 C 69 % 1011,8 hPa 0,0 l/m 12,2 km/h (2 Bft) W-SW 256 0 min 0,000 mm 0,0 UV-I 64 W/m 16,9 C 21,3 C 17,7 km/h (3 Bft) 100,00 %
12.06.2017 19:58 22,8 C 24,4 C 70 % 1011,9 hPa 0,0 l/m 16,0 km/h (3 Bft) S-SW 210 0 min 0,000 mm 0,0 UV-I 55 W/m 17,0 C 20,5 C 20,9 km/h (4 Bft) 95,45 %
12.06.2017 20:00 22,8 C 24,4 C 70 % 1011,9 hPa 0,0 l/m 14,4 km/h (3 Bft) SW 225 0 min 0,152 mm 0,0 UV-I 47 W/m 17,0 C 20,8 C 22,5 km/h (4 Bft) 98,18 %
12.06.2017 20:02 22,7 C 24,4 C 70 % 1011,9 hPa 0,0 l/m 15,4 km/h (3 Bft) SW 225 0 min 0,000 mm 0,0 UV-I 44 W/m 16,9 C 20,4 C 20,9 km/h (4 Bft) 100,00 %
12.06.2017 20:04 22,7 C 24,4 C 70 % 1011,9 hPa 0,0 l/m 15,1 km/h (3 Bft) W-SW 237 0 min 0,000 mm 0,0 UV-I 40 W/m 16,9 C 20,5 C 20,9 km/h (4 Bft) 94,74 %
12.06.2017 20:06 22,6 C 24,4 C 71 % 1012,0 hPa 0,0 l/m 12,1 km/h (2 Bft) W-SW 242 0 min 0,000 mm 0,0 UV-I 40 W/m 17,1 C 21,0 C 19,3 km/h (3 Bft) 100,00 %
12.06.2017 20:08 22,5 C 24,4 C 71 % 1012,0 hPa 0,0 l/m 11,7 km/h (2 Bft) S-SW 213 0 min 0,000 mm 0,0 UV-I 39 W/m 17,0 C 21,0 C 16,1 km/h (3 Bft) 95,45 %
12.06.2017 20:10 22,4 C 24,4 C 71 % 1012,0 hPa 0,0 l/m 14,6 km/h (3 Bft) S-SW 205 0 min 0,000 mm 0,0 UV-I 42 W/m 16,9 C 20,2 C 22,5 km/h (4 Bft) 97,62 %
12.06.2017 20:12 22,4 C 24,4 C 72 % 1012,0 hPa 0,0 l/m 14,5 km/h (3 Bft) SW 215 0 min 0,000 mm 0,0 UV-I 43 W/m 17,1 C 20,3 C 22,5 km/h (4 Bft) 100,00 %
12.06.2017 20:14 22,4 C 24,4 C 72 % 1012,1 hPa 0,0 l/m 15,4 km/h (3 Bft) SW 223 0 min 0,000 mm 0,0 UV-I 41 W/m 17,1 C 20,1 C 22,5 km/h (4 Bft) 98,18 %
12.06.2017 20:16 22,3 C 24,4 C 72 % 1012,1 hPa 0,0 l/m 12,7 km/h (3 Bft) SW 225 0 min 0,000 mm 0,0 UV-I 39 W/m 17,0 C 20,5 C 19,3 km/h (3 Bft) 94,00 %
12.06.2017 20:18 22,3 C 24,4 C 72 % 1012,2 hPa 0,0 l/m 11,5 km/h (2 Bft) SW 226 0 min 0,000 mm 0,0 UV-I 35 W/m 17,0 C 20,8 C 17,7 km/h (3 Bft) 100,00 %
12.06.2017 20:20 22,2 C 24,4 C 73 % 1012,3 hPa 0,0 l/m 15,4 km/h (3 Bft) S-SW 207 0 min 0,000 mm 0,0 UV-I 30 W/m 17,1 C 19,8 C 24,1 km/h (4 Bft) 93,62 %
12.06.2017 20:22 22,2 C 24,4 C 73 % 1012,3 hPa 0,0 l/m 13,9 km/h (3 Bft) SW 232 0 min 0,000 mm 0,0 UV-I 27 W/m 17,1 C 20,1 C 22,5 km/h (4 Bft) 95,74 %
12.06.2017 20:24 22,2 C 24,4 C 73 % 1012,3 hPa 0,0 l/m 12,8 km/h (3 Bft) SW 217 0 min 0,000 mm 0,0 UV-I 25 W/m 17,1 C 20,4 C 19,3 km/h (3 Bft) 96,23 %
12.06.2017 20:26 22,2 C 24,4 C 74 % 1012,3 hPa 0,0 l/m 13,7 km/h (3 Bft) SW 229 0 min 0,000 mm 0,0 UV-I 23 W/m 17,3 C 20,2 C 17,7 km/h (3 Bft) 97,56 %
12.06.2017 20:28 22,1 C 24,4 C 74 % 1012,2 hPa 0,0 l/m 10,6 km/h (2 Bft) SW 230 0 min 0,000 mm 0,0 UV-I 21 W/m 17,2 C 20,8 C 17,7 km/h (3 Bft) 95,45 %
12.06.2017 20:30 22,1 C 24,4 C 74 % 1012,3 hPa 0,0 l/m 14,3 km/h (3 Bft) SW 220 0 min 0,000 mm 0,0 UV-I 21 W/m 17,2 C 19,9 C 20,9 km/h (4 Bft) 94,34 %
12.06.2017 20:32 22,1 C 24,4 C 74 % 1012,3 hPa 0,0 l/m 10,7 km/h (2 Bft) SW 215 0 min 0,000 mm 0,0 UV-I 20 W/m 17,2 C 20,8 C 16,1 km/h (3 Bft) 95,74 %
12.06.2017 20:34 22,1 C 24,4 C 74 % 1012,4 hPa 0,0 l/m 13,2 km/h (3 Bft) W-SW 237 0 min 0,000 mm 0,0 UV-I 19 W/m 17,2 C 20,2 C 19,3 km/h (3 Bft) 95,45 %
12.06.2017 20:36 22,0 C 24,4 C 74 % 1012,2 hPa 0,0 l/m 9,8 km/h (2 Bft) S 182 0 min 0,000 mm 0,0 UV-I 19 W/m 17,1 C 20,9 C 17,7 km/h (3 Bft) 100,00 %
12.06.2017 20:38 22,0 C 24,4 C 74 % 1012,3 hPa 0,0 l/m 10,5 km/h (2 Bft) SW 219 0 min 0,000 mm 0,0 UV-I 18 W/m 17,1 C 20,7 C 14,5 km/h (3 Bft) 96,61 %
12.06.2017 20:40 21,9 C 24,4 C 75 % 1012,4 hPa 0,0 l/m 11,8 km/h (2 Bft) S-SW 198 0 min 0,000 mm 0,0 UV-I 18 W/m 17,3 C 20,3 C 16,1 km/h (3 Bft) 98,11 %
12.06.2017 20:42 21,9 C 24,4 C 75 % 1012,4 hPa 0,0 l/m 10,8 km/h (2 Bft) SW 226 0 min 0,000 mm 0,0 UV-I 18 W/m 17,3 C 20,5 C 16,1 km/h (3 Bft) 97,56 %
12.06.2017 20:44 21,9 C 24,4 C 75 % 1012,4 hPa 0,0 l/m 11,8 km/h (2 Bft) S-SO 167 2 min 0,000 mm 0,0 UV-I 18 W/m 17,3 C 20,3 C 17,7 km/h (3 Bft) 98,11 %
12.06.2017 20:46 21,8 C 24,4 C 75 % 1012,4 hPa 0,0 l/m 10,5 km/h (2 Bft) W-SW 243 2 min 0,000 mm 0,0 UV-I 18 W/m 17,2 C 20,5 C 17,7 km/h (3 Bft) 93,18 %
12.06.2017 20:48 21,8 C 24,4 C 75 % 1012,4 hPa 0,0 l/m 10,3 km/h (2 Bft) SW 222 2 min 0,000 mm 0,0 UV-I 16 W/m 17,2 C 20,5 C 14,5 km/h (3 Bft) 92,00 %
12.06.2017 20:50 21,8 C 24,4 C 76 % 1012,4 hPa 0,0 l/m 10,4 km/h (2 Bft) W-SW 237 2 min 0,000 mm 0,0 UV-I 13 W/m 17,4 C 20,5 C 14,5 km/h (3 Bft) 96,00 %
12.06.2017 20:52 21,8 C 24,4 C 76 % 1012,4 hPa 0,0 l/m 14,3 km/h (3 Bft) SW 232 0 min 0,000 mm 0,0 UV-I 11 W/m 17,4 C 19,6 C 19,3 km/h (3 Bft) 100,00 %
12.06.2017 20:54 21,7 C 24,4 C 76 % 1012,5 hPa 0,0 l/m 14,3 km/h (3 Bft) S-SW 212 0 min 0,000 mm 0,0 UV-I 11 W/m 17,3 C 19,5 C 20,9 km/h (4 Bft) 97,87 %
12.06.2017 20:56 21,7 C 24,4 C 76 % 1012,5 hPa 0,0 l/m 13,0 km/h (3 Bft) SW 235 0 min 0,000 mm 0,0 UV-I 10 W/m 17,3 C 19,7 C 19,3 km/h (3 Bft) 100,00 %
12.06.2017 20:58 21,7 C 24,4 C 76 % 1012,5 hPa 0,0 l/m 12,3 km/h (3 Bft) SW 225 0 min 0,000 mm 0,0 UV-I 9 W/m 17,3 C 19,9 C 17,7 km/h (3 Bft) 97,78 %
12.06.2017 21:00 21,7 C 24,4 C 76 % 1012,5 hPa 0,0 l/m 14,8 km/h (3 Bft) SW 234 0 min 0,076 mm 0,0 UV-I 8 W/m 17,3 C 19,4 C 19,3 km/h (3 Bft) 100,00 %
12.06.2017 21:02 21,7 C 24,4 C 76 % 1012,4 hPa 0,0 l/m 13,5 km/h (3 Bft) SW 234 0 min 0,000 mm 0,0 UV-I 7 W/m 17,3 C 19,6 C 20,9 km/h (4 Bft) 98,00 %
12.06.2017 21:04 21,7 C 24,4 C 76 % 1012,5 hPa 0,0 l/m 13,0 km/h (3 Bft) SW 224 0 min 0,000 mm 0,0 UV-I 7 W/m 17,3 C 19,7 C 19,3 km/h (3 Bft) 95,74 %
12.06.2017 21:06 21,8 C 24,4 C 76 % 1012,5 hPa 0,0 l/m 13,2 km/h (3 Bft) SW 230 0 min 0,000 mm 0,0 UV-I 5 W/m 17,4 C 19,8 C 20,9 km/h (4 Bft) 97,56 %
12.06.2017 21:08 21,7 C 24,4 C 76 % 1012,5 hPa 0,0 l/m 14,8 km/h (3 Bft) SW 219 0 min 0,000 mm 0,0 UV-I 5 W/m 17,3 C 19,4 C 22,5 km/h (4 Bft) 96,23 %
12.06.2017 21:10 21,7 C 24,4 C 76 % 1012,5 hPa 0,0 l/m 11,3 km/h (2 Bft) W-SW 240 0 min 0,000 mm 0,0 UV-I 5 W/m 17,3 C 20,2 C 14,5 km/h (3 Bft) 97,56 %
12.06.2017 21:12 21,7 C 24,4 C 77 % 1012,5 hPa 0,0 l/m 10,5 km/h (2 Bft) W-SW 240 0 min 0,000 mm 0,0 UV-I 5 W/m 17,5 C 20,4 C 16,1 km/h (3 Bft) 96,43 %
12.06.2017 21:14 21,7 C 24,4 C 77 % 1012,5 hPa 0,0 l/m 11,9 km/h (2 Bft) SW 231 0 min 0,000 mm 0,0 UV-I 5 W/m 17,5 C 20,0 C 17,7 km/h (3 Bft) 98,00 %
12.06.2017 21:16 21,7 C 24,4 C 77 % 1012,5 hPa 0,0 l/m 11,7 km/h (2 Bft) SW 217 0 min 0,000 mm 0,0 UV-I 2 W/m 17,5 C 20,1 C 16,1 km/h (3 Bft) 97,87 %
12.06.2017 21:18 21,7 C 24,4 C 77 % 1012,6 hPa 0,0 l/m 10,1 km/h (2 Bft) SW 235 0 min 0,000 mm 0,0 UV-I 0 W/m 17,5 C 20,5 C 20,9 km/h (4 Bft) 100,00 %
12.06.2017 21:20 21,7 C 24,4 C 77 % 1012,6 hPa 0,0 l/m 15,0 km/h (3 Bft) W-SW 242 0 min 0,000 mm 0,0 UV-I 0 W/m 17,5 C 19,3 C 20,9 km/h (4 Bft) 94,74 %
12.06.2017 21:22 21,6 C 24,4 C 77 % 1012,7 hPa 0,0 l/m 12,7 km/h (3 Bft) SW 230 0 min 0,000 mm 0,0 UV-I 0 W/m 17,4 C 19,7 C 19,3 km/h (3 Bft) 100,00 %
12.06.2017 21:24 21,6 C 24,4 C 77 % 1012,7 hPa 0,0 l/m 11,2 km/h (2 Bft) SW 217 0 min 0,000 mm 0,0 UV-I 0 W/m 17,4 C 20,1 C 17,7 km/h (3 Bft) 94,00 %
12.06.2017 21:26 21,6 C 24,4 C 77 % 1012,7 hPa 0,0 l/m 11,8 km/h (2 Bft) W-SW 237 0 min 0,000 mm 0,0 UV-I 0 W/m 17,4 C 19,9 C 19,3 km/h (3 Bft) 100,00 %
12.06.2017 21:28 21,6 C 24,4 C 77 % 1012,8 hPa 0,0 l/m 9,7 km/h (2 Bft) SW 235 0 min 0,000 mm 0,0 UV-I 0 W/m 17,4 C 20,5 C 17,7 km/h (3 Bft) 96,00 %
12.06.2017 21:30 21,6 C 24,4 C 77 % 1012,8 hPa 0,0 l/m 10,1 km/h (2 Bft) S-SW 199 0 min 0,000 mm 0,0 UV-I 0 W/m 17,4 C 20,4 C 17,7 km/h (3 Bft) 100,00 %
12.06.2017 21:32 21,5 C 24,4 C 78 % 1012,8 hPa 0,0 l/m 11,3 km/h (2 Bft) SW 232 0 min 0,000 mm 0,0 UV-I 0 W/m 17,5 C 19,9 C 16,1 km/h (3 Bft) 100,00 %
12.06.2017 21:34 21,5 C 24,4 C 78 % 1012,9 hPa 0,0 l/m 10,0 km/h (2 Bft) W-SW 252 0 min 0,000 mm 0,0 UV-I 0 W/m 17,5 C 20,3 C 14,5 km/h (3 Bft) 98,18 %
12.06.2017 21:35 21,4 C 24,4 C 78 % 1012,9 hPa 0,0 l/m 11,5 km/h (2 Bft) SW 232 0 min 0,000 mm 0,0 UV-I 0 W/m 17,4 C 19,8 C 17,7 km/h (3 Bft) 96,00 %
12.06.2017 21:38 21,5 C 24,4 C 78 % 1012,9 hPa 0,0 l/m 13,6 km/h (3 Bft) SW 236 0 min 0,000 mm 0,0 UV-I 0 W/m 17,5 C 19,4 C 20,9 km/h (4 Bft) 100,00 %
12.06.2017 21:40 21,4 C 24,4 C 78 % 1012,9 hPa 0,0 l/m 11,3 km/h (2 Bft) SW 217 0 min 0,000 mm 0,0 UV-I 0 W/m 17,4 C 19,8 C 14,5 km/h (3 Bft) 98,11 %
12.06.2017 21:42 21,4 C 24,4 C 78 % 1012,9 hPa 0,0 l/m 9,8 km/h (2 Bft) S 190 0 min 0,000 mm 0,0 UV-I 0 W/m 17,4 C 20,2 C 14,5 km/h (3 Bft) 97,87 %
12.06.2017 21:44 21,5 C 24,4 C 78 % 1012,9 hPa 0,0 l/m 12,2 km/h (2 Bft) W-SW 240 0 min 0,000 mm 0,0 UV-I 0 W/m 17,5 C 19,7 C 17,7 km/h (3 Bft) 94,74 %
12.06.2017 21:46 21,5 C 24,4 C 78 % 1012,9 hPa 0,0 l/m 9,1 km/h (2 Bft) W-SW 246 0 min 0,000 mm 0,0 UV-I 0 W/m 17,5 C 20,6 C 12,9 km/h (3 Bft) 100,00 %
12.06.2017 21:48 21,4 C 24,4 C 78 % 1012,9 hPa 0,0 l/m 10,6 km/h (2 Bft) SW 233 0 min 0,000 mm 0,0 UV-I 0 W/m 17,4 C 20,0 C 17,7 km/h (3 Bft) 100,00 %
12.06.2017 21:50 21,4 C 24,4 C 78 % 1012,9 hPa 0,0 l/m 9,3 km/h (2 Bft) W-SW 244 0 min 0,000 mm 0,0 UV-I 0 W/m 17,4 C 20,4 C 14,5 km/h (3 Bft) 100,00 %
12.06.2017 21:52 21,4 C 24,4 C 78 % 1013,0 hPa 0,0 l/m 10,6 km/h (2 Bft) SW 236 0 min 0,000 mm 0,0 UV-I 0 W/m 17,4 C 20,0 C 17,7 km/h (3 Bft) 100,00 %
12.06.2017 21:54 21,3 C 24,4 C 78 % 1013,0 hPa 0,0 l/m 11,1 km/h (2 Bft) S-SW 209 0 min 0,000 mm 0,0 UV-I 0 W/m 17,3 C 19,8 C 16,1 km/h (3 Bft) 100,00 %
12.06.2017 21:56 21,3 C 24,4 C 78 % 1013,0 hPa 0,0 l/m 10,0 km/h (2 Bft) W-SW 238 0 min 0,000 mm 0,0 UV-I 0 W/m 17,3 C 20,1 C 17,7 km/h (3 Bft) 98,11 %
12.06.2017 21:58 21,3 C 24,4 C 79 % 1013,0 hPa 0,0 l/m 10,6 km/h (2 Bft) SW 235 0 min 0,000 mm 0,0 UV-I 0 W/m 17,5 C 19,9 C 16,1 km/h (3 Bft) 97,37 %
12.06.2017 22:00 21,2 C 24,4 C 79 % 1013,1 hPa 0,0 l/m 12,8 km/h (3 Bft) SW 231 0 min 0,051 mm 0,0 UV-I 0 W/m 17,4 C 19,2 C 17,7 km/h (3 Bft) 96,00 %
12.06.2017 22:02 21,2 C 24,4 C 79 % 1013,1 hPa 0,0 l/m 12,7 km/h (3 Bft) SW 236 0 min 0,000 mm 0,0 UV-I 0 W/m 17,4 C 19,2 C 19,3 km/h (3 Bft) 97,56 %
12.06.2017 22:04 21,2 C 24,4 C 79 % 1013,2 hPa 0,0 l/m 9,3 km/h (2 Bft) W-SW 237 0 min 0,000 mm 0,0 UV-I 0 W/m 17,4 C 20,2 C 16,1 km/h (3 Bft) 94,64 %
12.06.2017 22:06 21,1 C 24,4 C 79 % 1013,1 hPa 0,0 l/m 10,7 km/h (2 Bft) W 260 0 min 0,000 mm 0,0 UV-I 0 W/m 17,3 C 19,7 C 14,5 km/h (3 Bft) 97,37 %
12.06.2017 22:08 21,1 C 24,4 C 79 % 1013,2 hPa 0,0 l/m 8,9 km/h (2 Bft) W-SW 257 0 min 0,000 mm 0,0 UV-I 0 W/m 17,3 C 20,2 C 12,9 km/h (3 Bft) 98,11 %
12.06.2017 22:10 21,0 C 24,4 C 79 % 1013,2 hPa 0,0 l/m 10,7 km/h (2 Bft) W-SW 252 0 min 0,000 mm 0,0 UV-I 0 W/m 17,2 C 19,5 C 16,1 km/h (3 Bft) 93,18 %
12.06.2017 22:12 21,0 C 24,4 C 79 % 1013,2 hPa 0,0 l/m 10,4 km/h (2 Bft) W-SW 250 0 min 0,000 mm 0,0 UV-I 0 W/m 17,2 C 19,6 C 17,7 km/h (3 Bft) 98,00 %
12.06.2017 22:14 20,9 C 24,4 C 79 % 1013,2 hPa 0,0 l/m 10,2 km/h (2 Bft) W-SW 242 0 min 0,000 mm 0,0 UV-I 0 W/m 17,1 C 19,6 C 16,1 km/h (3 Bft) 92,31 %
12.06.2017 22:16 20,9 C 24,4 C 80 % 1013,2 hPa 0,0 l/m 11,1 km/h (2 Bft) W-SW 246 0 min 0,000 mm 0,0 UV-I 0 W/m 17,3 C 19,3 C 16,1 km/h (3 Bft) 94,64 %
12.06.2017 22:18 20,9 C 24,4 C 80 % 1013,3 hPa 0,0 l/m 11,1 km/h (2 Bft) SW 227 0 min 0,000 mm 0,0 UV-I 0 W/m 17,3 C 19,3 C 16,1 km/h (3 Bft) 95,12 %
12.06.2017 22:20 20,9 C 24,4 C 80 % 1013,3 hPa 0,0 l/m 10,7 km/h (2 Bft) W 261 0 min 0,000 mm 0,0 UV-I 0 W/m 17,3 C 19,4 C 17,7 km/h (3 Bft) 94,34 %
12.06.2017 22:22 20,9 C 24,4 C 80 % 1013,3 hPa 0,0 l/m 11,5 km/h (2 Bft) SW 225 0 min 0,000 mm 0,0 UV-I 0 W/m 17,3 C 19,2 C 20,9 km/h (4 Bft) 95,12 %
12.06.2017 22:24 20,9 C 24,4 C 80 % 1013,3 hPa 0,0 l/m 10,0 km/h (2 Bft) SW 230 0 min 0,000 mm 0,0 UV-I 0 W/m 17,3 C 19,6 C 14,5 km/h (3 Bft) 92,45 %
12.06.2017 22:26 20,8 C 24,4 C 80 % 1013,4 hPa 0,0 l/m 10,9 km/h (2 Bft) SW 236 0 min 0,000 mm 0,0 UV-I 0 W/m 17,2 C 19,3 C 16,1 km/h (3 Bft) 96,00 %
12.06.2017 22:28 20,8 C 24,4 C 80 % 1013,3 hPa 0,0 l/m 10,9 km/h (2 Bft) W-SW 246 0 min 0,000 mm 0,0 UV-I 0 W/m 17,2 C 19,3 C 16,1 km/h (3 Bft) 97,14 %
12.06.2017 22:30 20,8 C 24,4 C 80 % 1013,3 hPa 0,0 l/m 12,3 km/h (3 Bft) SW 220 0 min 0,000 mm 0,0 UV-I 0 W/m 17,2 C 18,9 C 17,7 km/h (3 Bft) 90,57 %
12.06.2017 22:32 20,8 C 24,4 C 80 % 1013,3 hPa 0,0 l/m 10,2 km/h (2 Bft) SW 236 0 min 0,000 mm 0,0 UV-I 0 W/m 17,2 C 19,5 C 17,7 km/h (3 Bft) 94,34 %
12.06.2017 22:34 20,8 C 24,4 C 80 % 1013,3 hPa 0,0 l/m 11,3 km/h (2 Bft) SW 236 0 min 0,000 mm 0,0 UV-I 0 W/m 17,2 C 19,1 C 16,1 km/h (3 Bft) 95,12 %
12.06.2017 22:36 20,7 C 24,4 C 80 % 1013,2 hPa 0,0 l/m 11,1 km/h (2 Bft) SW 217 0 min 0,000 mm 0,0 UV-I 0 W/m 17,1 C 19,1 C 16,1 km/h (3 Bft) 92,11 %
12.06.2017 22:38 20,7 C 24,4 C 81 % 1013,2 hPa 0,0 l/m 9,4 km/h (2 Bft) S-SW 211 0 min 0,000 mm 0,0 UV-I 0 W/m 17,3 C 19,6 C 14,5 km/h (3 Bft) 96,23 %
12.06.2017 22:40 20,7 C 24,4 C 81 % 1013,2 hPa 0,0 l/m 10,8 km/h (2 Bft) W-SW 240 0 min 0,000 mm 0,0 UV-I 0 W/m 17,3 C 19,2 C 17,7 km/h (3 Bft) 92,45 %
12.06.2017 22:42 20,7 C 24,4 C 81 % 1013,3 hPa 0,0 l/m 12,8 km/h (3 Bft) W-SW 240 0 min 0,000 mm 0,0 UV-I 0 W/m 17,3 C 18,6 C 17,7 km/h (3 Bft) 92,11 %
12.06.2017 22:44 20,7 C 24,4 C 81 % 1013,3 hPa 0,0 l/m 14,7 km/h (3 Bft) SW 230 0 min 0,000 mm 0,0 UV-I 0 W/m 17,3 C 18,2 C 19,3 km/h (3 Bft) 96,43 %
12.06.2017 22:46 20,6 C 24,4 C 81 % 1013,4 hPa 0,0 l/m 13,2 km/h (3 Bft) S-SW 205 0 min 0,000 mm 0,0 UV-I 0 W/m 17,2 C 18,4 C 20,9 km/h (4 Bft) 94,74 %
12.06.2017 22:48 20,7 C 23,9 C 81 % 1013,4 hPa 0,0 l/m 14,6 km/h (3 Bft) SW 230 0 min 0,000 mm 0,0 UV-I 0 W/m 17,3 C 18,2 C 20,9 km/h (4 Bft) 92,86 %
12.06.2017 22:50 20,7 C 23,9 C 81 % 1013,5 hPa 0,0 l/m 11,9 km/h (2 Bft) SW 230 0 min 0,000 mm 0,0 UV-I 0 W/m 17,3 C 18,9 C 19,3 km/h (3 Bft) 95,12 %
12.06.2017 22:52 20,7 C 23,9 C 80 % 1013,5 hPa 0,0 l/m 10,9 km/h (2 Bft) W-SW 242 0 min 0,000 mm 0,0 UV-I 0 W/m 17,1 C 19,1 C 14,5 km/h (3 Bft) 96,23 %
12.06.2017 22:54 20,7 C 23,9 C 80 % 1013,5 hPa 0,0 l/m 11,2 km/h (2 Bft) W-SW 239 0 min 0,000 mm 0,0 UV-I 0 W/m 17,1 C 19,1 C 17,7 km/h (3 Bft) 94,87 %
12.06.2017 22:56 20,7 C 23,9 C 79 % 1013,5 hPa 0,0 l/m 10,4 km/h (2 Bft) W-SW 239 0 min 0,000 mm 0,0 UV-I 0 W/m 16,9 C 19,3 C 16,1 km/h (3 Bft) 97,87 %
12.06.2017 22:58 20,7 C 23,9 C 79 % 1013,5 hPa 0,0 l/m 9,3 km/h (2 Bft) W-SW 250 0 min 0,000 mm 0,0 UV-I 0 W/m 16,9 C 19,6 C 14,5 km/h (3 Bft) 96,00 %
12.06.2017 23:00 20,7 C 23,9 C 79 % 1013,5 hPa 0,0 l/m 8,2 km/h (2 Bft) W-SW 242 0 min 0,026 mm 0,0 UV-I 0 W/m 16,9 C 20,0 C 14,5 km/h (3 Bft) 96,23 %
12.06.2017 23:02 20,7 C 23,9 C 79 % 1013,5 hPa 0,0 l/m 7,6 km/h (2 Bft) SW 224 0 min 0,000 mm 0,0 UV-I 0 W/m 16,9 C 20,2 C 12,9 km/h (3 Bft) 94,29 %
12.06.2017 23:04 20,7 C 23,9 C 79 % 1013,5 hPa 0,0 l/m 8,7 km/h (2 Bft) W-SW 246 0 min 0,000 mm 0,0 UV-I 0 W/m 16,9 C 19,8 C 14,5 km/h (3 Bft) 96,43 %
12.06.2017 23:06 20,7 C 23,9 C 79 % 1013,5 hPa 0,0 l/m 8,6 km/h (2 Bft) W-SW 240 0 min 0,000 mm 0,0 UV-I 0 W/m 16,9 C 19,9 C 12,9 km/h (3 Bft) 97,56 %
12.06.2017 23:08 20,7 C 23,9 C 79 % 1013,5 hPa 0,0 l/m 8,6 km/h (2 Bft) W-SW 237 0 min 0,000 mm 0,0 UV-I 0 W/m 16,9 C 19,9 C 12,9 km/h (3 Bft) 92,00 %
12.06.2017 23:10 20,7 C 23,9 C 79 % 1013,6 hPa 0,0 l/m 9,7 km/h (2 Bft) SW 221 0 min 0,000 mm 0,0 UV-I 0 W/m 16,9 C 19,5 C 14,5 km/h (3 Bft) 100,00 %
12.06.2017 23:12 20,7 C 23,9 C 80 % 1013,6 hPa 0,0 l/m 8,9 km/h (2 Bft) SW 232 0 min 0,000 mm 0,0 UV-I 0 W/m 17,1 C 19,8 C 14,5 km/h (3 Bft) 98,00 %
12.06.2017 23:14 20,6 C 23,9 C 80 % 1013,6 hPa 0,0 l/m 8,1 km/h (2 Bft) S-SW 210 0 min 0,000 mm 0,0 UV-I 0 W/m 17,0 C 19,9 C 12,9 km/h (3 Bft) 100,00 %
12.06.2017 23:16 20,6 C 23,9 C 80 % 1013,6 hPa 0,0 l/m 7,3 km/h (2 Bft) SW 226 0 min 0,000 mm 0,0 UV-I 0 W/m 17,0 C 20,2 C 11,3 km/h (2 Bft) 98,21 %
12.06.2017 23:18 20,6 C 23,9 C 80 % 1013,6 hPa 0,0 l/m 9,0 km/h (2 Bft) W-SW 252 0 min 0,000 mm 0,0 UV-I 0 W/m 17,0 C 19,6 C 12,9 km/h (3 Bft) 94,74 %
12.06.2017 23:20 20,6 C 23,9 C 81 % 1013,6 hPa 0,0 l/m 7,0 km/h (2 Bft) W-SW 242 0 min 0,000 mm 0,0 UV-I 0 W/m 17,2 C 20,4 C 12,9 km/h (3 Bft) 98,21 %
12.06.2017 23:22 20,5 C 23,9 C 81 % 1013,7 hPa 0,0 l/m 8,8 km/h (2 Bft) S-SW 211 0 min 0,000 mm 0,0 UV-I 0 W/m 17,1 C 19,6 C 12,9 km/h (3 Bft) 100,00 %
12.06.2017 23:24 20,4 C 23,9 C 81 % 1013,8 hPa 0,0 l/m 9,9 km/h (2 Bft) W-SW 243 0 min 0,000 mm 0,0 UV-I 0 W/m 17,0 C 19,1 C 14,5 km/h (3 Bft) 97,87 %
12.06.2017 23:26 20,4 C 23,9 C 80 % 1013,8 hPa 0,0 l/m 8,7 km/h (2 Bft) SW 224 0 min 0,000 mm 0,0 UV-I 0 W/m 16,8 C 19,5 C 16,1 km/h (3 Bft) 100,00 %
12.06.2017 23:28 20,4 C 23,9 C 79 % 1013,8 hPa 0,0 l/m 7,8 km/h (2 Bft) W-SW 252 0 min 0,000 mm 0,0 UV-I 0 W/m 16,6 C 19,8 C 12,9 km/h (3 Bft) 97,56 %
12.06.2017 23:30 20,5 C 23,9 C 78 % 1013,9 hPa 0,0 l/m 8,0 km/h (2 Bft) W-SW 244 0 min 0,000 mm 0,0 UV-I 0 W/m 16,5 C 19,9 C 14,5 km/h (3 Bft) 100,00 %
12.06.2017 23:32 20,5 C 23,9 C 76 % 1013,9 hPa 0,0 l/m 8,5 km/h (2 Bft) W-SW 252 0 min 0,000 mm 0,0 UV-I 0 W/m 16,1 C 19,7 C 16,1 km/h (3 Bft) 100,00 %
12.06.2017 23:34 20,6 C 23,9 C 71 % 1013,9 hPa 0,0 l/m 10,7 km/h (2 Bft) W-SW 254 0 min 0,000 mm 0,0 UV-I 0 W/m 15,2 C 19,1 C 17,7 km/h (3 Bft) 97,44 %
12.06.2017 23:36 20,7 C 23,9 C 67 % 1013,9 hPa 0,0 l/m 11,3 km/h (2 Bft) SW 220 0 min 0,000 mm 0,0 UV-I 0 W/m 14,3 C 19,0 C 20,9 km/h (4 Bft) 100,00 %
12.06.2017 23:38 20,9 C 23,9 C 66 % 1013,9 hPa 0,0 l/m 6,4 km/h (2 Bft) W-SW 240 0 min 0,000 mm 0,0 UV-I 0 W/m 14,3 C 20,9 C 14,5 km/h (3 Bft) 100,00 %
12.06.2017 23:40 21,0 C 23,9 C 65 % 1013,9 hPa 0,0 l/m 4,0 km/h (1 Bft) W 264 0 min 0,000 mm 0,0 UV-I 0 W/m 14,2 C 21,0 C 6,4 km/h (2 Bft) 97,87 %
12.06.2017 23:42 21,1 C 23,9 C 64 % 1014,0 hPa 0,0 l/m 4,1 km/h (1 Bft) W 259 0 min 0,000 mm 0,0 UV-I 0 W/m 14,0 C 21,1 C 6,4 km/h (2 Bft) 100,00 %
12.06.2017 23:44 21,1 C 23,9 C 63 % 1014,0 hPa 0,0 l/m 5,4 km/h (1 Bft) W 259 0 min 0,000 mm 0,0 UV-I 0 W/m 13,8 C 21,1 C 11,3 km/h (2 Bft) 98,00 %
12.06.2017 23:46 21,1 C 23,9 C 63 % 1014,0 hPa 0,0 l/m 6,3 km/h (2 Bft) W 274 0 min 0,000 mm 0,0 UV-I 0 W/m 13,8 C 21,1 C 9,7 km/h (2 Bft) 100,00 %
12.06.2017 23:48 21,2 C 23,9 C 63 % 1014,0 hPa 0,0 l/m 5,7 km/h (1 Bft) W 267 0 min 0,000 mm 0,0 UV-I 0 W/m 13,9 C 21,2 C 11,3 km/h (2 Bft) 96,00 %
12.06.2017 23:50 21,2 C 23,9 C 62 % 1014,0 hPa 0,0 l/m 5,3 km/h (1 Bft) W 263 0 min 0,000 mm 0,0 UV-I 0 W/m 13,6 C 21,2 C 8,0 km/h (2 Bft) 98,11 %
12.06.2017 23:52 21,2 C 23,9 C 61 % 1014,0 hPa 0,0 l/m 6,5 km/h (2 Bft) W 259 0 min 0,000 mm 0,0 UV-I 0 W/m 13,4 C 21,2 C 14,5 km/h (3 Bft) 100,00 %
12.06.2017 23:54 21,3 C 23,9 C 60 % 1014,1 hPa 0,0 l/m 5,3 km/h (1 Bft) W-NW 298 0 min 0,000 mm 0,0 UV-I 0 W/m 13,2 C 21,3 C 11,3 km/h (2 Bft) 97,56 %
12.06.2017 23:56 21,3 C 23,9 C 60 % 1014,0 hPa 0,0 l/m 7,2 km/h (2 Bft) W 277 0 min 0,000 mm 0,0 UV-I 0 W/m 13,2 C 21,0 C 14,5 km/h (3 Bft) 96,30 %
12.06.2017 23:58 21,3 C 23,9 C 59 % 1014,0 hPa 0,0 l/m 4,4 km/h (1 Bft) W-NW 293 0 min 0,000 mm 0,0 UV-I 0 W/m 13,0 C 21,3 C 11,3 km/h (2 Bft) 97,26 %
_ Min-Zeit 02:46 06:24 11:42 17:28 - 00:08 - - - - - - 00:28 02:42 00:08 00:04
Minimum _ 13,6 C 23,3 C 48 % 1011,6 hPa - 0,0 km/h (0 Bft) - - - - - - 10,2 C 13,7 C 0,0 km/h (0 Bft) 9,09 %
_ Max-Zeit 11:52 00:10 05:30 00:00 00:00 19:22 - - 16:23 12:02 11:58 12:02 15:36 11:36 13:50 01:08
Maximum _ 28,1 C 26,1 C 88 % 1014,1 hPa 0,0 l/m 20,5 km/h
SW (4 Bft)
- - 3 min 0,661 mm 7,2 UV-I 1125 W/m 18,6 C 27,7 C 41,8 km/h
W-SW (6 Bft)
100,00 %
Durchschnitt _ 21,1 C 24,4 C 70 % 1012,9 hPa #0,0 l/m 6,9 km/h (2 Bft) W-SW - #6:41 h #4,166 mm 2,6 UV-I 307 W/m 15,0 C 20,6 C 11,7 km/h (2 Bft) 96,60 %